GFSSW_700_spd_000.txt.gz
Wind_Speed
6 5 5 4 3 3 2 2 3 4 4 4 4 4 5 5 4 3 3 3 3 2 2 4 6 9 12 13 7 7 11 11 6 6 7 4 9 7 3 12 11 14 10 3 7
7 7 6 6 5 4 4 4 4 4 5 5 5 5 5 5 6 5 4 3 4 2 1 4 6 8 10 6 8 8 1 5 4 7 8 8 8 8 7 5 11 6 3 7 12
9 8 8 7 7 6 6 5 5 5 5 5 5 5 4 4 7 6 5 5 3 2 2 5 8 7 9 9 10 9 17 12 7 6 7 10 9 8 6 11 15 11 4 2 11
10 10 9 9 9 8 8 7 7 6 6 6 5 5 3 2 2 2 4 5 3 2 1 5 6 8 8 10 9 14 8 10 10 9 9 12 14 11 9 12 12 11 6 6 8
11 11 11 11 11 10 10 9 9 8 8 7 6 5 4 5 9 6 5 5 5 5 2 5 7 8 11 8 11 14 14 13 12 11 12 12 10 12 9 7 9 10 8 3 11
13 13 12 12 12 11 11 11 10 10 9 9 8 7 6 3 9 8 5 6 7 7 5 5 6 8 9 12 15 16 13 17 16 15 12 9 8 12 7 5 2 3 3 1 4
15 14 14 14 13 13 12 12 11 11 11 11 10 9 8 11 10 8 6 6 6 7 6 6 10 9 10 11 12 19 21 20 16 16 14 8 10 8 10 6 5 7 9 10 9
15 15 15 15 14 14 13 12 11 12 11 11 11 12 10 9 11 10 8 7 5 6 8 11 11 14 14 13 15 16 19 20 18 18 10 8 6 12 11 10 7 7 8 11 10
15 14 14 14 14 14 13 12 11 11 11 11 12 12 8 12 14 13 10 9 8 9 10 12 13 11 9 15 17 18 24 23 12 5 9 7 5 6 7 10 10 9 8 8 10
15 14 13 13 13 13 13 11 10 11 11 9 10 8 12 8 14 15 14 14 10 10 11 11 12 11 14 17 20 20 20 11 16 25 8 8 8 6 10 10 8 13 9 9 10
15 15 14 13 12 12 12 11 10 12 14 11 4 11 6 9 13 13 11 11 10 10 11 10 12 16 15 17 17 23 22 17 8 3 7 10 7 8 10 5 8 15 15 9 9
16 16 15 14 13 12 12 9 13 16 18 14 18 18 15 16 11 12 15 15 15 14 12 13 17 17 15 16 18 19 20 18 14 12 10 11 11 13 13 17 5 9 12 10 10
18 17 16 15 15 14 12 15 13 15 22 20 19 19 18 18 17 16 16 14 15 15 16 16 6 8 17 17 17 17 17 17 16 16 11 14 16 19 19 14 17 11 9 8 10
21 21 20 17 17 13 12 12 10 10 12 20 15 20 20 17 21 19 24 18 16 17 16 19 18 19 10 18 15 17 13 14 16 15 18 11 16 17 13 11 11 20 12 11 10
21 21 22 21 20 13 18 9 4 3 5 2 18 12 14 22 8 15 26 20 21 18 14 20 16 19 21 13 13 17 11 10 11 17 19 20 18 19 7 8 13 15 14 4 10
18 16 16 17 18 16 16 9 7 4 11 12 15 13 18 19 15 7 26 20 18 19 20 19 14 14 16 18 15 13 15 13 16 18 19 22 21 14 7 12 5 7 3 8 10
20 18 17 14 13 15 14 12 6 14 6 13 14 12 17 17 20 17 23 26 28 22 24 21 22 17 13 14 15 15 14 15 14 13 14 20 26 14 17 9 5 10 8 10 13
22 20 17 13 14 14 15 12 15 9 24 3 8 14 19 16 21 20 20 26 26 25 17 20 21 22 21 19 17 20 17 20 14 9 6 12 14 7 9 8 2 7 10 15 11
23 21 18 14 13 15 21 21 15 18 13 14 16 19 17 19 21 20 22 25 25 28 28 20 23 11 21 19 17 15 18 20 24 28 8 16 19 10 11 9 2 4 11 12 12
19 19 17 14 14 21 25 26 17 19 13 14 16 18 19 20 19 19 22 19 23 25 23 22 19 14 14 16 17 20 14 12 19 15 14 12 16 13 13 11 5 8 13 11 17
13 2 5 18 12 25 27 24 19 20 12 14 12 17 18 22 19 23 22 19 17 23 24 21 20 15 16 17 19 18 21 20 16 19 12 9 5 9 9 18 12 12 13 15 19
11 6 14 13 15 20 24 23 18 18 17 20 19 19 18 17 16 15 19 21 18 17 23 20 14 22 16 15 14 19 18 22 18 18 21 13 4 8 8 11 25 17 15 16 13
11 11 11 13 19 21 20 23 22 21 19 19 19 18 17 16 14 18 20 9 4 17 18 20 17 18 18 16 16 18 19 20 19 23 21 12 9 9 3 7 22 17 15 16 18
8 3 13 15 19 21 20 23 24 23 22 20 18 19 17 19 18 15 17 13 12 14 11 13 14 20 23 15 10 15 17 19 22 22 23 23 8 1 13 2 4 13 14 21 19
2 6 9 12 14 20 23 19 19 24 21 21 21 21 20 20 20 22 19 17 12 14 19 17 20 19 25 16 11 17 20 18 22 25 20 20 11 23 16 24 12 10 20 19 15
4 11 14 18 14 11 17 25 21 16 25 23 22 19 21 20 21 19 19 19 16 17 16 18 21 18 23 20 19 16 16 11 15 18 24 22 15 15 10 14 17 21 18 15 11
19 17 23 19 13 12 14 15 23 21 18 23 17 20 21 21 22 19 18 15 19 18 15 22 22 22 24 20 20 23 16 19 21 19 18 11 4 20 14 5 17 17 12 12 6

GFSSW_700_spd_006.txt.gz
Wind_Speed
6 5 4 4 3 2 2 1 1 2 2 2 3 3 2 1 2 4 5 6 7 4 2 3 7 10 14 14 10 7 3 6 4 4 11 5 7 6 2 2 6 3 4 8 7
8 7 7 6 6 5 5 4 3 3 2 2 3 4 5 5 2 1 1 3 5 5 3 5 9 12 13 16 11 7 4 2 11 12 9 3 5 4 7 5 6 2 4 4 5
9 8 8 8 8 7 7 6 6 5 4 4 4 4 5 5 5 5 3 0 2 4 2 5 9 17 16 16 10 4 3 7 14 15 3 7 9 9 6 4 3 5 4 4 5
10 9 9 10 9 9 9 8 8 7 6 5 5 4 4 5 3 5 4 2 1 2 2 1 7 15 18 14 8 7 11 18 15 11 12 8 11 8 5 6 3 4 4 4 5
11 11 11 10 10 10 10 10 10 9 8 8 7 6 5 6 5 4 3 3 3 3 1 2 6 10 16 17 12 12 9 11 21 14 11 15 12 7 5 3 3 2 1 6 6
12 12 12 11 12 11 11 11 11 10 10 10 9 9 8 6 6 5 5 4 4 5 4 4 6 9 17 15 7 7 9 9 14 10 12 12 11 9 10 6 4 1 2 3 6
13 13 13 13 13 13 12 12 13 12 11 11 11 10 11 9 6 8 7 6 5 6 6 7 11 9 10 8 9 5 7 5 7 9 15 11 12 16 9 6 1 5 2 7 4
14 14 13 13 13 13 13 13 13 13 13 12 12 10 11 11 8 9 8 8 7 7 7 12 13 11 10 8 8 7 6 8 10 16 18 15 16 15 10 12 8 10 10 12 17
13 13 12 11 13 12 13 13 13 14 14 13 12 11 12 8 9 12 10 10 10 10 8 9 9 11 10 10 7 5 6 7 17 13 19 18 7 7 15 14 12 18 21 6 16
13 11 11 11 11 11 12 12 13 14 14 14 13 11 11 7 9 11 12 13 12 14 9 8 10 10 10 10 3 1 2 14 20 12 11 15 13 12 18 21 23 21 22 8 6
11 11 11 11 10 9 11 11 12 15 16 15 14 16 12 9 10 6 9 13 14 12 10 10 12 10 5 8 6 11 18 25 12 13 14 10 13 10 16 31 29 21 11 10 10
12 12 12 11 11 9 11 12 11 16 16 16 17 16 19 13 11 7 10 13 13 12 9 11 12 2 0 6 10 12 19 17 15 15 15 19 17 20 21 26 24 13 8 6 17
16 14 14 13 12 11 15 16 11 16 19 14 18 18 20 16 14 10 9 10 13 14 13 15 7 3 4 3 7 13 16 14 15 21 19 12 16 16 21 18 20 13 5 3 12
18 17 15 14 15 16 17 13 11 14 12 16 14 21 24 20 22 16 13 9 13 12 7 13 12 10 7 10 11 16 12 15 18 16 8 5 5 7 12 17 20 12 8 9 16
20 19 18 16 17 18 18 10 8 7 3 5 8 10 18 29 12 10 14 19 17 12 16 15 9 6 12 10 11 21 13 15 17 17 14 17 13 10 8 14 15 9 3 11 10
19 19 18 17 18 21 18 12 11 6 7 3 9 9 15 20 18 12 9 22 20 16 17 23 16 19 14 14 18 15 20 19 16 10 8 13 10 10 15 13 12 10 5 3 9
19 19 18 16 17 16 15 14 9 7 6 3 10 14 10 9 11 18 21 25 26 17 23 24 27 21 21 23 17 16 15 6 5 3 8 14 10 10 9 8 12 10 1 2 3
19 18 17 17 17 14 15 19 10 8 15 4 4 17 20 14 15 17 20 26 26 26 21 13 14 22 16 22 21 15 16 12 5 3 8 23 5 4 9 7 10 9 5 5 4
18 18 16 19 18 18 19 23 15 10 6 9 5 5 14 24 18 17 24 27 25 23 28 11 21 9 16 13 22 26 21 13 23 16 4 7 2 3 3 21 5 5 10 7 1
13 14 16 19 19 22 23 27 20 18 9 6 2 1 9 1 18 19 24 29 32 29 25 21 26 21 18 18 21 31 12 8 7 2 4 3 5 6 14 13 11 14 11 10 5
8 10 14 17 21 25 28 28 23 19 13 7 9 9 8 12 8 6 4 13 20 30 28 26 24 25 22 15 8 26 25 14 15 8 6 2 3 15 13 13 10 16 12 11 8
7 14 10 11 19 27 30 29 23 20 19 17 12 10 11 16 17 10 9 7 13 25 33 26 20 29 27 19 19 13 29 23 18 14 5 3 4 9 10 12 15 13 15 12 14
11 15 13 8 13 13 15 17 19 20 15 20 12 5 3 15 12 9 15 14 6 2 17 26 38 28 26 22 19 17 16 23 20 19 22 9 7 17 12 14 13 14 17 20 17
19 15 19 16 8 6 11 15 17 14 13 16 16 12 10 15 12 15 21 11 4 7 3 11 27 31 27 19 9 11 10 12 19 22 22 26 18 20 19 23 20 16 9 16 21
17 21 20 19 23 24 18 13 16 19 19 12 18 17 14 20 20 18 21 19 14 6 3 9 8 14 17 13 14 14 14 15 16 19 17 18 23 17 21 26 23 18 12 20 14
11 22 22 14 12 13 15 10 10 16 18 20 12 15 19 24 24 16 17 13 14 14 7 5 6 11 13 16 13 15 13 13 15 17 36 24 16 16 23 25 13 11 5 7 25
12 14 21 18 16 11 14 16 15 16 20 19 16 12 15 22 25 24 17 20 15 14 10 10 8 9 11 16 19 15 12 7 13 6 14 11 17 20 29 18 6 3 4 10 17

GFSSW_700_spd_009.txt.gz
Wind_Speed
7 6 5 4 4 4 3 2 1 1 1 1 2 1 1 3 4 4 5 6 5 3 6 10 13 15 15 11 8 4 9 7 5 3 6 8 4 3 3 3 3 6 2 4 8
8 8 7 7 6 7 6 5 4 3 3 2 2 3 3 2 2 1 2 4 5 4 5 9 14 17 17 13 10 8 6 9 10 12 13 9 5 5 9 11 4 6 4 1 5
10 10 10 9 8 9 8 7 6 6 5 4 3 3 3 3 4 4 2 2 3 3 3 7 13 20 19 15 11 7 2 6 7 15 19 15 12 13 8 7 5 2 1 2 5
12 12 11 10 10 10 10 10 9 8 7 7 5 4 4 4 3 4 4 4 3 3 3 5 10 17 19 15 11 9 6 9 12 12 15 23 19 15 10 4 4 3 3 2 6
13 13 12 11 11 11 12 12 10 10 9 9 7 7 5 5 6 5 4 6 5 4 3 5 8 17 19 17 16 12 9 9 12 12 8 7 7 12 10 10 8 3 3 3 5
14 14 13 12 12 13 13 13 12 11 11 10 10 9 8 7 8 7 6 5 6 6 4 5 12 17 22 21 18 15 14 11 8 8 12 9 7 9 14 11 9 5 6 6 4
16 16 15 14 14 14 14 14 14 13 13 12 11 11 10 10 8 9 8 7 6 7 7 9 13 15 24 23 20 15 15 13 14 11 13 13 6 11 12 13 12 11 10 5 9
17 17 16 15 15 16 15 16 15 15 14 13 12 11 10 11 10 9 9 8 7 6 8 10 12 14 14 19 14 12 10 12 4 10 14 18 9 11 14 17 16 14 10 7 8
18 17 17 15 15 16 16 16 15 15 15 14 12 12 12 9 10 13 11 10 8 7 7 9 12 14 11 11 11 12 10 13 12 18 16 8 10 11 11 16 18 15 15 15 8
18 17 16 15 15 16 16 15 15 15 16 15 14 11 12 11 13 12 15 12 11 10 10 11 12 10 10 10 3 7 5 11 12 16 18 18 7 7 9 17 20 19 16 17 9
17 17 15 15 14 15 15 14 15 16 17 16 12 13 11 15 12 10 14 16 16 14 15 13 11 11 3 5 11 9 8 13 9 14 14 15 9 12 13 19 24 25 18 23 17
17 16 15 15 15 14 15 14 14 15 15 16 16 16 17 16 14 17 16 13 14 14 14 14 13 3 7 7 8 10 12 12 13 13 19 19 15 18 16 21 22 26 18 17 17
17 16 18 16 14 14 14 12 11 13 17 13 17 17 19 20 16 13 13 11 12 13 11 13 4 12 10 8 6 9 12 11 16 16 16 11 12 10 9 13 20 28 23 21 15
19 21 17 14 16 15 16 9 10 12 11 12 12 17 21 22 23 15 12 9 11 8 10 13 13 13 9 8 4 10 4 13 12 15 14 13 4 9 3 7 17 26 23 15 16
22 20 16 16 17 17 16 9 9 6 4 3 8 11 18 28 12 8 15 15 13 10 11 9 4 6 12 11 9 15 14 19 18 11 8 9 5 5 12 18 13 14 15 8 8
19 18 18 19 19 20 15 11 10 4 7 2 5 8 13 26 27 14 13 17 16 16 18 19 16 19 16 16 12 12 16 16 15 11 4 8 6 7 10 11 9 11 12 3 4
19 18 17 17 19 18 14 13 8 8 6 2 8 11 10 11 22 21 14 18 22 16 20 18 22 21 20 17 13 13 13 4 4 2 5 2 5 6 11 11 7 7 8 2 4
20 19 17 19 18 16 14 17 11 7 12 8 6 15 18 15 15 26 27 19 19 22 23 13 17 9 18 20 14 15 13 12 5 3 5 12 4 4 8 9 11 9 10 1 5
20 19 18 22 21 19 19 21 14 10 7 12 5 6 15 22 18 10 22 23 23 22 26 7 10 11 8 12 7 8 17 16 12 3 1 6 7 4 10 11 11 11 13 5 1
15 15 18 23 22 23 24 26 17 13 11 6 6 7 5 5 15 19 19 19 25 23 21 28 26 18 13 14 15 15 21 7 8 3 3 3 5 9 8 10 13 15 14 15 4
11 13 16 19 23 25 29 27 26 17 17 9 9 7 4 3 2 5 11 19 16 13 26 32 31 25 20 11 11 13 12 15 9 6 7 3 5 4 11 10 9 12 18 19 20
9 13 14 19 22 28 31 28 29 21 22 16 14 12 5 4 8 5 12 12 1 8 17 25 18 32 27 17 14 15 13 19 20 8 7 5 7 6 12 16 12 14 21 19 12
11 15 15 18 12 19 21 24 26 24 20 16 15 16 12 6 5 6 11 12 7 3 7 10 24 31 28 24 15 9 7 15 25 27 12 5 12 16 20 19 16 17 16 14 15
14 15 18 18 14 11 13 17 19 21 22 20 22 20 18 14 9 9 13 12 13 5 3 9 19 30 29 20 6 9 6 8 3 8 17 19 22 17 20 22 18 20 15 13 14
18 16 23 22 18 15 14 11 12 14 17 11 12 14 13 18 14 17 18 20 16 13 7 7 11 17 29 29 21 15 14 8 9 5 6 11 18 17 22 19 19 14 14 10 16
11 17 23 18 23 19 18 16 15 15 14 16 17 19 13 13 17 15 17 12 9 14 10 6 4 4 4 9 9 14 14 10 7 11 13 16 16 19 15 21 24 11 6 14 14
12 14 22 22 17 18 19 19 19 17 14 16 15 19 13 11 18 17 20 20 12 9 12 6 5 4 3 4 6 6 8 6 4 7 10 13 17 17 17 22 18 10 7 10 18

GFSSW_700_spd_012.txt.gz
Wind_Speed
7 5 4 3 2 2 2 1 1 0 1 1 2 2 4 4 4 5 6 6 6 7 9 13 16 15 13 10 6 10 15 11 6 4 7 11 4 3 6 5 4 4 2 3 6
9 8 7 6 5 5 5 3 3 2 2 1 2 2 3 3 3 2 4 5 6 7 10 14 17 18 15 11 7 5 8 7 5 11 12 11 8 9 9 9 10 8 4 1 3
10 10 10 9 8 7 7 6 5 5 4 2 2 2 2 3 3 3 2 3 5 6 7 12 18 18 15 12 8 6 1 6 5 12 15 14 11 15 14 6 7 9 5 2 3
12 12 11 11 10 10 9 8 7 6 5 4 3 3 2 2 3 4 3 4 4 5 7 10 15 18 14 12 10 6 3 4 5 11 11 6 4 8 10 5 3 6 5 4 2
14 14 13 13 12 12 11 10 10 8 7 6 5 4 3 3 5 5 4 5 5 4 7 9 13 19 17 16 14 12 9 7 7 10 9 10 7 7 6 6 7 8 6 6 6
16 16 15 14 14 14 13 12 11 9 9 8 7 6 5 5 6 7 5 5 5 4 6 9 14 19 20 19 17 16 15 11 9 11 12 11 10 10 10 8 11 9 9 8 7
18 17 17 16 15 15 14 14 13 11 11 10 8 7 7 7 6 7 6 5 5 6 6 10 13 16 20 21 21 19 16 15 15 16 12 12 11 14 12 11 13 13 12 10 2
19 19 18 18 17 16 16 15 14 13 12 11 9 8 8 9 9 8 8 7 6 6 8 9 10 13 16 21 19 17 18 17 6 7 9 13 17 13 12 14 17 16 15 11 5
19 20 19 19 18 18 17 15 15 13 13 11 10 9 10 9 11 12 10 9 8 7 7 8 10 11 12 14 20 16 14 12 10 8 18 12 13 12 13 18 17 17 14 12 6
19 19 19 19 18 19 17 15 16 14 14 12 11 9 10 10 11 13 13 11 10 9 8 9 9 10 10 11 9 10 13 8 7 13 13 13 14 9 11 10 10 14 18 17 13
19 18 18 19 18 19 16 15 14 14 14 13 8 12 10 12 10 14 14 13 12 11 11 12 12 11 5 6 11 7 8 9 4 9 15 16 15 7 9 14 14 12 20 18 15
18 17 17 18 17 17 14 13 12 12 13 14 15 14 13 12 13 15 15 14 14 14 13 14 14 8 10 9 8 11 11 8 8 11 14 16 11 9 8 13 11 9 19 18 12
17 16 16 16 16 15 14 11 11 12 14 11 13 13 16 17 15 15 13 12 10 11 11 13 5 7 11 9 9 9 9 5 11 11 12 12 9 9 11 11 6 9 16 17 13
17 17 14 16 16 15 13 8 9 10 8 7 7 13 17 19 19 16 13 10 11 7 10 11 12 10 8 10 6 6 3 9 10 11 8 7 6 14 12 10 7 8 12 15 12
18 17 16 16 15 16 12 7 8 4 3 3 6 12 12 21 11 18 17 15 11 7 8 4 3 10 13 11 9 7 9 12 9 8 8 7 5 6 11 13 9 6 7 12 8
18 17 17 16 18 18 12 8 7 4 6 3 4 5 9 17 22 10 15 20 15 12 14 15 13 16 15 15 13 10 11 11 7 8 2 5 3 4 7 10 9 3 4 9 4
19 18 18 18 20 18 12 12 7 8 4 5 7 10 11 12 28 21 14 17 17 12 14 13 16 17 15 18 17 13 10 4 2 1 6 2 4 10 11 9 6 6 11 8 5
19 18 17 20 20 16 14 17 11 7 12 8 8 10 10 9 16 28 22 17 14 15 14 10 7 5 6 17 15 9 8 5 4 3 4 7 5 9 10 8 3 9 14 11 2
19 17 17 21 19 17 19 22 11 13 8 15 7 5 9 13 7 21 28 27 24 20 15 6 5 0 8 6 13 7 7 9 10 3 1 4 8 10 8 8 6 8 10 11 7
16 16 19 21 21 20 22 24 17 13 11 6 10 5 5 11 15 14 10 5 19 21 20 18 20 7 4 7 12 11 8 7 8 4 3 4 5 8 1 6 8 11 13 17 12
12 15 18 20 22 23 27 22 22 16 15 10 9 7 5 4 6 10 10 15 7 6 11 17 21 26 17 12 7 13 4 6 7 4 7 2 4 5 2 1 3 10 13 15 15
10 14 16 20 22 27 30 23 24 24 17 14 12 10 6 7 6 5 10 14 9 3 7 13 13 15 16 17 16 11 10 11 12 6 4 2 9 8 7 10 14 13 14 15 16
8 13 14 19 21 24 25 24 24 23 15 18 16 15 10 7 5 8 9 12 12 5 5 7 9 10 13 18 19 14 6 8 14 13 13 5 11 19 11 15 16 19 13 14 14
8 10 15 19 18 19 16 18 20 20 22 21 18 15 17 17 9 8 14 11 14 8 6 6 9 14 15 16 4 14 9 2 2 2 8 13 11 9 14 16 17 18 15 17 14
10 11 16 20 18 15 13 10 13 15 12 12 11 15 18 19 17 15 16 17 15 9 8 5 6 9 12 19 21 12 11 10 7 2 3 2 5 9 11 13 17 19 14 16 13
8 14 14 20 20 18 16 14 14 10 12 13 15 13 14 11 13 16 17 17 17 11 10 5 4 4 6 16 17 15 17 15 9 3 2 7 12 12 10 12 15 18 14 13 10
7 11 17 18 21 18 20 17 16 14 10 10 14 17 17 13 12 13 21 18 18 10 10 6 7 5 6 10 11 9 12 12 9 5 5 4 6 8 9 10 14 17 12 10 10

GFSSW_700_spd_015.txt.gz
Wind_Speed
6 5 4 3 3 2 3 2 2 3 3 4 5 5 5 6 5 6 5 5 6 8 11 12 13 12 11 7 4 9 14 9 7 6 8 10 8 6 7 7 8 6 4 5 5
8 8 7 6 5 3 2 2 2 2 2 2 4 6 6 5 5 4 4 5 6 9 12 14 15 14 12 9 7 13 13 8 6 7 9 7 6 9 9 8 5 6 7 4 2
11 10 9 8 6 5 4 4 3 2 2 3 3 4 6 7 6 5 5 4 5 7 8 13 17 15 12 10 7 8 7 5 4 9 7 7 3 7 5 3 2 3 4 5 2
13 12 11 10 9 8 7 6 5 3 3 3 3 3 4 6 6 7 7 5 5 7 8 11 15 15 13 11 9 7 4 3 2 7 7 7 7 7 4 2 5 6 6 6 6
15 14 13 11 11 10 9 9 6 5 4 4 4 4 4 4 6 8 8 8 7 7 9 11 15 17 15 14 11 9 7 6 5 7 10 10 9 6 6 4 7 9 8 9 7
16 15 14 14 13 13 11 10 8 7 6 4 4 5 4 5 7 7 6 7 8 8 9 13 18 18 15 14 14 13 11 10 9 10 15 14 13 13 9 5 8 10 8 8 3
17 17 16 16 15 14 13 12 10 9 8 6 5 5 6 7 6 9 7 6 6 8 10 11 15 19 17 16 18 18 16 13 13 12 9 9 13 14 12 7 10 10 10 6 5
18 18 18 17 16 16 15 13 12 11 9 8 6 6 7 9 9 8 8 7 6 7 8 8 10 13 14 15 15 17 17 15 8 8 11 8 12 9 8 9 9 11 12 8 4
18 18 18 18 17 18 17 14 13 12 11 10 8 8 9 10 11 11 9 8 8 8 8 7 7 8 7 8 14 16 12 14 8 7 10 8 13 9 5 11 10 8 10 12 8
19 18 18 18 18 19 17 14 14 12 12 10 10 8 10 11 12 13 12 10 10 9 8 8 6 6 7 8 7 11 13 15 9 8 9 8 10 9 6 7 7 6 10 14 15
19 19 18 17 17 18 16 14 14 13 12 12 6 14 7 13 12 13 13 13 12 10 10 10 8 5 3 5 8 8 8 8 6 7 12 11 11 9 6 6 9 9 11 17 18
19 19 18 16 16 16 14 14 13 12 12 12 14 14 12 11 13 15 15 14 14 13 12 11 10 7 9 8 8 12 10 8 9 9 12 11 8 4 4 6 8 12 13 16 16
17 17 16 15 14 14 13 12 12 11 11 10 12 14 17 14 15 14 12 10 10 12 12 11 8 6 11 8 7 5 4 3 6 7 9 10 6 7 8 6 7 6 13 13 14
16 16 15 14 13 12 11 10 9 8 4 5 11 15 18 19 16 14 13 10 11 8 10 8 11 7 11 6 6 3 2 2 7 7 6 7 6 4 5 9 6 9 10 11 11
17 15 15 15 13 11 11 9 7 4 1 5 9 10 14 20 12 20 16 14 9 7 9 5 2 13 12 6 8 6 5 5 7 8 8 8 4 6 8 8 7 5 6 6 6
18 15 16 16 14 13 10 8 8 4 5 5 7 10 11 21 16 13 23 18 15 13 12 11 11 12 12 12 9 9 7 7 7 7 7 7 3 4 2 6 5 3 8 11 7
17 16 17 17 16 15 12 11 8 7 6 6 9 10 12 16 23 13 19 23 18 13 13 10 13 15 14 16 16 14 8 4 3 3 3 3 4 7 9 9 5 4 12 11 6
18 17 17 18 18 17 15 16 10 7 9 9 8 10 8 11 17 21 14 18 19 14 6 4 2 4 2 11 13 18 15 7 3 2 1 5 5 4 9 8 4 8 13 9 6
16 16 19 20 19 19 20 21 10 14 12 12 8 6 9 10 7 22 20 18 15 15 8 2 3 9 3 7 8 11 12 10 7 6 3 4 8 8 3 1 2 7 12 8 7
14 16 19 20 20 21 23 24 17 13 12 8 13 7 9 11 11 11 13 8 18 22 17 10 9 7 8 6 11 6 7 4 7 4 4 3 6 5 2 6 4 5 12 12 10
12 14 17 19 21 23 27 23 22 16 13 11 10 10 9 10 13 16 11 8 4 4 16 20 16 10 9 6 9 15 13 8 5 5 3 2 3 3 4 1 3 8 14 13 15
9 13 15 19 22 26 29 21 21 22 15 14 10 10 9 10 9 12 13 10 11 8 9 13 10 10 10 9 12 10 13 6 6 5 6 3 8 6 5 10 11 11 10 13 17
8 11 12 17 21 25 26 26 21 18 19 17 13 13 10 10 8 11 11 14 11 7 5 8 10 5 3 5 11 13 13 15 14 11 10 8 10 11 14 8 12 14 12 13 15
6 8 12 16 19 20 21 20 22 21 21 17 13 16 15 13 11 10 12 11 13 10 5 5 8 11 11 7 6 7 13 13 8 6 7 13 13 10 9 10 11 14 16 14 11
6 9 11 16 15 14 15 13 18 17 13 16 16 18 17 14 16 14 12 14 12 8 7 6 6 11 13 14 13 12 14 13 8 6 5 4 5 5 8 11 9 11 17 13 12
7 9 10 14 16 14 11 13 11 14 14 14 12 14 16 15 16 13 18 17 11 10 8 8 6 9 12 13 16 14 19 18 14 10 9 6 7 8 11 13 15 12 15 12 12
5 9 11 12 14 13 16 14 12 11 10 13 15 16 13 14 14 16 20 20 14 12 11 9 9 8 10 10 9 8 16 21 19 15 12 9 8 8 10 10 11 11 13 13 11

GFSSW_700_spd_021.txt.gz
Wind_Speed
6 5 5 4 4 3 3 3 4 4 4 4 4 4 5 4 4 4 6 5 7 7 7 7 7 8 7 0 2 8 7 8 6 7 8 5 4 5 3 4 4 3 3 2 8
8 6 5 5 5 4 4 3 4 4 5 5 4 4 5 4 4 3 3 4 5 4 5 7 7 9 4 4 4 2 17 10 7 4 3 4 4 3 2 3 4 3 5 5 4
9 8 8 7 7 6 5 4 4 4 4 5 6 6 5 3 1 4 3 2 3 4 5 8 11 9 8 7 6 3 9 10 4 1 4 3 4 3 3 5 2 4 4 6 3
13 11 11 9 9 7 6 6 5 4 4 5 6 7 7 4 1 7 4 3 2 4 5 9 10 7 7 7 7 2 3 5 1 2 4 6 4 4 3 5 2 3 8 9 5
15 14 13 12 10 9 8 7 6 6 6 6 6 6 8 6 10 6 6 5 2 3 7 9 7 7 8 9 8 4 4 4 3 6 7 7 7 6 5 4 10 5 7 7 4
16 15 15 14 13 11 10 9 8 7 7 7 7 7 7 4 12 9 9 7 5 2 5 8 7 10 8 8 9 6 7 7 6 6 8 7 5 5 4 10 6 4 5 9 11
17 17 17 16 14 14 12 10 9 8 8 8 7 8 8 12 9 10 9 9 8 5 4 7 9 9 8 6 12 8 8 8 9 6 7 10 14 2 7 8 4 5 7 10 13
18 19 18 17 16 15 14 12 12 11 9 10 9 8 7 10 9 10 10 8 8 8 7 5 5 8 9 10 10 13 11 14 12 5 5 7 4 7 1 4 4 7 6 11 14
18 19 19 19 18 16 15 13 13 10 10 9 9 10 8 11 11 11 11 8 8 8 7 6 5 6 9 9 12 14 16 17 4 4 6 5 7 5 2 4 7 7 8 10 13
18 17 18 19 19 18 16 14 13 12 10 10 10 8 12 10 14 13 11 10 8 6 5 5 4 7 9 12 15 7 12 9 8 6 5 8 8 7 6 6 7 9 11 11 13
18 18 17 18 18 18 15 14 11 12 14 12 6 13 8 15 11 13 12 10 8 7 6 6 8 12 11 9 10 6 7 8 8 8 9 11 10 10 9 7 8 10 14 11 11
19 18 18 17 17 16 14 13 15 14 12 14 17 15 17 9 11 14 14 11 10 9 9 7 10 9 9 7 6 8 9 10 8 9 9 10 13 12 9 5 7 10 11 11 11
19 18 18 18 17 16 16 16 14 13 13 12 17 19 13 15 10 15 13 14 10 11 11 13 2 10 8 8 8 9 10 7 9 8 14 12 20 9 8 6 6 6 11 10 12
20 18 18 17 17 15 16 15 13 10 8 16 17 19 19 12 14 13 14 12 11 12 12 13 12 8 8 9 8 12 7 7 8 10 13 4 17 10 7 5 6 6 7 9 12
19 18 18 18 16 15 15 14 12 9 7 14 14 21 16 18 8 15 16 15 11 9 11 6 10 9 10 8 7 5 5 8 9 11 13 12 10 6 7 6 3 6 8 9 10
19 19 19 18 17 16 15 14 12 9 11 9 11 18 19 23 11 12 18 16 11 12 13 8 8 9 8 9 9 8 8 11 12 15 18 15 6 15 3 2 3 4 6 9 12
18 19 20 19 22 17 16 15 9 15 11 11 11 16 20 21 20 16 21 21 16 14 15 13 13 9 10 9 10 11 10 16 14 15 10 7 6 14 8 4 5 5 6 11 13
18 19 20 20 19 18 18 16 13 17 12 10 10 14 20 19 22 18 19 22 23 15 11 14 17 17 14 15 12 12 14 18 15 10 6 6 4 1 2 6 5 3 7 12 12
16 18 19 20 20 20 21 18 17 13 8 9 11 13 18 19 17 19 21 23 21 21 16 12 9 10 8 8 12 14 16 16 22 24 19 22 12 6 4 3 3 3 8 12 12
13 15 19 19 20 22 22 24 15 8 13 12 12 14 18 19 18 22 21 21 21 20 17 6 8 9 11 8 11 14 12 13 16 15 16 13 5 6 6 5 6 4 9 12 13
10 7 15 19 21 23 25 22 18 13 16 8 12 9 13 17 19 19 18 11 21 20 18 17 9 9 11 13 14 10 12 17 19 16 12 4 11 7 5 6 4 5 8 11 11
9 5 12 18 21 20 21 18 18 14 13 8 8 11 12 11 13 14 19 16 14 17 19 18 13 16 17 10 12 13 13 13 17 16 18 19 7 12 6 5 5 6 10 11 12
6 7 12 18 15 18 19 20 16 13 14 13 11 12 12 9 10 15 14 9 12 11 11 15 15 17 16 17 19 18 17 17 15 18 15 18 2 11 1 5 5 9 11 10 13
6 2 6 18 15 16 21 19 16 15 14 15 12 12 11 14 13 12 14 10 18 11 18 15 15 17 23 0 6 15 14 16 16 21 19 22 18 6 11 7 5 9 10 9 12
3 6 11 8 14 17 12 13 19 15 16 13 14 12 14 13 14 13 13 13 11 15 15 16 17 18 21 19 14 13 14 14 17 20 24 16 7 28 6 6 5 7 11 10 13
9 6 9 7 12 12 15 16 16 18 11 17 17 14 16 16 15 13 16 15 12 15 16 14 15 15 19 18 17 17 17 18 16 17 23 24 9 6 6 5 3 6 13 14 16
9 10 9 10 9 10 13 13 14 15 16 9 15 16 17 15 16 15 15 15 6 9 13 15 14 15 17 19 22 18 19 19 19 18 20 18 15 2 2 0 7 3 11 11 17

GFSSW_700_spd_024.txt.gz
Wind_Speed
5 4 3 2 2 1 1 1 1 1 1 1 2 2 1 2 2 3 4 4 6 5 6 6 7 6 5 4 7 8 5 19 7 17 13 8 9 6 5 10 6 6 6 6 7
7 5 5 4 4 3 2 2 2 3 3 2 1 1 1 1 1 2 0 2 3 2 5 7 4 5 5 4 4 8 7 9 12 7 6 5 3 4 7 6 6 3 3 8 6
9 7 7 6 6 5 4 3 3 4 4 5 4 3 2 1 2 1 1 2 1 2 4 8 10 3 6 4 6 7 15 2 5 5 4 6 4 4 4 5 6 11 7 8 8
11 10 9 8 7 6 5 5 4 5 5 6 6 6 5 7 1 6 4 1 1 3 6 10 7 2 3 4 3 6 4 2 3 3 4 6 3 5 6 8 10 8 7 7 8
14 13 12 10 10 9 8 7 6 6 5 6 6 7 8 6 11 5 5 3 2 3 8 3 2 2 5 5 4 3 1 2 3 4 5 6 6 3 2 2 3 6 5 5 4
16 15 15 13 12 11 10 9 8 7 6 6 6 6 8 4 15 11 8 6 1 3 1 6 2 10 5 5 7 3 6 6 6 5 6 5 8 3 5 4 5 7 8 6 8
17 17 16 15 14 12 12 11 10 9 8 8 7 7 8 9 10 11 10 9 5 3 1 6 5 6 4 2 8 7 7 9 11 6 5 6 9 1 1 2 6 7 10 10 12
18 17 17 16 16 14 14 12 12 10 9 9 8 8 7 10 10 7 10 8 9 6 5 4 4 9 7 6 7 9 10 14 14 10 3 4 9 2 2 3 6 6 9 12 15
18 18 18 18 17 15 15 13 13 11 10 10 10 10 7 8 10 8 8 6 7 8 7 5 4 5 5 9 10 13 14 14 2 3 5 5 6 1 4 3 7 7 9 11 15
16 17 18 18 18 17 16 14 13 12 11 9 9 7 11 6 10 8 8 9 7 6 6 6 5 6 9 12 18 13 13 10 17 5 0 5 9 4 2 2 7 8 8 11 13
17 16 16 17 17 17 16 12 9 10 15 11 6 9 4 9 10 9 10 8 8 6 7 7 8 12 10 12 7 7 10 10 7 5 7 10 11 8 7 5 6 10 13 11 11
18 17 16 16 16 15 14 9 15 15 14 14 17 12 14 10 6 10 12 11 10 9 8 9 11 11 8 5 6 7 9 10 10 8 8 11 12 12 10 4 5 10 12 8 10
20 18 17 16 16 14 14 17 13 13 18 16 17 19 16 15 11 12 15 13 9 10 13 14 2 4 4 6 8 10 11 11 7 8 12 17 17 22 12 11 7 7 10 7 15
21 19 18 17 16 15 12 15 11 9 8 15 18 18 19 12 15 11 16 15 11 13 11 13 12 6 9 9 9 11 4 5 8 11 18 3 15 10 15 11 11 8 10 8 17
19 19 18 17 16 13 20 12 9 7 6 11 17 10 15 21 2 18 18 17 14 11 11 14 12 9 10 9 7 10 5 8 10 13 16 17 14 17 11 9 11 7 10 10 16
18 19 19 18 17 18 12 13 12 7 12 11 14 17 19 21 14 11 19 18 12 12 13 16 6 10 11 10 10 9 8 10 14 16 20 20 18 8 10 8 1 6 7 13 13
18 18 19 18 19 20 16 15 8 13 17 15 15 15 22 20 21 17 21 21 19 15 16 14 15 10 10 10 9 8 10 15 14 16 9 5 14 17 4 11 4 4 8 14 15
16 18 19 19 20 16 18 16 13 13 22 12 11 15 22 22 25 20 20 22 23 18 15 15 17 21 14 14 11 12 10 13 14 14 4 13 9 24 10 5 4 9 10 14 16
15 16 17 19 18 20 22 18 20 16 14 15 15 12 20 23 19 25 22 23 22 21 19 14 14 12 14 11 11 12 15 15 19 22 23 25 12 11 4 7 9 10 13 15 17
12 14 14 18 19 22 24 24 20 10 7 7 13 15 18 23 24 27 21 22 21 22 20 14 8 10 10 10 12 13 13 14 15 13 14 17 4 10 14 21 12 12 15 17 17
8 6 16 15 19 23 30 26 20 9 12 6 11 13 19 20 21 21 20 20 20 21 19 19 9 10 11 10 10 13 11 14 19 22 16 13 5 16 10 11 14 12 14 15 17
9 6 10 14 21 24 25 22 16 12 10 13 8 11 7 12 21 21 16 19 18 18 22 18 15 17 16 12 11 13 17 12 14 18 21 24 18 2 6 11 8 11 13 14 15
15 6 15 13 15 18 17 19 19 18 12 9 12 10 10 3 5 11 13 8 9 13 7 13 17 18 17 16 17 16 16 18 19 20 23 9 7 10 13 5 4 10 13 17 18
11 4 9 18 22 16 14 22 22 15 12 16 12 12 12 14 8 7 9 4 13 12 15 12 12 15 20 5 5 15 14 16 19 20 22 20 9 21 6 8 14 8 16 15 19
11 3 5 6 18 13 11 11 21 16 16 10 16 12 13 12 16 14 11 10 10 16 17 12 13 14 18 20 19 19 15 17 15 20 22 23 8 1 7 13 12 10 18 16 15
3 6 14 7 7 13 18 14 13 19 15 17 15 12 14 14 12 12 14 14 11 10 14 14 17 15 21 21 21 24 23 19 22 21 19 21 25 19 11 9 5 10 14 10 10
12 15 9 3 6 9 12 14 14 12 16 11 12 16 13 16 16 12 6 13 6 8 11 15 13 14 20 16 18 22 21 20 21 20 22 24 24 9 5 14 12 10 10 5 8

GFSSW_700_spd_027.txt.gz
Wind_Speed
3 2 1 1 0 0 1 1 2 3 3 4 4 4 3 2 1 2 3 4 4 4 6 9 8 7 6 7 5 10 9 4 11 5 13 8 15 5 2 6 3 1 11 13 12
5 4 4 3 2 2 1 1 1 0 0 1 2 3 4 2 2 2 0 1 0 2 5 9 14 12 8 7 10 8 8 9 7 8 10 7 2 6 2 3 5 5 5 8 11
7 7 6 5 4 3 3 2 2 2 2 2 1 1 2 3 4 2 4 4 1 2 4 6 9 12 9 3 3 15 13 6 10 8 9 10 2 7 8 6 5 9 7 6 8
11 9 8 7 6 6 5 4 3 3 3 4 4 3 2 4 2 3 4 4 2 3 7 9 12 9 4 4 9 1 4 4 5 4 6 7 6 4 5 5 2 8 8 5 5
13 11 11 10 8 8 7 6 5 4 4 5 5 6 7 6 9 2 1 2 3 4 7 13 12 8 10 6 8 8 5 2 5 3 6 6 7 3 5 2 0 6 7 6 5
15 14 13 12 11 10 8 8 7 6 5 6 5 6 9 12 9 7 4 3 0 4 11 12 3 8 5 3 4 5 1 7 5 4 6 2 9 5 5 1 4 8 9 8 8
16 16 15 14 13 12 10 10 9 8 7 7 6 7 8 12 12 9 9 8 6 1 9 5 6 10 6 5 3 7 6 9 14 7 5 8 9 8 3 4 6 6 11 8 7
17 17 16 15 14 13 12 11 10 9 8 9 8 8 9 7 9 6 9 8 7 5 2 2 1 16 2 1 3 6 8 15 12 15 7 3 4 10 11 6 10 7 5 7 10
17 18 17 16 16 15 13 12 11 10 10 9 9 9 9 7 7 7 7 8 7 8 6 3 2 4 5 7 10 10 18 17 7 12 2 6 4 9 8 9 11 8 8 11 14
16 17 17 17 17 16 13 12 12 11 11 10 9 6 6 4 8 8 7 8 8 7 8 6 5 4 2 6 17 14 11 12 13 6 8 5 6 10 10 6 9 14 11 11 17
17 16 15 15 16 15 13 12 12 13 15 12 10 10 4 6 8 6 7 7 9 7 7 4 4 7 5 11 12 5 9 11 7 1 8 9 11 6 9 9 11 13 12 10 12
19 17 15 14 13 12 12 14 14 15 16 15 18 15 10 13 10 8 9 10 9 8 4 7 16 9 10 8 9 7 7 9 7 8 6 9 12 12 13 15 10 12 12 11 9
21 19 15 15 14 13 13 14 11 13 19 20 17 19 15 19 14 9 10 10 7 4 10 12 8 7 6 7 7 6 8 12 11 10 6 11 22 21 17 15 13 7 8 9 10
19 20 18 16 15 13 12 13 12 10 10 22 17 21 18 16 17 15 16 12 15 13 8 14 9 9 7 10 8 11 10 7 8 9 15 18 20 20 25 22 14 12 10 13 12
17 18 19 18 16 16 17 13 9 8 3 7 16 13 14 23 6 15 19 13 14 11 12 16 10 12 8 8 7 13 8 9 8 12 16 19 19 10 18 14 22 13 14 16 15
16 16 18 17 16 18 16 10 11 8 7 3 22 17 16 20 16 9 20 19 14 13 15 19 13 12 11 7 10 9 8 9 12 16 17 19 8 2 2 6 22 12 19 22 19
15 16 17 17 17 17 16 16 12 6 15 11 15 16 19 21 19 15 21 20 22 14 17 15 14 9 10 12 12 9 8 8 5 4 7 7 6 8 5 13 8 18 24 21 19
14 15 17 17 18 18 18 20 6 9 17 13 15 15 21 25 20 19 20 23 21 19 15 15 16 18 18 18 11 14 9 12 3 2 6 8 9 2 18 15 16 16 14 18 9
13 14 15 17 18 18 20 21 17 13 6 16 21 25 22 19 19 25 25 22 22 22 26 11 19 16 24 14 13 14 12 12 20 19 16 16 3 13 18 15 14 8 13 12 14
10 11 14 19 17 21 23 24 27 21 13 11 12 18 10 20 27 23 26 20 23 24 20 22 21 1 20 16 9 11 12 10 8 2 5 9 2 9 12 8 21 17 20 21 8
7 8 12 12 18 22 26 28 25 18 6 10 9 4 10 16 23 30 25 27 16 22 24 20 16 15 10 12 10 12 13 12 17 14 4 3 9 13 9 11 25 31 22 27 18
11 7 6 6 16 24 29 31 23 18 4 19 17 8 7 14 10 25 20 22 17 21 25 28 15 18 15 12 8 9 13 17 5 10 16 14 5 3 1 6 5 18 19 28 20
15 6 4 8 14 23 22 23 22 18 5 12 11 9 5 12 4 5 14 7 12 20 22 14 15 13 16 15 11 11 7 14 17 20 23 12 11 9 3 5 5 11 21 27 17
13 6 8 12 18 15 15 15 16 14 13 13 10 11 11 12 6 2 11 2 8 12 12 9 9 5 13 6 5 9 13 10 15 18 22 20 4 15 12 7 7 4 3 13 12
12 8 4 10 3 21 17 12 8 17 15 18 13 11 6 9 8 13 5 3 5 12 11 12 14 14 11 11 11 16 19 20 16 23 24 20 14 14 14 16 24 21 19 10 14
15 7 11 9 2 6 15 12 8 8 11 10 13 13 9 8 8 16 10 7 6 7 11 18 8 12 17 14 15 19 21 23 25 25 22 21 7 15 11 9 12 16 23 18 19
15 10 12 5 4 3 13 9 14 6 13 16 12 13 13 14 13 5 7 10 7 7 10 3 12 15 19 14 15 19 20 23 23 16 15 20 13 14 7 4 10 13 12 20 20

GFSSW_700_spd_030.txt.gz
Wind_Speed
3 2 1 1 1 2 2 2 2 3 4 6 7 7 6 6 6 5 5 5 6 9 11 9 8 10 9 7 2 10 23 13 7 3 4 15 1 7 2 11 9 9 9 12 15
3 2 1 1 1 1 1 1 1 1 2 4 5 7 6 6 6 6 5 4 6 8 11 13 11 10 9 6 7 9 13 8 2 5 13 13 3 1 3 5 9 8 9 8 11
6 5 5 4 3 3 2 2 2 2 1 1 2 5 4 5 8 6 6 5 5 7 12 14 12 13 10 7 6 8 3 3 5 14 11 9 5 3 7 4 6 11 11 7 7
9 8 7 6 6 5 4 3 3 3 3 2 3 3 3 5 5 5 8 7 5 6 11 14 16 10 5 5 12 10 3 7 7 6 1 6 3 6 1 4 8 11 9 7 6
12 11 11 9 8 7 6 5 4 4 4 4 4 5 6 5 5 4 5 6 5 6 12 16 13 9 5 5 5 10 10 7 1 4 1 3 5 7 4 7 5 8 8 8 5
15 14 13 12 11 9 8 7 6 5 5 5 6 6 7 9 5 4 3 3 3 5 12 20 15 5 3 4 7 3 2 5 5 5 8 8 9 9 7 7 7 9 8 8 8
17 16 16 15 13 11 10 9 8 8 7 7 6 7 7 9 6 5 5 4 3 2 14 19 17 7 2 5 4 4 8 7 6 7 6 9 5 6 8 9 10 7 7 10 11
18 17 17 16 15 13 12 11 10 9 8 8 7 7 7 6 6 6 8 8 9 7 3 6 8 11 8 5 4 8 9 10 9 9 13 12 5 13 12 12 9 7 9 12 11
18 18 17 17 16 14 13 12 12 11 10 9 8 8 7 4 6 6 6 9 14 11 6 4 6 15 8 6 4 4 12 14 15 9 14 10 7 12 14 15 11 10 9 9 8
17 17 17 18 17 16 14 13 13 13 12 11 9 7 7 4 5 5 6 8 12 13 10 8 5 8 11 8 2 11 9 11 12 13 11 6 8 4 20 19 17 12 11 10 8
17 16 15 16 17 15 16 15 14 16 16 13 9 10 7 5 4 3 9 8 8 11 12 10 10 11 9 4 11 11 7 8 8 5 14 12 10 12 14 24 20 16 14 11 8
20 18 16 15 14 13 16 15 14 17 18 16 15 12 14 12 7 7 9 8 9 9 11 11 13 10 3 6 3 10 6 10 6 5 11 7 10 8 12 20 22 15 17 12 8
20 21 18 16 15 13 14 16 15 16 19 16 16 16 16 15 11 8 7 7 8 11 12 11 7 1 7 5 8 8 9 13 15 7 9 8 12 17 17 17 24 16 11 9 8
17 19 20 18 17 16 16 16 16 15 11 19 18 19 21 19 17 11 12 6 13 11 7 7 3 4 6 8 11 13 3 7 4 6 9 14 9 18 25 14 25 18 15 6 10
17 17 18 21 19 18 16 13 10 10 2 4 10 16 16 22 7 12 14 12 13 12 8 10 7 8 9 10 7 8 3 7 10 10 12 18 9 7 3 18 20 15 8 10 9
16 17 16 20 20 18 15 12 11 8 7 2 10 15 17 18 12 13 13 12 7 15 13 14 12 10 8 10 11 9 8 9 11 9 5 15 10 5 17 13 14 16 12 12 12
15 16 17 18 19 19 17 15 11 7 7 5 16 10 10 12 21 16 11 21 19 15 14 14 14 9 8 8 11 10 9 4 4 2 6 9 4 4 11 10 14 20 16 15 14
15 16 17 18 22 21 18 16 7 9 14 14 1 18 17 15 15 21 16 24 17 16 9 9 9 16 13 15 12 14 8 6 4 2 6 9 7 5 9 14 15 13 18 16 28
14 15 16 20 21 21 20 21 16 10 4 8 11 9 23 20 19 17 21 26 17 21 15 6 11 13 19 21 18 12 11 10 14 12 5 4 1 10 9 10 14 8 9 10 16
12 13 15 19 21 21 22 23 25 16 2 3 4 4 17 25 24 22 23 23 21 14 24 18 19 9 15 18 13 10 10 7 6 1 1 2 6 8 17 14 13 15 9 8 6
9 12 14 15 19 22 25 24 27 30 14 4 5 10 6 4 13 26 25 25 24 19 18 21 17 13 7 12 16 10 13 11 7 5 5 1 12 7 12 11 14 17 16 18 18
9 10 11 15 17 24 26 26 29 26 23 10 8 10 7 8 5 5 22 30 21 28 24 23 16 26 14 7 11 12 10 14 13 4 5 5 5 13 14 12 12 16 5 6 21
14 10 9 8 10 18 22 25 25 22 18 9 6 7 4 4 3 6 11 15 29 17 31 26 28 22 15 12 10 8 2 6 10 8 13 4 9 11 15 11 4 5 7 12 26
17 9 9 9 6 11 16 20 18 18 20 8 7 12 6 1 2 3 6 8 6 15 21 27 17 29 20 8 3 4 3 5 13 13 19 24 19 17 16 11 4 5 9 15 12
19 10 8 5 3 7 15 11 13 8 15 11 13 8 3 2 5 5 7 3 6 7 9 13 17 13 12 12 9 9 11 10 13 20 20 26 34 21 14 15 11 13 10 8 4
16 13 8 5 3 3 16 14 9 8 6 10 15 15 10 6 4 4 6 1 3 3 7 7 7 13 16 15 13 14 15 15 18 17 20 19 13 11 19 12 4 2 5 12 14
12 17 9 5 5 7 4 9 12 5 9 10 14 16 15 8 4 1 4 4 7 4 4 4 8 14 15 18 21 16 18 15 12 6 7 12 8 14 20 11 12 12 17 25 19

GFSSW_700_spd_033.txt.gz
Wind_Speed
4 3 3 2 1 1 2 2 3 3 4 5 6 7 7 9 9 9 9 10 10 11 11 9 11 9 6 6 10 13 8 10 11 10 14 16 10 3 4 8 9 12 11 11 14
4 3 2 2 1 1 1 0 1 2 2 4 6 7 7 8 9 8 8 10 13 14 14 12 10 11 5 5 4 12 16 12 5 2 9 14 8 5 2 5 7 13 11 8 9
6 5 4 3 2 2 2 2 2 1 1 2 5 6 7 9 11 10 9 9 10 13 16 16 14 13 8 3 5 10 5 1 6 5 11 14 10 6 6 2 5 12 13 7 8
9 8 6 5 4 4 3 3 3 3 3 3 3 4 5 8 6 9 11 9 10 14 17 19 17 16 11 5 8 7 3 4 4 3 5 10 8 5 2 1 4 8 13 10 7
12 10 9 7 7 6 5 5 5 5 4 4 4 6 6 7 7 7 9 9 9 14 18 19 18 18 11 2 6 10 4 6 0 5 3 5 4 6 6 1 8 9 11 9 5
15 14 13 11 10 9 8 7 7 6 6 4 4 5 7 8 7 4 6 7 6 10 14 18 19 18 9 5 6 4 1 2 7 7 6 11 10 6 7 4 8 8 6 9 14
17 17 16 14 13 12 11 9 9 8 7 6 5 5 6 9 7 6 8 7 6 6 11 14 17 12 8 4 5 5 6 10 11 13 11 9 12 9 6 6 8 8 6 2 10
18 18 18 17 15 14 14 12 11 10 8 8 6 5 6 6 7 10 9 10 9 7 7 12 19 13 10 7 5 7 7 13 10 10 12 17 19 14 9 7 9 8 9 6 6
19 19 19 19 17 16 15 14 13 12 11 9 7 6 6 4 5 7 8 13 12 11 11 11 14 16 16 10 10 8 9 8 9 13 16 16 14 12 12 11 12 13 12 10 4
18 18 19 19 19 18 17 15 15 15 13 11 10 8 7 7 5 7 10 11 14 16 14 10 9 17 13 11 3 6 9 9 10 7 10 12 12 11 15 16 12 15 16 14 5
18 17 17 17 18 19 19 16 17 17 16 14 9 10 8 9 6 5 9 10 11 17 16 15 13 12 12 8 8 9 9 11 12 7 16 15 10 10 11 18 19 20 21 16 6
21 19 17 17 16 16 19 17 18 20 17 16 15 12 12 11 9 7 7 10 10 11 14 15 17 11 11 6 4 6 6 11 7 8 5 10 13 9 10 16 17 19 22 16 9
21 22 20 18 17 15 17 18 18 17 20 16 17 17 15 14 9 8 9 10 9 12 13 15 8 8 8 6 5 7 8 8 9 6 7 8 14 13 16 19 14 24 23 13 8
19 19 21 22 20 17 17 15 14 13 12 18 16 18 20 18 15 11 10 9 11 9 11 11 8 2 6 8 5 12 9 6 5 4 6 12 4 17 13 17 10 22 20 13 9
18 19 19 22 22 18 16 13 9 9 3 4 10 15 18 22 9 6 15 14 11 10 11 10 9 6 2 8 7 7 1 3 7 9 11 14 5 6 10 11 5 13 19 11 8
17 17 19 20 22 21 16 11 10 7 7 2 5 13 18 20 15 9 16 14 8 10 14 16 11 7 1 5 7 7 6 8 10 11 2 11 3 3 5 6 9 18 19 17 18
18 17 18 20 21 21 17 14 10 7 6 2 6 11 16 17 19 14 18 17 16 11 14 17 18 11 8 6 9 7 5 4 3 3 6 11 4 3 8 11 15 21 19 14 17
17 17 17 19 21 22 20 18 7 8 14 6 6 11 19 15 20 20 17 17 20 14 9 10 10 14 9 9 9 10 9 3 4 2 7 9 2 7 10 10 17 19 16 9 17
15 16 16 21 21 22 21 22 18 10 5 11 6 5 15 20 16 20 25 21 21 15 15 8 11 14 14 12 10 11 6 6 6 7 3 2 3 3 3 3 10 10 11 16 17
12 14 17 19 20 21 23 25 22 16 8 2 5 3 1 18 22 20 19 21 22 22 17 14 9 9 7 14 18 17 13 8 5 2 2 2 1 4 6 9 10 9 18 19 15
10 12 14 16 19 22 26 27 26 25 21 4 1 3 3 4 18 25 23 18 19 18 21 23 16 8 2 2 15 17 12 9 5 3 6 1 4 5 9 11 12 16 18 21 17
9 12 13 16 17 24 28 24 26 26 27 21 8 5 5 1 5 12 22 27 16 24 23 19 10 21 17 9 3 6 4 4 8 4 3 1 4 6 21 15 14 17 18 18 25
11 14 15 16 12 17 21 25 26 22 16 18 15 5 5 3 2 5 15 19 28 20 27 23 24 24 18 8 5 4 7 4 2 6 5 1 5 9 12 17 14 10 6 8 12
13 10 13 12 10 7 12 22 21 16 17 19 14 9 5 7 6 5 11 10 17 27 23 26 26 24 23 16 11 9 4 2 4 1 6 9 14 15 15 14 13 9 10 3 7
18 10 12 8 4 7 14 11 16 14 14 17 15 9 11 9 9 6 6 11 12 14 20 21 26 23 19 17 16 13 10 8 8 5 4 11 13 12 10 10 13 12 13 12 14
12 14 11 7 4 7 16 17 11 8 9 14 16 13 13 10 9 9 7 7 8 10 14 20 18 17 19 13 12 11 9 13 13 13 14 9 13 14 9 12 17 12 14 14 11
12 15 11 9 4 5 9 14 13 8 7 11 14 15 14 9 8 9 6 9 7 7 8 14 16 14 8 7 7 6 9 14 11 11 11 11 11 10 8 16 12 13 12 13 14

GFSSW_700_spd_036.txt.gz
Wind_Speed
5 4 3 3 2 2 3 3 3 3 3 3 5 7 9 11 13 16 17 17 15 12 13 12 12 9 8 5 2 13 6 5 3 8 10 10 9 7 4 4 7 10 8 10 14
4 4 3 2 1 1 1 2 2 2 3 3 4 5 7 9 11 12 13 15 14 14 15 15 14 12 6 3 2 9 12 10 3 1 8 11 8 3 2 5 6 5 6 5 9
7 6 4 3 2 1 1 1 0 1 3 3 4 5 6 10 9 9 10 12 15 17 18 16 15 12 7 3 5 9 8 3 2 3 3 7 10 7 2 2 7 8 8 5 4
8 7 6 5 3 3 3 3 2 2 2 4 5 5 6 12 7 8 8 9 12 16 19 18 18 13 8 6 10 9 4 5 1 3 7 3 8 11 5 2 6 12 11 8 4
11 10 8 8 6 5 5 4 4 3 2 3 5 6 6 9 8 8 8 9 11 14 18 20 20 16 11 6 9 3 0 1 0 3 4 8 6 10 6 4 3 8 8 10 4
15 13 12 11 9 8 8 7 6 4 3 3 4 7 8 9 9 7 7 8 9 13 18 20 22 18 12 6 7 6 3 2 3 3 5 6 5 7 6 9 4 5 6 9 8
18 17 16 14 12 11 10 9 9 7 5 4 4 5 8 9 10 9 8 8 9 12 15 17 19 21 12 5 7 5 6 6 8 8 11 9 8 10 8 9 7 6 6 3 10
19 18 18 17 15 14 13 12 11 9 8 6 5 5 5 7 10 11 10 11 10 10 12 16 20 18 12 9 7 8 9 11 10 15 14 13 18 13 10 8 8 8 8 5 3
19 19 19 18 18 16 16 13 14 12 10 9 7 6 6 7 9 11 12 14 13 10 10 10 14 18 12 12 9 5 10 11 6 8 17 15 18 12 9 10 11 12 10 9 1
19 19 18 19 19 18 18 15 14 14 12 11 9 7 8 9 8 9 13 16 17 14 11 11 13 14 14 12 9 5 8 8 12 12 6 10 14 11 9 10 12 16 14 12 4
17 17 17 18 18 19 19 17 16 16 16 13 7 9 7 8 7 9 11 13 17 17 16 15 14 12 14 11 10 8 8 10 11 10 8 10 9 9 8 5 9 16 19 16 6
19 18 17 16 15 17 19 17 17 17 15 15 14 12 11 10 9 9 10 13 13 15 17 17 16 11 14 11 9 7 5 9 12 11 6 6 13 12 12 14 12 16 22 19 9
21 21 20 19 16 15 15 16 16 14 17 15 16 15 16 15 12 10 9 10 10 12 15 16 9 13 10 11 6 4 5 8 6 7 5 6 8 14 17 18 16 15 19 18 10
19 19 20 21 19 16 15 13 11 11 10 14 12 17 18 18 16 11 9 9 12 11 12 10 11 9 7 13 7 5 8 8 4 5 5 11 4 13 12 11 10 9 13 12 18
18 19 19 19 19 17 15 11 8 7 4 3 8 14 16 21 10 12 14 13 11 10 14 10 12 8 3 11 8 4 3 3 4 7 8 9 3 2 8 7 8 6 6 15 18
17 16 18 19 17 18 16 11 9 5 7 3 5 10 15 21 22 12 11 17 11 13 16 15 11 7 6 7 10 6 6 5 6 8 1 9 6 5 9 10 8 8 8 9 12
18 16 17 17 17 17 17 14 9 7 5 2 5 9 13 20 23 21 13 23 16 14 18 18 15 11 6 4 7 6 5 2 2 2 5 7 5 6 11 12 12 11 8 7 14
17 17 16 16 18 18 19 19 7 8 17 6 5 6 12 17 20 21 15 22 22 12 9 13 9 15 10 9 7 8 8 3 3 2 4 6 2 6 7 7 6 5 10 15 14
14 15 14 17 19 19 21 23 16 8 7 19 10 6 9 13 9 22 22 23 19 20 11 8 9 10 12 9 8 6 4 6 4 1 0 1 1 8 10 6 6 3 5 13 13
12 12 13 17 18 20 23 25 21 22 8 5 8 5 6 11 19 16 24 21 23 19 19 9 5 11 10 13 13 17 10 8 7 3 2 4 3 6 7 2 1 3 7 8 12
9 10 12 16 18 21 26 28 29 20 21 8 4 4 3 2 10 23 13 20 11 22 20 21 12 7 8 3 11 15 15 9 4 3 6 1 3 10 7 4 7 7 11 14 12
8 9 12 16 20 24 28 26 30 28 23 18 11 6 4 3 5 14 26 17 19 16 19 21 7 19 16 9 3 10 8 7 5 4 4 3 2 7 4 5 12 14 12 14 7
8 10 13 15 17 19 23 25 26 26 21 20 21 10 7 5 3 8 13 19 26 19 22 20 15 15 5 4 8 9 10 7 4 6 5 3 2 6 7 6 12 14 9 9 9
9 11 13 14 14 13 16 21 23 24 21 19 19 19 12 8 6 7 12 11 17 25 23 21 23 20 14 9 7 13 10 7 6 5 5 1 6 9 10 11 12 15 12 11 13
12 10 13 11 14 15 16 15 19 18 18 16 21 20 16 7 8 7 9 9 9 18 22 24 23 27 23 20 17 16 14 10 5 4 1 2 7 11 11 12 10 15 14 13 16
10 11 12 7 8 11 13 17 12 15 15 17 15 18 17 9 9 7 8 9 7 10 14 22 18 22 22 15 15 17 12 7 4 2 4 6 9 17 19 16 15 14 12 17 15
8 14 12 10 6 5 5 12 14 11 13 16 16 17 16 12 8 9 10 8 6 9 12 16 18 21 16 17 13 10 7 5 2 3 4 6 9 14 11 11 13 10 13 12 17

GFSSW_700_spd_039.txt.gz
Wind_Speed
6 6 5 4 4 3 3 3 2 1 2 1 3 6 12 18 22 24 22 18 14 11 11 13 10 6 5 4 2 8 5 6 6 3 3 3 4 2 0 1 3 4 6 8 11
7 6 5 4 4 3 2 3 2 1 2 2 3 4 7 10 13 18 21 21 18 15 16 16 14 10 7 4 3 6 6 6 4 2 5 4 6 2 2 4 3 4 3 3 7
7 7 5 3 3 3 2 2 3 3 3 3 3 4 6 8 10 12 15 17 17 16 17 17 16 14 11 4 5 9 9 5 4 4 6 4 8 7 3 3 7 8 7 3 4
9 6 5 6 4 4 3 2 2 2 3 4 4 5 7 11 8 10 11 14 16 18 18 18 17 15 12 6 5 6 4 2 0 2 4 4 7 6 4 1 5 9 7 3 3
10 8 9 8 6 6 4 3 2 2 3 5 6 6 6 12 7 8 8 10 12 17 20 19 17 16 11 7 7 5 2 1 2 2 3 4 3 6 3 4 6 2 5 7 3
13 12 11 10 9 8 6 5 4 4 3 4 6 8 8 10 10 7 6 9 11 15 20 21 19 17 10 7 6 5 2 1 1 4 5 4 5 7 3 7 8 8 2 4 6
17 16 15 13 11 11 10 7 6 5 5 4 5 7 9 11 11 8 6 8 11 14 18 20 22 17 11 7 6 8 7 6 8 8 10 11 11 8 7 8 9 11 8 2 6
19 18 18 17 14 13 13 10 8 7 7 6 6 6 8 11 13 12 10 9 11 13 16 18 21 19 13 10 6 7 5 5 8 8 13 13 13 11 10 11 10 12 12 5 3
20 20 20 19 17 16 15 11 11 10 8 8 7 6 7 11 13 15 13 13 12 11 15 17 18 20 16 12 10 8 6 11 10 8 13 16 15 14 7 7 9 12 11 8 3
20 20 20 19 18 17 16 13 12 12 10 9 9 7 8 10 10 11 15 16 15 13 11 14 14 18 17 13 13 9 9 9 8 7 6 8 10 6 7 6 9 11 15 11 4
19 18 19 18 18 17 16 14 13 13 12 11 7 11 7 9 9 10 12 14 16 15 13 11 13 17 17 16 11 11 10 7 8 11 11 7 6 5 6 5 6 12 18 12 8
18 18 17 16 15 16 16 14 14 14 13 12 13 13 10 10 10 10 11 14 14 17 18 15 13 11 15 15 12 14 8 3 4 7 5 5 8 9 6 8 13 15 18 13 21
21 19 19 17 15 15 13 12 12 14 15 14 14 14 15 13 11 10 9 12 13 14 18 20 11 14 12 13 10 9 6 2 2 5 4 5 6 9 12 10 13 13 14 18 18
20 20 19 19 17 15 13 10 9 10 7 9 10 15 16 17 16 14 12 11 12 10 13 14 16 13 15 15 11 5 6 3 2 2 2 8 6 11 7 9 10 8 6 7 14
18 18 18 18 16 16 15 10 6 5 3 3 9 13 16 21 11 16 15 13 10 9 13 9 18 10 8 14 13 5 3 3 3 1 3 6 1 2 6 6 7 11 10 6 8
16 16 16 17 15 15 16 11 8 4 6 4 6 9 14 22 21 10 20 16 12 12 13 12 15 12 10 8 14 7 6 3 3 3 3 2 2 2 8 8 7 6 8 3 5
15 15 15 14 16 16 16 14 9 7 5 4 6 8 13 18 24 18 14 19 16 13 18 18 16 15 9 5 13 10 9 3 3 3 2 3 2 1 6 7 4 5 2 4 5
14 13 16 15 15 18 18 19 8 9 12 9 7 7 11 16 21 23 19 17 24 14 9 13 12 19 12 10 10 11 10 5 1 2 0 1 1 3 4 2 3 5 5 5 9
11 12 14 16 17 19 21 23 15 10 9 20 12 8 7 12 13 22 27 21 22 19 8 10 11 15 14 11 12 11 7 9 6 3 3 1 2 2 4 4 2 1 6 6 6
10 10 13 16 18 20 23 25 20 19 9 8 9 6 5 10 15 9 20 19 20 22 18 6 4 12 14 16 14 13 8 5 5 4 3 2 3 4 3 5 1 3 7 5 6
8 9 12 16 17 20 26 27 26 20 23 9 5 7 5 4 11 17 8 17 14 21 17 18 7 6 13 13 16 16 15 11 6 4 3 3 3 3 2 4 2 5 7 6 9
6 8 11 15 18 22 25 23 25 28 22 18 10 5 2 4 4 10 19 14 19 11 25 19 9 13 13 8 8 15 16 16 8 7 6 3 3 0 3 1 1 9 8 10 10
5 7 10 13 15 18 23 25 25 26 19 19 19 12 8 4 3 7 11 21 20 15 17 21 14 8 6 8 9 14 15 16 12 11 11 7 3 1 3 6 5 8 12 11 11
4 6 10 13 16 16 19 22 21 24 23 22 22 21 18 10 6 4 8 13 20 24 20 16 19 15 12 7 10 12 16 16 14 9 13 9 4 2 5 8 8 8 12 13 12
5 8 10 9 14 13 13 14 17 18 19 19 23 21 15 13 9 8 8 11 13 16 25 24 20 20 21 15 11 10 11 14 13 9 7 8 3 6 9 10 13 13 12 11 12
6 8 9 9 7 12 12 13 14 13 17 19 19 16 21 17 10 6 9 10 7 13 19 24 18 21 20 21 18 17 17 15 11 10 6 4 6 7 11 7 10 12 9 10 13
6 10 10 9 6 5 3 7 9 13 15 15 18 17 21 18 12 12 9 10 9 8 12 21 23 22 15 15 15 11 18 17 13 8 4 3 2 5 8 7 7 7 8 9 11

GFSSW_700_spd_042.txt.gz
Wind_Speed
7 6 4 4 4 3 3 3 2 1 2 2 4 9 17 24 27 25 21 18 14 11 10 8 9 6 4 4 5 2 3 2 6 4 6 1 2 5 4 4 5 5 5 7 10
8 6 5 6 5 4 3 3 3 2 2 2 3 5 9 14 19 23 27 24 18 16 13 12 11 9 5 3 4 3 6 2 0 1 3 4 4 2 3 6 8 6 5 4 7
8 8 6 7 5 5 4 4 4 4 3 3 3 4 6 9 10 16 23 26 21 19 16 15 13 10 7 4 4 5 2 2 3 4 4 2 4 6 2 2 2 6 6 3 5
10 9 9 7 7 6 5 4 4 4 4 4 4 4 5 8 4 11 15 19 19 18 17 17 15 10 9 7 5 6 3 3 1 3 4 2 1 3 5 3 1 2 7 4 3
12 11 10 8 8 6 5 5 5 5 5 6 6 5 5 9 8 9 11 13 15 18 20 19 16 12 10 7 5 7 4 2 2 2 4 3 3 4 5 8 8 3 3 6 3
14 12 11 10 8 8 7 6 6 6 5 6 7 8 7 9 9 8 8 9 13 17 19 20 20 17 9 7 5 9 4 1 0 4 6 7 6 6 3 5 8 8 4 5 5
16 15 14 12 11 11 9 7 7 7 6 6 7 8 10 13 12 9 7 8 13 15 17 20 18 15 11 7 5 5 7 7 5 6 8 9 8 5 6 8 8 9 11 4 1
19 18 17 15 14 14 11 9 9 8 7 7 7 7 10 13 13 12 10 9 12 15 16 20 20 16 12 10 5 6 9 10 3 5 10 11 10 2 9 8 10 8 13 10 5
20 20 19 18 17 16 14 12 11 9 9 9 7 7 8 12 14 16 14 13 11 12 15 18 20 15 14 12 13 14 12 5 5 8 8 12 11 8 6 6 8 8 12 14 10
20 20 20 19 18 17 16 14 12 12 11 10 9 7 10 13 12 14 16 15 14 11 11 15 15 17 16 15 18 13 12 7 7 7 9 8 12 9 2 4 5 9 10 17 18
19 19 19 18 18 17 16 14 13 14 12 11 8 15 8 12 11 12 13 16 16 14 9 14 12 20 19 18 10 7 9 9 8 8 9 5 6 3 5 4 8 10 16 18 23
18 18 18 17 17 16 15 14 14 14 13 14 15 14 11 11 11 12 11 11 15 13 15 11 13 12 17 18 14 15 13 11 8 7 4 5 3 4 5 6 12 16 20 14 25
19 19 18 17 16 15 14 13 13 14 14 16 15 15 17 13 12 11 10 10 10 13 13 15 9 13 13 12 15 18 16 10 9 4 5 7 11 3 7 7 10 10 10 9 19
20 20 19 18 16 15 14 11 10 9 7 9 15 18 18 17 16 15 13 9 9 10 11 14 16 10 12 12 14 16 13 10 8 8 6 3 15 4 4 3 6 8 10 8 9
18 19 19 19 17 17 15 12 8 5 5 8 15 16 20 20 11 18 16 13 10 9 10 8 12 15 14 13 13 7 6 8 8 8 8 7 11 3 2 2 8 6 7 5 6
16 17 18 18 17 17 16 14 10 5 8 5 9 11 16 24 16 12 19 16 12 10 10 9 11 13 11 11 15 11 5 6 6 10 16 3 5 6 4 8 7 5 2 2 5
15 16 16 17 18 18 17 14 8 13 6 7 7 7 12 15 18 15 17 20 13 12 14 12 13 13 14 10 15 14 12 14 8 9 3 5 6 6 3 3 5 2 1 2 4
14 15 16 17 17 19 18 17 13 8 10 11 8 7 9 14 19 16 15 18 18 14 5 14 15 19 14 15 13 18 15 13 4 4 4 3 7 4 4 6 1 4 4 5 5
12 13 15 17 19 19 21 20 13 11 11 7 7 8 9 11 12 20 20 20 18 17 12 12 14 14 13 13 13 14 15 8 8 5 10 6 4 5 5 5 2 2 3 3 4
9 11 14 16 19 20 21 22 15 17 10 13 11 6 9 10 13 15 18 19 20 19 17 5 9 13 16 15 16 12 12 9 12 5 7 8 5 4 3 4 2 3 3 4 3
8 9 13 15 18 21 21 18 18 20 17 6 4 6 6 6 12 15 13 13 18 15 21 14 10 11 12 20 18 17 15 11 5 6 4 5 8 3 4 7 7 8 8 7 5
8 6 12 15 18 19 19 21 24 19 20 15 8 4 4 5 7 12 15 10 14 17 19 16 12 15 16 13 20 14 17 16 17 12 12 8 7 8 6 6 9 12 12 10 8
7 10 11 14 11 14 19 19 23 19 12 11 10 9 6 4 3 9 9 16 12 17 14 20 14 14 15 13 16 14 19 19 14 7 10 12 8 8 3 6 8 11 11 10 10
6 4 10 14 17 12 12 13 12 23 21 17 16 14 10 8 7 4 8 11 21 19 19 15 19 20 18 18 13 15 17 19 19 14 14 15 4 5 5 5 8 11 13 13 12
8 9 11 6 9 10 12 11 9 10 16 20 17 20 14 11 11 10 9 10 14 20 25 18 19 21 19 9 8 10 14 19 18 16 13 11 9 6 4 9 12 10 13 12 10
9 8 10 9 8 12 10 9 10 10 11 11 17 11 14 19 12 4 8 8 11 14 18 23 19 21 22 19 17 13 12 12 13 11 9 7 6 8 8 10 12 13 10 11 9
8 9 9 8 6 6 8 8 8 12 12 14 10 15 12 15 18 16 12 11 14 12 14 17 23 20 23 18 15 20 19 16 15 14 10 10 7 8 8 9 11 11 9 9 9

GFSSW_700_spd_045.txt.gz
Wind_Speed
8 7 6 5 4 3 3 2 1 2 3 4 6 12 20 29 27 22 16 19 12 9 7 5 6 5 5 5 6 8 14 14 8 7 9 6 7 9 10 10 8 8 7 5 9
9 8 6 5 5 5 3 2 3 3 3 3 3 5 9 19 29 24 28 22 16 13 10 9 8 7 7 6 6 6 5 4 5 4 5 4 1 5 6 5 6 9 6 4 5
9 9 7 6 6 7 4 4 4 4 4 4 3 4 4 6 13 18 29 28 21 17 14 12 9 11 11 6 7 9 5 1 4 2 3 3 2 1 1 13 4 2 8 3 3
11 10 9 8 7 7 5 5 5 5 5 5 4 3 3 8 3 19 21 23 27 22 18 15 11 12 10 9 7 9 4 1 3 1 2 2 2 2 1 6 4 4 6 2 2
12 11 11 9 9 7 7 6 6 6 6 6 6 5 4 8 8 8 9 12 17 19 18 12 11 11 13 10 9 9 5 4 3 3 2 1 1 2 1 2 3 7 8 8 3
14 13 12 11 10 9 8 7 7 7 7 7 7 7 6 4 17 9 7 8 11 13 10 12 11 13 11 9 10 7 6 5 4 4 6 5 5 5 4 5 6 9 12 11 11
17 16 14 13 12 10 9 9 8 7 7 7 8 9 9 10 13 9 6 8 12 12 8 12 11 10 9 10 12 7 10 10 8 4 6 10 10 7 5 4 7 8 10 11 9
20 19 17 16 14 13 11 10 10 9 9 8 8 8 7 13 12 10 8 6 10 12 15 16 17 13 12 9 11 13 14 14 4 3 3 9 9 3 2 2 6 9 13 14 16
22 22 20 19 17 16 13 12 12 11 10 9 8 8 6 11 12 12 11 6 8 9 11 16 16 13 13 14 16 16 9 14 7 2 4 7 13 0 2 3 6 9 14 16 17
22 21 21 20 19 18 16 14 13 13 12 10 10 7 12 7 10 14 15 14 9 7 8 10 11 15 17 19 23 19 18 19 5 4 6 9 10 10 2 5 7 9 13 15 18
21 20 20 20 19 18 16 13 9 12 16 12 6 11 9 9 11 11 13 15 13 10 9 10 14 20 19 18 20 15 11 6 6 8 8 8 9 5 5 6 7 9 13 13 15
19 20 19 19 18 17 15 14 14 15 16 15 18 16 16 15 8 10 11 10 12 13 12 12 14 14 18 13 14 14 13 13 11 11 10 10 9 6 7 8 9 11 11 10 14
18 18 18 17 16 16 16 15 14 14 17 13 18 17 15 14 12 9 12 12 11 14 15 16 8 9 12 18 14 16 17 16 11 5 10 11 17 10 7 5 6 8 4 10 16
20 19 17 16 16 14 15 13 12 10 9 15 17 17 19 15 16 15 14 12 13 14 15 17 17 10 13 16 14 18 17 15 10 11 19 4 13 10 4 2 3 4 2 5 13
19 20 19 18 16 15 16 13 9 6 7 10 12 20 14 18 4 15 16 14 12 12 12 15 15 17 15 15 14 15 7 9 12 15 15 13 11 4 4 4 3 3 5 8 9
18 19 19 19 18 19 16 13 10 8 12 7 11 14 17 20 15 11 15 16 11 13 14 17 10 15 17 15 15 12 10 10 11 16 20 17 6 13 7 3 4 2 6 5 6
17 17 17 18 22 19 17 14 10 15 9 11 10 12 16 17 22 17 15 20 18 15 17 15 17 13 14 14 12 15 14 16 13 14 11 7 5 7 1 2 1 1 6 5 5
15 16 17 18 19 18 18 15 16 16 21 7 9 11 14 17 19 21 17 21 21 18 18 18 18 19 15 18 13 19 19 18 11 7 8 7 6 6 3 1 3 7 3 2 3
12 15 16 18 19 19 20 21 20 17 15 9 12 13 16 14 16 23 23 22 21 22 17 10 17 13 18 14 16 16 21 17 15 13 12 9 11 5 4 4 5 5 2 2 3
9 11 15 17 19 20 18 24 18 14 8 10 14 14 18 18 19 19 24 22 22 19 18 12 13 16 16 14 15 14 12 15 15 11 13 8 5 11 7 8 7 4 5 3 6
8 3 12 15 18 21 21 20 22 13 14 11 13 17 18 9 15 20 20 20 20 20 18 19 11 15 14 18 18 16 14 15 18 10 8 1 17 9 8 7 6 6 8 7 8
9 4 11 13 16 17 19 17 18 17 12 13 10 10 12 11 13 19 18 15 20 21 20 22 15 20 15 17 19 22 16 20 18 15 14 18 14 8 8 7 7 7 8 6 6
6 9 13 13 11 15 18 17 17 12 14 15 16 15 10 12 11 11 15 7 11 16 18 19 18 17 20 13 16 19 20 15 14 17 13 16 7 11 8 6 5 8 7 10 11
6 4 6 14 13 12 17 16 18 14 16 16 15 15 15 13 11 8 15 12 13 13 17 19 22 19 21 21 18 19 21 23 23 21 20 18 18 15 3 5 4 7 9 10 11
5 8 9 8 13 13 12 8 16 16 13 14 18 19 16 16 15 14 15 11 11 17 17 18 18 22 23 20 11 10 16 20 23 25 23 11 18 13 8 8 3 10 11 11 11
10 6 9 6 9 12 12 12 12 12 14 13 17 14 18 21 16 9 11 17 17 16 16 20 19 19 23 22 20 15 16 15 20 23 21 15 15 19 8 8 8 11 11 10 8
10 9 8 10 8 8 11 10 10 12 14 15 9 15 15 15 20 19 13 10 11 9 11 19 22 22 24 24 24 23 22 17 18 20 18 19 14 15 6 6 7 8 7 8 6

GFSSW_700_spd_048.txt.gz
Wind_Speed
7 6 6 5 4 3 2 2 2 2 4 5 6 7 14 25 25 20 18 17 10 7 5 5 4 5 4 10 8 4 6 7 13 16 7 12 15 6 16 11 6 8 5 2 8
8 8 7 6 5 4 4 3 3 3 4 5 6 5 5 12 24 24 24 20 15 11 8 7 6 9 9 13 9 12 12 18 13 8 6 8 8 17 4 5 1 8 8 7 6
9 9 8 7 5 4 5 4 4 4 4 5 5 5 3 3 8 15 21 25 20 14 12 9 9 12 12 11 10 11 2 10 12 1 4 4 13 6 7 3 7 5 6 8 5
11 10 9 8 6 6 6 5 5 5 5 5 5 3 1 8 3 8 15 20 26 21 16 12 11 13 12 13 11 8 9 5 4 2 3 4 4 4 10 13 9 7 10 10 6
13 12 10 10 9 7 7 6 7 5 6 6 5 4 3 9 9 11 11 12 15 24 21 16 13 12 13 14 16 12 10 5 6 4 4 4 3 2 3 6 4 9 14 14 10
15 14 13 11 11 9 8 8 7 7 6 7 6 6 5 6 13 17 12 4 6 10 12 13 12 12 18 15 14 10 10 9 6 6 5 5 6 2 3 2 2 8 10 7 7
18 16 15 13 13 11 10 10 9 8 7 7 7 8 9 9 12 10 7 2 4 8 9 11 13 12 9 12 9 15 13 12 11 9 5 7 5 11 24 8 5 7 8 10 9
20 19 17 16 15 13 12 11 11 10 8 7 8 9 9 10 13 10 7 7 7 8 11 9 13 13 14 14 14 13 15 16 11 4 7 8 3 11 5 9 8 4 9 10 9
23 22 21 20 18 16 14 13 12 11 10 9 8 9 7 16 11 9 9 7 8 8 10 12 14 13 14 16 15 17 24 14 11 22 10 7 11 8 5 4 5 7 9 8 8
23 23 23 23 21 19 17 15 14 13 12 10 9 7 10 5 7 11 10 12 9 6 9 11 10 14 16 19 24 5 18 5 20 23 3 6 11 6 4 2 6 9 8 9 11
22 22 22 22 21 20 18 14 10 12 16 12 4 10 7 9 14 11 10 11 11 10 11 11 12 18 17 19 19 22 14 10 5 15 6 8 7 4 4 3 5 9 10 9 9
21 21 21 21 20 18 16 11 16 17 19 15 18 17 14 11 7 9 10 12 12 13 11 11 15 15 16 18 22 16 12 16 10 8 8 8 11 4 3 3 6 8 9 6 14
19 19 19 19 18 17 16 16 14 14 21 21 19 19 19 17 14 11 13 13 12 13 14 17 15 11 15 15 14 16 14 14 14 9 7 10 15 12 7 10 5 1 3 7 13
20 19 17 16 17 15 11 14 11 11 11 20 16 18 19 15 19 16 16 14 14 15 14 17 17 10 13 14 16 17 14 14 14 13 14 5 16 16 10 12 7 4 6 3 15
20 20 19 18 15 11 19 11 8 5 6 10 17 13 13 22 3 15 17 16 16 15 12 16 15 16 14 13 13 15 11 13 6 12 15 17 12 19 13 6 14 10 12 7 11
18 19 19 20 18 17 12 11 9 7 13 10 11 13 16 20 17 9 18 17 14 15 15 18 11 13 16 13 14 12 14 12 10 15 18 20 16 17 5 7 11 11 10 10 3
16 17 18 19 21 21 17 13 8 14 16 15 10 14 16 20 20 18 16 19 20 15 18 17 20 15 14 16 15 13 14 14 12 14 15 11 12 5 12 8 5 5 4 2 4
15 16 16 18 19 16 18 15 15 13 23 5 5 14 19 18 21 24 20 19 22 21 17 19 19 20 18 19 16 14 20 22 12 6 7 15 9 6 9 8 13 11 5 1 4
13 14 15 17 17 18 22 22 22 17 13 21 15 17 14 17 21 20 28 24 20 21 23 20 18 14 17 16 19 20 16 21 25 23 9 14 16 8 10 12 13 12 6 7 2
10 11 6 15 17 20 22 24 19 18 16 11 11 15 17 19 20 22 21 25 23 21 20 20 16 12 16 16 17 21 13 15 19 9 12 13 16 14 15 15 16 8 9 9 3
6 3 14 8 16 21 20 20 22 18 11 11 12 18 20 19 19 24 23 22 19 22 20 18 16 17 16 17 18 16 18 14 20 15 1 7 1 22 12 19 15 15 9 6 7
10 6 13 11 15 18 20 20 17 20 12 15 16 15 15 18 18 14 19 20 20 18 22 19 18 23 21 19 16 21 18 20 19 14 16 17 16 20 6 10 10 15 2 6 6
9 6 16 13 12 14 16 19 19 19 17 11 16 15 12 14 12 12 16 7 6 14 13 21 20 22 20 21 19 19 23 20 17 20 25 7 10 9 9 11 6 9 3 9 13
13 6 8 12 18 15 12 20 20 17 16 13 14 16 15 16 14 14 17 7 7 10 16 12 16 20 25 21 18 19 20 22 22 19 17 13 19 16 9 2 7 2 5 4 6
11 5 6 4 12 13 12 9 21 18 16 16 15 16 14 14 17 17 18 15 10 14 20 12 17 16 21 23 20 19 22 25 26 25 25 15 19 23 19 3 3 12 6 5 7
8 7 9 9 7 10 15 15 13 12 18 13 16 17 18 20 19 18 17 17 22 14 16 19 16 17 22 22 23 25 21 16 32 20 21 24 18 19 16 23 12 17 8 5 5
13 11 10 4 9 13 12 15 12 14 14 14 13 12 16 15 21 23 20 14 12 9 4 18 20 20 22 20 22 28 26 19 17 15 18 20 18 18 13 7 12 14 6 6 6

GFSSW_700_spd_051.txt.gz
Wind_Speed
4 3 3 3 3 1 2 2 2 2 4 4 4 4 9 19 24 22 18 13 9 6 4 5 3 1 8 12 11 4 18 6 4 4 10 14 1 5 9 7 4 3 10 10 8
6 6 5 5 4 3 3 3 3 3 5 5 5 5 5 6 16 24 23 18 13 10 7 5 4 3 11 13 11 9 12 17 16 12 14 12 5 7 3 7 3 1 7 6 5
8 7 7 7 5 4 4 5 4 4 5 6 6 4 4 2 2 10 21 21 20 16 11 7 6 9 4 5 6 12 8 9 9 11 15 4 9 6 5 1 8 9 9 8 8
10 9 9 8 7 7 5 6 5 4 5 6 6 3 1 4 3 6 4 13 21 23 16 10 9 8 9 13 6 18 16 14 7 8 1 4 3 9 9 8 5 6 11 9 8
12 12 11 10 9 8 6 7 6 6 6 6 6 3 3 7 7 6 5 8 12 20 20 13 12 8 12 16 22 17 25 14 8 7 4 9 10 14 12 3 2 16 13 13 7
15 14 12 12 11 9 8 7 7 6 7 7 7 5 5 9 6 13 11 7 3 8 16 15 15 8 16 20 15 15 11 4 13 5 6 2 1 1 7 18 14 14 14 12 3
17 16 15 14 13 11 10 9 8 7 9 8 8 8 8 4 10 11 3 4 7 10 11 1 14 17 14 16 12 19 18 15 14 11 5 7 8 11 14 19 11 13 11 4 6
20 19 17 16 15 13 11 11 10 9 10 9 9 10 7 9 10 8 7 4 3 7 14 12 11 20 16 9 13 17 13 8 10 18 6 5 16 21 7 8 12 13 16 10 14
22 22 21 19 17 15 13 12 12 11 11 9 11 10 5 10 7 7 8 5 1 13 7 11 15 16 16 12 17 5 10 15 14 14 24 24 23 20 6 1 3 12 16 19 17
23 23 22 21 21 19 16 15 14 13 13 11 10 6 1 2 7 7 3 4 8 9 10 10 11 11 13 11 22 15 7 12 10 20 16 21 20 11 5 6 8 14 13 19 17
23 23 22 21 21 20 18 17 17 16 18 14 8 10 3 7 12 14 9 11 12 10 10 13 15 15 11 13 16 20 15 7 5 8 13 5 12 13 3 3 11 14 4 22 15
22 22 21 20 19 18 15 15 19 17 23 18 19 15 11 9 16 9 6 10 11 11 9 11 17 17 15 20 20 21 17 14 17 6 18 8 13 8 11 9 4 6 13 14 9
20 21 20 19 18 18 16 16 13 13 22 26 22 23 21 17 21 11 11 12 13 15 10 18 17 17 17 15 21 13 13 16 22 16 18 21 15 12 14 11 10 4 5 6 6
21 19 17 17 17 14 11 14 12 11 13 25 21 22 19 15 21 11 19 16 14 15 16 18 17 17 15 11 11 14 10 14 19 20 16 11 15 10 16 12 16 3 8 12 7
22 21 19 17 15 16 19 16 8 7 4 8 15 11 10 23 8 6 14 19 18 18 13 18 18 14 15 11 12 15 16 14 12 13 8 15 18 6 7 12 23 13 15 10 5
20 21 21 19 16 18 15 10 11 6 8 7 12 19 12 16 21 7 16 18 16 14 18 18 17 16 14 16 14 12 15 14 14 13 14 15 22 15 14 4 13 19 16 4 7
18 19 20 19 20 20 17 14 9 9 8 11 12 11 16 17 21 17 21 17 20 14 19 17 18 16 12 17 10 14 12 12 6 8 3 11 17 10 9 8 23 24 10 9 4
14 16 17 18 20 19 18 20 12 7 20 12 7 17 17 17 20 18 20 18 21 18 21 20 18 18 20 21 18 19 14 16 6 3 3 17 4 7 6 15 22 16 11 10 8
11 12 14 17 18 19 21 26 15 14 11 13 19 17 13 18 17 27 24 26 20 23 22 17 26 23 23 24 18 19 19 13 24 25 11 14 4 10 15 25 20 3 2 5 4
8 8 11 16 17 21 25 29 22 23 14 18 15 13 16 16 13 19 27 21 28 25 25 18 25 22 17 20 19 20 19 15 18 3 4 3 6 7 22 23 17 9 2 3 3
6 4 7 9 13 22 28 29 25 20 16 11 12 16 11 13 14 19 18 24 19 23 22 28 21 27 20 14 21 19 20 20 16 9 6 4 5 12 19 11 19 28 19 14 7
12 9 5 5 11 16 25 23 20 21 12 19 18 18 11 12 20 19 13 11 20 22 23 25 21 22 27 16 19 19 20 17 19 17 6 0 3 6 13 5 4 14 9 13 8
14 8 5 9 14 14 12 14 16 15 13 12 9 14 22 18 17 14 16 8 9 5 17 20 8 17 23 24 19 12 21 25 21 25 24 9 5 10 11 8 6 2 20 8 14
14 8 9 12 11 15 16 13 17 15 20 12 8 11 13 16 16 17 16 8 6 11 7 7 11 8 19 20 10 6 24 21 15 15 18 26 16 19 12 20 17 2 6 11 19
15 12 3 9 8 16 14 10 8 19 13 12 19 14 11 14 17 18 17 11 12 12 10 14 14 15 16 17 18 18 17 26 20 27 20 15 15 20 21 19 10 19 3 10 7
16 10 9 11 1 8 16 11 11 7 12 13 10 20 15 16 13 16 17 9 18 17 12 11 16 15 21 22 18 20 19 16 9 19 31 22 23 24 14 13 16 6 9 13 8
21 16 9 14 3 5 7 11 12 12 11 7 13 10 13 15 19 24 23 23 16 13 9 9 13 17 20 21 20 24 20 22 19 20 13 35 25 25 17 18 18 10 13 7 4

GFSSW_700_spd_054.txt.gz
Wind_Speed
4 3 3 3 3 3 3 3 3 3 2 2 3 4 7 19 26 23 18 13 10 5 2 1 5 4 6 6 11 13 11 12 6 11 1 11 9 2 3 7 7 9 11 11 8
6 5 4 3 3 3 2 2 2 1 2 3 3 3 3 5 15 24 20 17 13 10 6 4 3 1 7 5 9 10 16 14 14 9 11 13 9 4 3 4 5 7 8 8 8
8 7 6 5 5 4 4 3 4 3 4 4 4 3 3 2 3 10 20 18 18 16 11 6 3 3 7 5 3 9 17 14 18 18 6 8 15 11 8 7 5 4 8 9 8
10 9 8 8 7 6 6 4 5 5 5 6 4 3 3 1 4 7 10 19 19 20 16 10 6 7 12 4 10 19 19 13 9 22 9 2 10 9 10 6 6 7 6 8 17
13 12 11 10 9 8 7 6 6 7 6 6 5 4 3 6 2 2 3 4 12 20 18 14 8 9 12 9 15 21 19 18 23 17 13 6 8 11 7 7 6 4 8 14 19
15 14 13 12 11 9 8 8 7 8 7 7 7 6 5 8 8 5 2 3 4 11 16 15 11 11 11 12 18 20 16 16 8 2 3 4 6 10 5 7 9 14 9 12 17
18 17 15 14 12 11 10 9 8 8 8 8 8 9 8 4 12 8 1 4 4 9 15 13 12 9 11 13 9 13 17 11 13 2 8 3 10 12 5 11 9 9 10 10 24
20 19 18 16 15 12 12 11 9 9 9 8 10 9 5 11 10 7 6 7 5 11 16 14 5 9 13 15 11 12 8 11 9 11 13 7 10 9 6 13 8 13 18 26 5
22 22 21 19 18 15 13 12 11 11 10 9 11 9 3 7 5 3 4 5 10 3 2 9 12 14 12 15 16 6 14 15 18 25 16 6 14 12 14 13 12 21 17 17 9
23 22 22 21 20 18 16 15 14 13 13 12 12 8 4 6 2 3 3 11 6 2 7 7 9 9 9 11 16 9 9 18 19 3 6 11 15 17 14 19 19 19 20 14 9
23 23 22 21 20 19 18 17 17 18 18 16 14 11 8 7 6 9 7 8 11 12 14 13 15 19 4 10 20 15 17 21 13 5 12 17 20 11 9 16 20 20 17 12 10
22 22 22 21 19 17 15 17 16 20 23 20 17 19 13 10 12 10 9 14 15 12 14 15 17 9 9 11 18 20 24 20 17 13 12 16 19 17 17 11 14 18 16 5 8
21 21 21 20 19 16 12 15 13 16 22 25 22 23 17 15 17 8 15 8 11 10 8 11 11 9 13 17 22 23 16 20 21 17 18 27 23 9 11 16 18 15 8 4 4
23 21 19 18 19 16 17 18 17 17 14 23 21 20 22 21 23 17 19 17 18 15 13 17 10 16 16 18 12 15 10 11 15 19 15 15 14 9 18 16 13 9 6 1 4
24 22 21 18 17 17 20 18 15 12 3 8 10 11 12 22 12 7 19 21 20 16 15 17 14 16 16 14 10 15 21 18 16 19 15 5 2 13 22 21 14 9 6 7 4
23 23 22 20 18 21 18 13 13 10 8 5 8 11 13 11 13 12 9 17 21 22 19 22 18 18 14 11 11 11 15 14 16 14 9 11 11 10 21 24 20 17 11 9 5
20 22 22 20 21 21 18 17 13 9 8 13 6 15 9 11 15 14 14 15 23 17 21 19 24 19 14 12 12 11 13 7 5 5 9 12 5 4 8 14 9 10 15 8 6
18 20 21 19 23 23 23 20 16 7 19 7 4 10 11 20 14 17 17 18 23 24 20 17 14 20 10 16 15 18 15 12 4 3 6 22 6 6 13 15 15 12 6 7 2
14 16 17 21 23 24 26 28 19 11 7 15 18 9 9 12 24 16 20 19 24 19 21 14 25 17 16 17 22 26 23 16 21 16 7 13 6 16 22 19 21 19 7 12 0
11 12 15 19 22 25 29 32 25 23 14 5 7 6 11 10 4 2 21 24 26 26 20 23 25 16 16 18 17 25 18 14 8 2 5 5 10 16 26 17 11 6 15 9 9
9 8 11 13 20 24 30 31 31 24 23 15 12 16 16 8 8 5 2 7 9 30 29 28 28 27 24 18 11 24 23 17 14 9 6 2 0 15 22 21 19 9 14 8 15
10 11 10 10 13 13 23 24 22 22 23 16 11 16 18 13 9 4 4 3 17 5 32 24 29 28 27 25 15 15 15 23 18 13 5 3 6 20 21 21 16 7 3 8 14
15 11 9 4 5 9 13 16 18 20 20 15 10 17 17 17 10 4 9 3 7 14 9 9 14 18 25 23 17 13 10 12 7 13 12 3 6 20 19 18 14 4 4 15 5
16 10 10 9 9 10 11 12 7 7 18 11 13 14 13 13 10 8 14 8 7 11 7 5 3 12 19 7 1 7 11 13 9 11 14 9 3 14 19 14 12 10 10 15 7
18 10 14 8 6 10 13 9 8 3 9 12 17 12 15 11 11 14 15 19 12 9 7 6 5 7 7 7 7 6 7 11 11 17 18 16 8 8 18 17 14 13 12 11 8
19 15 11 9 0 0 4 14 8 5 3 5 8 9 23 19 13 12 17 13 12 10 8 7 5 7 11 12 16 15 11 11 13 15 19 11 8 8 15 22 19 13 7 11 9
21 18 15 9 5 5 5 6 8 10 8 4 5 11 9 17 17 15 16 19 14 11 10 6 6 9 12 14 15 18 19 17 17 17 21 27 20 18 30 23 18 14 11 11 11

GFSSW_700_spd_057.txt.gz
Wind_Speed
5 5 5 5 5 4 4 4 5 5 5 5 5 6 9 18 24 24 20 14 10 6 2 2 5 5 2 7 13 13 14 13 10 8 5 5 4 7 8 5 6 4 12 12 13
6 6 5 4 4 5 5 5 4 5 4 2 3 4 4 7 15 23 21 19 15 11 7 3 3 6 8 9 12 13 17 19 16 14 16 10 10 7 10 10 3 4 10 15 18
8 7 7 6 5 5 5 5 5 5 2 1 3 3 3 3 4 11 23 23 19 16 12 9 6 9 7 6 9 13 23 23 20 20 15 14 17 14 13 15 11 9 11 15 17
11 9 9 8 8 7 7 6 6 5 3 2 3 4 4 1 2 3 15 20 20 20 17 13 10 10 10 7 11 19 13 17 18 18 18 12 14 22 19 19 11 8 11 14 19
13 12 11 10 10 9 8 8 8 6 5 4 4 4 4 3 6 5 9 17 22 22 20 17 12 10 15 9 14 12 15 13 13 10 10 10 14 18 17 17 14 9 11 14 20
16 14 13 12 12 11 10 9 9 7 6 6 5 6 6 5 7 4 8 8 11 16 20 18 15 17 14 11 12 12 16 13 7 7 8 8 14 14 10 12 14 13 9 16 18
19 17 16 15 14 13 11 11 11 10 8 8 7 7 7 6 11 6 5 7 7 9 14 19 13 16 14 13 9 7 10 5 9 9 6 5 11 11 10 13 11 12 8 10 16
22 20 19 17 16 14 13 12 12 12 10 9 9 6 4 12 7 5 6 8 6 8 12 12 11 17 17 18 14 8 7 10 11 13 7 4 12 5 8 11 15 15 12 8 14
23 23 22 20 19 17 15 14 14 13 12 11 11 7 4 5 3 6 5 10 11 11 12 11 9 13 18 17 16 9 8 9 10 17 10 8 11 4 6 15 18 17 15 12 13
24 24 23 22 21 19 18 17 16 15 15 13 12 8 7 8 9 8 5 17 12 7 9 10 11 13 15 15 14 9 10 16 19 17 4 10 9 14 23 19 16 19 17 11 11
23 23 23 23 22 19 18 19 19 21 19 17 12 10 6 11 10 8 7 13 14 13 14 14 15 15 12 9 12 17 19 22 19 13 18 8 14 17 16 14 17 23 19 10 7
22 22 22 22 22 19 16 19 20 22 22 20 17 16 13 16 17 8 10 10 15 17 15 16 22 14 10 10 12 16 20 23 22 17 17 20 24 26 17 14 16 18 17 8 7
23 22 20 21 21 19 17 19 18 19 21 21 21 22 20 21 21 13 15 11 12 16 13 17 11 10 13 14 16 14 20 20 19 15 17 21 20 22 16 13 18 21 22 13 8
23 23 20 19 20 18 20 20 18 16 14 21 21 20 23 24 27 20 18 17 15 13 9 14 14 11 12 15 14 20 13 11 13 12 15 17 11 12 8 13 24 20 16 14 6
23 22 21 19 19 19 21 19 16 11 5 8 15 18 18 24 19 21 19 23 23 17 16 20 10 11 16 14 16 14 12 12 15 14 13 8 6 9 8 14 18 17 16 12 9
21 22 21 20 19 21 19 16 14 8 9 5 5 9 17 18 21 14 13 22 22 18 20 21 18 19 15 13 14 11 13 12 12 11 4 5 3 5 8 16 21 21 20 15 9
20 21 21 20 21 22 19 18 12 10 7 7 3 8 16 15 13 23 16 15 17 20 25 20 22 22 21 19 14 12 12 5 5 4 6 5 5 3 11 19 22 17 22 29 14
19 19 20 19 25 24 22 22 14 8 21 7 6 3 12 18 16 14 20 23 18 20 21 17 21 22 19 13 11 12 11 8 4 3 7 7 2 7 7 14 22 17 18 16 20
17 17 16 21 25 25 27 29 17 7 8 23 16 8 4 8 19 16 20 22 22 21 26 17 20 18 12 12 12 17 21 20 12 4 2 5 2 5 9 12 16 15 12 11 6
16 14 17 23 21 24 29 32 26 20 12 7 1 2 2 5 2 12 8 9 20 25 27 24 23 14 10 13 10 14 23 10 11 3 3 3 5 8 18 19 18 15 15 10 6
11 11 14 17 20 24 32 32 32 26 23 16 11 10 10 5 4 2 6 5 4 12 24 31 30 24 17 13 10 11 13 15 11 5 7 2 5 18 19 18 20 15 6 7 6
9 10 11 10 15 23 26 23 24 25 28 29 19 14 10 9 10 3 3 2 4 5 14 22 30 35 32 26 21 18 10 10 17 8 6 5 7 8 21 22 19 19 5 3 6
12 13 14 13 8 8 8 12 18 24 24 23 23 11 8 10 8 8 4 3 3 3 6 2 8 23 28 25 15 8 0 3 6 8 7 4 3 12 19 21 22 18 10 5 8
15 10 15 13 11 6 6 10 14 10 12 18 22 11 8 10 9 9 12 6 7 5 3 3 4 6 18 15 9 12 5 2 3 3 5 7 6 5 14 20 17 16 14 11 5
17 13 16 9 5 4 7 9 11 5 3 11 17 13 13 15 12 11 14 16 15 11 7 0 1 0 0 2 3 6 12 6 3 7 3 8 7 5 6 8 15 14 19 14 9
19 17 19 7 5 4 6 9 12 4 3 8 15 14 18 18 14 12 12 14 7 10 8 3 2 4 5 6 5 7 8 8 6 5 10 10 8 9 7 13 20 21 21 16 14
16 18 17 12 7 4 5 7 9 8 3 5 9 15 10 14 16 12 13 15 12 9 6 5 5 5 9 12 6 10 3 8 11 13 15 13 12 11 13 15 18 25 21 16 16

GFSSW_700_spd_060.txt.gz
Wind_Speed
5 5 5 5 5 4 3 4 4 4 5 6 6 7 10 15 22 22 21 16 11 7 3 3 6 8 9 10 12 14 14 19 22 16 17 12 10 10 7 7 7 6 9 12 20
7 7 6 6 6 5 5 5 5 5 6 6 4 5 6 8 12 20 24 22 16 11 8 5 8 9 9 12 11 12 15 19 20 16 16 12 15 16 16 13 10 11 12 10 18
9 9 9 8 7 6 6 6 6 6 6 5 3 3 4 5 6 9 23 25 21 16 13 10 10 11 9 12 7 17 17 17 15 20 15 10 12 21 21 19 15 14 13 14 13
12 11 11 10 9 8 7 7 7 6 7 5 3 3 3 2 0 1 12 23 23 21 18 15 13 15 12 10 11 17 14 17 12 13 15 11 12 17 21 20 21 15 14 12 9
15 14 13 12 11 10 10 9 8 8 8 4 4 4 2 1 4 3 8 20 24 25 22 19 16 16 15 11 13 14 12 14 12 10 11 8 10 12 12 18 23 20 9 8 8
17 17 16 15 13 12 11 11 10 9 8 6 5 5 4 3 7 7 7 12 19 22 23 21 19 16 14 14 12 15 10 9 6 4 9 5 5 11 9 12 16 14 5 6 6
21 20 18 17 16 14 13 13 12 11 10 8 7 6 4 7 6 8 5 10 13 16 20 20 18 16 17 15 13 12 9 5 4 9 8 7 6 10 8 9 13 12 6 2 7
23 22 21 20 18 16 15 15 14 13 12 11 9 7 2 8 3 5 9 9 10 9 11 15 15 16 18 19 17 14 10 9 8 12 8 10 11 9 7 11 14 13 9 4 5
24 24 23 23 21 19 17 18 15 14 14 13 10 8 4 5 8 11 11 11 12 12 12 14 12 13 17 18 17 15 13 12 15 13 18 11 12 8 6 16 17 16 11 7 6
24 24 24 24 23 21 20 21 18 18 15 14 13 10 8 7 9 9 9 15 17 13 14 15 13 14 14 15 14 11 11 16 18 15 21 19 18 16 14 15 15 13 11 8 6
23 23 24 24 24 22 20 22 21 22 20 17 13 9 6 8 9 8 9 16 20 16 16 16 17 16 17 15 12 12 15 20 18 17 26 16 16 19 16 9 13 17 10 7 6
24 23 22 23 23 21 20 22 22 22 23 21 20 17 14 13 13 12 13 15 19 18 16 20 22 18 16 12 11 12 15 20 21 18 22 12 21 17 14 11 10 14 8 8 8
22 22 22 21 21 20 20 21 20 19 21 22 21 20 16 19 18 15 17 14 15 15 19 21 16 9 15 14 15 15 14 20 19 19 15 12 15 16 13 7 7 15 11 14 15
22 21 21 20 20 19 19 19 18 15 13 21 21 20 22 24 28 22 19 18 18 17 12 14 16 15 10 11 11 13 8 15 15 15 12 14 6 10 6 6 10 16 14 15 18
20 20 19 20 20 18 19 17 15 10 4 8 17 25 28 27 24 27 26 25 24 21 14 13 6 6 11 9 10 13 11 8 14 12 13 11 5 4 6 7 10 14 14 12 10
20 20 18 20 19 20 17 16 13 7 9 6 8 8 17 22 23 25 22 23 29 22 20 23 20 17 13 11 12 14 14 9 9 10 4 8 5 5 3 9 11 16 14 16 8
20 20 18 19 19 21 18 17 11 9 9 8 8 4 12 14 18 21 23 22 27 23 27 23 21 18 16 17 12 14 10 4 2 1 7 7 5 7 7 9 15 14 15 14 15
19 19 18 16 21 21 20 21 13 10 23 8 10 3 5 8 15 13 19 15 18 21 19 18 19 19 17 17 13 9 7 4 4 3 5 6 5 8 9 11 11 12 13 10 16
19 18 16 18 22 22 24 28 20 11 8 27 20 11 4 3 8 9 15 20 24 25 23 10 23 15 13 15 15 12 11 13 8 3 2 6 8 12 8 13 10 10 15 7 14
16 17 16 18 20 21 26 34 27 22 11 7 8 4 2 2 1 5 7 7 19 22 21 21 21 20 18 9 10 12 11 10 9 4 4 4 4 12 10 11 10 9 7 7 11
15 12 14 14 16 21 30 34 35 21 21 11 7 5 4 7 3 1 8 5 5 11 20 24 25 25 15 6 6 7 6 8 5 4 7 3 6 8 9 7 11 9 4 5 6
11 10 10 11 18 24 30 31 27 25 27 26 22 16 10 6 7 3 4 4 2 3 14 18 17 27 27 24 24 21 21 13 12 6 5 5 12 12 6 4 11 13 11 10 9
9 10 10 11 10 12 14 16 20 23 26 29 22 23 12 8 6 7 6 2 1 4 2 7 12 21 18 19 20 20 13 7 6 7 9 5 5 4 6 7 9 15 15 14 14
9 7 12 14 10 8 8 12 15 14 15 21 24 14 16 12 11 7 10 6 5 4 5 1 4 6 11 11 6 13 13 7 5 5 5 11 7 6 6 4 10 10 19 20 16
12 11 14 12 13 11 10 10 12 10 9 8 16 20 20 14 13 13 14 13 13 9 9 5 3 2 4 6 10 14 12 8 7 5 6 4 5 5 5 5 10 14 20 23 21
14 14 16 9 7 7 9 10 12 12 10 2 11 19 20 17 12 13 12 10 9 7 7 9 5 5 4 5 6 7 7 7 6 8 6 3 3 3 5 9 12 19 24 26 25
13 15 16 17 7 5 2 3 4 4 4 4 4 11 12 13 14 14 14 14 12 11 8 8 6 7 7 6 5 7 10 9 9 4 1 3 2 5 9 12 14 14 22 27 25

GFSSW_700_spd_063.txt.gz
Wind_Speed
4 4 5 5 5 5 5 5 6 6 7 7 8 8 10 15 20 22 21 16 11 7 3 5 6 8 10 12 11 12 14 17 19 18 17 14 16 13 10 8 11 9 9 13 11
6 7 7 6 6 7 6 6 6 5 6 6 7 7 7 9 11 15 25 23 17 12 8 7 8 8 8 11 8 9 14 16 14 17 17 9 14 15 16 15 11 13 10 8 12
9 9 8 8 8 8 8 7 6 6 6 7 6 5 5 6 7 8 17 26 22 18 14 11 12 9 8 8 10 13 12 16 12 12 14 10 9 13 14 14 10 13 12 7 9
12 11 11 11 10 10 9 9 8 8 8 7 6 4 3 5 2 3 8 23 26 22 17 16 15 13 10 10 11 16 11 14 10 10 12 12 9 13 10 11 14 15 13 8 7
16 15 14 13 12 11 11 11 10 10 9 8 7 4 2 4 4 3 3 14 24 23 21 20 19 16 13 13 13 15 12 13 11 6 10 10 6 10 7 10 11 11 6 3 4
20 18 17 16 15 14 13 13 12 11 11 9 8 5 3 4 6 6 4 6 17 23 23 23 21 20 17 16 15 15 12 10 8 6 7 13 9 13 8 6 8 8 3 2 2
24 22 21 19 18 16 15 15 14 13 13 11 10 7 5 7 6 10 6 8 11 17 21 23 24 22 20 17 14 15 12 10 11 7 9 7 11 13 16 8 8 8 5 6 3
25 26 24 23 21 19 18 17 16 14 14 13 11 9 6 7 5 10 13 11 11 12 14 18 21 20 19 19 16 14 14 10 9 5 11 5 15 11 14 11 13 11 5 7 3
24 25 26 26 24 22 21 20 18 16 15 14 12 11 9 8 8 12 14 15 14 13 13 16 16 13 16 18 20 15 12 15 17 10 10 17 17 5 9 13 14 14 7 7 5
25 24 25 26 26 25 23 22 21 20 17 15 14 13 9 11 9 8 10 13 17 18 16 15 14 12 12 14 18 11 12 18 19 13 16 17 12 11 12 15 13 13 9 6 4
24 25 24 25 25 25 24 23 23 22 21 19 14 13 11 15 12 10 9 13 17 19 18 14 15 13 13 13 11 12 14 21 19 19 16 17 8 15 12 9 7 9 5 7 8
23 23 24 24 23 23 24 22 22 22 24 23 22 20 16 13 15 14 12 14 17 23 21 20 19 16 17 16 13 12 14 20 20 14 16 12 9 8 6 5 7 7 7 11 10
22 22 22 23 22 21 22 21 20 20 22 24 23 22 22 23 20 17 16 16 18 22 23 23 17 10 13 17 15 13 18 16 17 17 12 9 6 9 8 8 7 9 7 13 15
21 21 21 21 21 19 19 19 18 16 12 23 21 23 23 24 26 18 23 21 21 20 17 17 19 20 13 13 10 13 8 13 11 11 7 8 6 8 7 7 9 8 11 13 14
21 19 19 19 19 18 18 16 13 10 4 9 22 24 24 26 25 24 25 28 27 24 17 13 7 10 16 12 8 10 11 15 7 6 7 7 4 6 5 6 10 10 13 8 9
17 19 17 18 17 20 17 12 12 7 10 8 11 10 18 27 28 28 28 30 30 29 23 20 18 14 14 12 10 12 13 11 6 5 7 7 5 8 7 8 12 13 12 5 9
17 16 17 15 16 19 17 15 11 9 12 9 11 11 12 16 20 22 27 27 31 21 26 28 27 23 19 17 15 12 11 3 4 5 7 7 5 13 10 6 12 9 3 10 14
17 15 15 13 18 18 19 22 12 15 23 11 13 9 5 9 14 14 23 23 28 31 16 22 15 20 19 22 15 14 9 5 5 4 6 5 4 10 7 6 14 7 9 12 12
17 16 14 16 17 18 22 28 17 19 11 26 18 11 6 6 9 17 22 22 23 26 17 11 12 13 8 12 16 14 13 11 6 3 4 7 13 15 10 14 13 8 9 11 8
17 15 16 14 15 19 25 33 27 17 11 8 10 8 4 5 7 10 15 19 23 23 23 19 14 13 5 10 16 16 12 6 7 4 6 4 6 9 10 9 6 7 10 9 4
12 12 13 11 15 20 30 32 29 20 18 10 7 7 7 1 2 4 11 9 12 18 21 22 19 13 9 10 11 13 14 8 5 5 5 4 5 9 9 7 4 6 10 7 5
11 9 11 10 17 23 27 30 26 18 22 21 18 14 8 3 4 1 6 8 6 11 15 21 15 20 21 19 21 14 13 14 10 6 8 5 8 8 8 10 6 9 12 11 8
9 8 9 10 13 17 20 22 22 21 24 27 26 19 21 13 5 6 6 6 5 5 3 13 14 14 9 10 14 16 15 15 16 15 12 6 5 5 5 12 11 12 14 15 13
8 5 8 12 10 9 9 11 13 16 22 24 30 23 16 17 14 5 8 7 5 1 5 3 7 10 11 9 10 16 17 15 17 10 9 12 7 9 10 10 12 15 16 18 18
10 9 10 9 16 10 9 10 12 14 15 12 18 24 22 19 17 15 10 7 7 6 4 3 3 4 2 5 13 12 12 18 18 11 8 7 8 5 10 13 11 15 18 21 23
11 10 12 10 9 11 9 9 12 13 15 10 11 11 21 26 18 14 11 8 6 4 3 4 5 4 4 4 3 5 12 11 12 13 11 8 4 6 6 7 9 14 18 22 24
12 13 12 14 7 5 2 2 1 3 9 9 9 11 22 24 15 12 11 10 8 7 5 4 5 6 6 7 6 6 9 10 10 9 8 7 8 10 6 6 10 12 17 17 21

GFSSW_700_spd_066.txt.gz
Wind_Speed
4 4 4 5 5 6 8 10 10 11 10 10 9 11 12 15 18 24 21 17 12 8 6 6 5 7 8 9 8 9 6 8 12 13 12 9 3 9 7 8 9 5 6 7 9
7 6 6 6 7 7 8 9 9 9 9 8 7 8 8 9 9 12 25 24 18 13 10 9 7 6 7 8 9 8 5 10 12 12 13 9 7 6 8 4 7 6 2 4 8
9 9 8 8 8 8 9 9 9 9 8 8 8 7 6 6 7 9 14 27 24 20 15 12 10 9 9 9 8 7 6 13 11 13 9 10 8 6 6 5 4 5 4 5 6
13 12 11 11 11 11 11 12 11 10 9 9 9 7 5 4 1 7 8 19 28 24 19 15 13 12 9 9 10 10 11 14 15 13 8 10 5 5 6 4 7 5 8 7 5
18 16 15 14 14 13 13 13 13 12 11 11 10 8 6 5 7 7 4 9 22 25 21 18 16 14 13 11 12 13 12 14 16 14 9 9 10 6 7 7 4 7 7 3 3
22 21 19 17 17 16 16 16 15 14 13 12 12 9 7 6 7 7 4 2 12 21 22 21 19 20 19 15 14 13 15 14 14 10 11 9 9 8 11 10 8 6 4 4 3
24 25 24 22 20 19 19 18 17 16 16 14 14 12 10 9 8 9 8 6 7 12 16 21 22 22 15 14 16 17 17 14 9 7 8 13 11 4 13 9 9 6 5 8 5
24 26 26 26 25 23 22 21 19 17 17 16 15 14 13 11 9 12 13 11 9 11 15 18 20 20 21 18 19 17 16 16 6 7 11 10 11 10 9 7 11 8 5 10 7
25 25 27 28 28 26 25 23 22 20 18 17 16 15 15 13 11 12 14 15 14 14 15 15 15 12 13 18 21 20 20 17 15 12 13 10 14 6 11 12 13 9 7 10 12
25 26 27 27 28 28 27 25 24 22 21 19 18 16 16 16 14 13 12 16 16 17 17 16 13 12 12 16 23 20 18 18 15 12 13 16 12 5 11 14 13 10 9 13 14
25 25 26 27 26 26 26 24 24 25 24 23 17 20 11 18 17 15 13 13 15 17 17 14 14 15 13 13 15 13 16 23 20 17 16 15 13 9 11 10 12 10 10 16 17
26 26 25 25 25 25 24 23 23 25 27 25 26 24 18 16 20 19 16 15 15 17 15 18 19 15 14 13 14 14 17 20 19 17 13 15 10 8 5 5 10 9 12 16 21
26 26 25 24 23 23 23 21 20 22 25 29 26 27 26 24 22 22 21 17 16 16 19 19 14 13 15 16 15 16 17 17 17 14 14 13 13 6 3 1 2 5 8 19 21
23 25 24 22 22 21 21 18 16 16 13 21 26 27 27 25 30 26 23 21 18 18 17 18 18 20 18 18 15 18 12 11 14 14 22 14 13 9 5 4 3 5 7 17 20
20 21 22 21 20 19 18 14 11 10 6 9 19 30 25 26 17 27 27 27 24 20 18 18 13 12 19 20 14 14 8 10 13 15 21 15 13 10 4 7 6 10 10 6 12
19 18 18 20 18 18 17 11 11 9 13 8 12 17 29 32 27 22 28 30 26 25 22 22 13 11 10 13 15 12 11 12 10 14 17 22 11 19 11 8 9 12 11 7 13
19 18 15 16 18 17 15 13 9 16 13 12 11 12 14 20 24 25 26 28 27 24 28 24 25 19 17 15 16 14 12 16 12 13 14 4 8 15 14 13 12 14 13 9 14
17 16 16 15 17 16 15 18 17 15 24 6 8 11 13 13 18 19 25 30 32 30 27 30 27 25 22 26 21 18 19 19 9 11 11 6 10 10 9 11 12 15 11 10 12
15 16 17 16 15 15 19 25 24 20 12 17 10 11 13 11 12 14 23 26 28 30 30 23 21 12 15 18 23 21 19 18 15 14 13 20 9 14 12 13 19 21 10 11 11
16 17 18 16 14 16 23 31 18 15 9 5 13 10 13 11 9 12 17 18 22 23 27 20 14 12 14 13 15 22 14 17 19 15 12 14 7 13 8 7 12 11 9 13 11
13 12 12 12 13 20 23 23 24 17 13 8 7 8 10 5 7 9 10 7 15 15 21 21 17 14 13 16 17 16 22 19 18 9 11 11 12 5 10 9 5 8 9 11 12
11 5 11 10 13 15 20 19 16 15 19 16 13 9 7 7 5 7 9 6 12 13 18 22 18 24 17 14 15 14 13 20 21 18 19 16 17 4 7 12 10 10 11 14 15
10 10 10 9 7 13 14 16 16 16 17 16 19 13 13 9 6 7 6 7 7 8 10 15 15 19 21 16 19 20 19 18 15 14 15 13 14 8 9 12 14 10 16 16 16
8 2 8 11 12 9 9 10 14 13 18 20 22 19 18 16 12 6 6 8 7 6 4 11 12 17 20 19 17 23 22 19 19 19 19 19 17 8 9 14 13 11 14 19 18
8 7 9 3 9 10 8 7 9 12 11 10 16 23 22 21 16 16 10 8 8 5 1 4 6 9 12 7 8 13 17 21 22 22 15 13 13 7 11 11 12 10 10 14 20
10 11 11 8 7 14 12 10 10 10 13 10 13 11 17 23 19 14 15 12 9 6 5 4 4 4 9 5 6 11 11 15 16 14 15 7 5 8 7 4 2 5 8 9 12
11 11 11 9 5 5 7 4 4 6 6 11 11 12 15 18 19 12 11 12 9 7 4 4 5 7 11 5 6 11 9 11 11 10 13 14 10 7 1 4 6 8 10 13 15

GFSSW_700_spd_069.txt.gz
Wind_Speed
6 6 5 6 6 7 8 10 12 13 13 12 11 11 12 15 18 24 23 20 14 10 8 6 5 6 7 6 9 4 10 10 9 8 9 8 5 6 2 1 3 3 4 6 5
7 7 8 8 8 8 8 9 11 12 12 11 10 9 7 8 8 12 23 27 21 16 12 10 8 7 4 7 6 7 10 7 9 7 8 7 5 4 5 1 1 2 2 4 7
11 11 10 10 10 10 10 10 11 12 12 11 10 9 6 6 6 8 9 21 28 22 17 12 9 9 7 8 6 5 9 9 8 10 8 7 5 3 4 4 4 6 6 4 7
17 15 14 13 13 12 13 12 12 12 13 12 11 10 8 4 2 14 10 11 24 28 21 17 12 11 10 10 9 10 10 9 9 11 8 7 5 3 4 5 2 6 6 5 4
22 21 20 18 16 15 15 15 14 13 14 14 13 12 10 7 9 8 7 8 14 27 25 20 15 12 14 13 12 13 14 12 10 9 8 7 5 5 5 4 2 8 5 4 6
23 24 25 24 21 19 18 18 16 16 16 15 15 15 13 8 15 11 7 5 8 18 23 22 17 14 17 16 16 15 15 16 12 10 8 8 9 5 4 3 5 7 10 10 13
24 25 26 27 26 25 23 21 19 18 18 17 17 17 17 13 12 10 10 6 5 12 14 15 17 18 16 17 15 18 18 16 15 11 9 11 15 8 4 2 7 8 11 12 14
25 26 27 27 28 28 27 26 23 21 20 19 18 19 21 20 15 11 12 11 8 10 14 15 15 18 20 20 19 18 18 21 17 10 10 9 12 2 5 3 6 9 13 9 13
27 27 27 28 29 29 29 29 27 25 23 21 19 20 18 20 18 14 13 14 12 11 13 16 14 13 13 16 21 21 23 19 20 7 11 12 12 8 5 7 8 10 14 12 15
29 29 29 28 28 29 29 29 28 28 26 23 22 20 21 16 15 17 13 14 14 13 14 15 13 13 15 16 23 19 22 22 19 15 13 14 15 8 9 9 11 12 14 15 16
26 27 31 30 29 29 27 25 22 23 31 26 7 17 11 14 22 16 17 16 16 15 19 16 15 19 15 17 16 18 17 19 17 15 17 19 16 14 11 11 11 13 14 15 17
24 26 28 29 28 27 25 21 25 26 30 29 29 28 21 18 17 17 18 18 18 20 16 18 24 18 16 16 14 15 17 19 18 18 19 20 19 13 10 11 11 13 14 14 17
23 24 25 28 27 26 22 23 22 23 28 33 30 30 27 25 27 20 22 22 18 18 19 22 20 9 15 16 16 17 19 17 17 15 16 17 21 18 13 10 6 8 12 15 18
22 21 23 23 25 23 21 19 19 18 16 28 27 31 28 24 30 28 25 24 24 23 20 22 20 20 17 18 17 21 17 17 15 14 20 18 24 22 16 10 9 6 9 13 17
23 20 20 20 22 20 23 15 13 10 8 15 26 24 26 30 24 27 28 29 29 24 20 23 21 19 19 21 20 21 13 14 14 17 18 21 18 16 14 14 14 12 9 11 16
22 21 17 18 19 21 18 12 10 10 14 15 15 21 24 30 28 20 26 30 28 29 29 26 22 19 18 16 18 16 15 16 18 19 20 21 24 18 17 16 6 7 9 10 14
21 20 17 16 16 16 13 12 11 17 16 27 19 22 24 28 35 31 25 28 35 29 34 31 29 24 19 15 14 17 17 19 17 16 13 15 18 14 14 8 10 12 12 11 14
21 20 16 17 15 14 11 14 22 24 26 8 8 15 23 24 28 36 38 33 34 37 30 33 33 29 28 24 20 21 20 22 13 11 11 13 12 19 11 11 13 14 11 10 13
19 18 15 15 14 13 14 24 27 19 20 16 23 17 22 23 19 26 31 39 41 35 38 36 32 26 29 28 24 23 27 20 25 23 15 16 7 9 12 11 14 12 14 14 14
15 16 16 15 14 13 18 27 20 20 15 9 15 21 20 23 22 26 22 27 30 33 35 33 37 24 20 21 25 27 22 19 22 16 16 16 12 13 10 8 10 12 13 12 15
12 7 16 11 11 16 21 20 21 22 14 17 16 18 19 17 11 18 25 24 21 26 27 29 30 27 18 22 23 22 26 25 24 25 14 13 18 4 3 9 5 8 12 14 15
9 3 14 9 11 12 19 18 18 20 20 21 15 14 13 13 10 17 15 13 15 19 20 26 27 22 24 20 20 27 22 25 26 22 22 20 22 8 4 5 5 5 11 13 14
9 10 13 10 8 11 14 16 17 19 19 19 20 19 18 17 16 15 14 2 3 12 15 20 25 21 24 26 20 18 22 17 24 23 22 13 13 12 9 4 4 7 10 14 14
6 2 6 10 11 10 8 12 16 16 17 19 21 19 21 20 16 16 10 10 5 8 18 14 17 23 27 27 24 27 26 24 21 22 20 24 21 11 11 5 4 6 9 10 14
4 2 10 1 5 11 12 10 8 10 13 12 15 22 22 22 21 18 18 12 8 8 6 13 17 18 23 20 19 21 27 26 27 24 23 7 7 6 8 5 4 3 8 3 8
5 6 9 12 11 9 10 9 9 11 13 16 15 15 16 24 24 21 16 15 15 14 10 11 14 14 16 20 17 20 16 17 21 25 23 25 6 5 14 6 8 8 8 7 3
11 10 10 5 7 8 9 8 7 10 9 12 13 12 14 14 18 21 19 15 12 10 8 9 11 12 21 21 19 22 20 20 20 17 17 5 16 10 8 5 5 3 3 3 3

GFSSW_700_spd_072.txt.gz
Wind_Speed
7 7 7 8 9 9 9 10 11 13 13 14 14 12 12 12 13 17 18 22 17 12 10 8 6 5 3 4 13 11 15 20 9 9 9 9 7 3 4 5 5 8 4 4 11
10 10 9 9 9 10 10 11 11 12 14 13 13 10 9 6 6 9 13 20 23 20 15 11 8 7 8 12 11 10 8 12 8 9 7 10 5 7 6 9 4 10 5 7 8
16 15 13 12 12 11 11 12 12 13 13 14 14 12 9 6 5 5 5 10 21 24 20 15 8 9 12 11 10 11 10 11 9 10 9 9 8 4 3 12 4 8 13 8 8
20 20 20 18 16 15 14 13 13 14 14 15 14 14 12 7 2 11 12 10 12 23 25 20 13 13 14 14 13 12 13 10 14 10 10 11 6 7 5 6 4 5 15 12 4
22 22 23 23 23 20 18 17 15 15 16 16 16 16 15 13 7 15 9 11 10 15 25 22 16 12 15 14 15 17 14 17 12 13 10 10 9 10 8 2 2 10 13 10 8
23 24 25 25 25 25 24 22 20 17 17 18 18 18 18 16 13 15 10 10 8 9 22 26 18 14 17 19 17 15 18 18 16 17 12 9 11 8 11 5 6 11 7 9 14
25 25 25 26 27 27 27 26 25 21 20 20 20 21 23 16 14 10 9 8 9 4 12 16 17 19 18 19 18 20 21 20 18 18 12 9 14 5 11 5 9 11 8 13 14
28 28 28 28 28 28 28 29 28 26 23 22 22 24 27 15 13 18 12 10 8 6 10 13 14 19 20 19 20 22 21 21 19 19 11 9 13 3 7 3 8 9 10 13 14
26 29 31 31 30 29 28 28 28 28 27 25 23 25 26 22 21 18 17 12 9 10 13 13 15 15 14 19 20 19 23 21 21 14 12 11 16 9 9 6 6 9 12 14 15
24 26 27 29 32 32 30 28 28 28 28 28 25 23 21 21 19 19 20 17 16 13 15 16 15 15 16 17 22 21 20 20 17 12 14 13 14 13 11 7 9 11 14 16 17
23 23 24 25 27 30 30 27 19 18 28 28 17 18 24 11 15 17 19 20 20 18 22 18 18 20 18 18 19 21 21 21 20 15 11 14 16 16 16 9 10 14 14 17 18
24 22 23 24 24 25 26 22 20 24 33 28 29 31 26 15 20 19 18 24 23 25 20 21 26 21 18 20 20 17 16 20 19 18 17 19 22 19 21 11 12 13 15 15 18
26 24 23 22 22 22 22 20 24 22 30 39 36 35 33 26 27 22 20 24 26 25 22 25 23 20 22 22 21 19 20 20 20 18 17 18 19 20 22 13 13 13 14 15 19
23 22 24 19 20 18 11 24 16 18 19 31 32 38 36 34 36 32 27 28 29 29 24 23 21 22 23 18 18 22 19 21 18 19 18 16 22 22 23 21 15 14 14 16 16
23 22 21 20 18 17 21 21 14 9 8 12 15 20 34 38 37 33 32 31 35 31 27 31 26 23 23 24 19 21 19 18 18 16 19 20 18 24 19 24 18 16 14 12 16
22 21 19 20 18 18 16 15 9 9 15 15 19 11 27 30 36 36 31 34 35 35 33 33 25 24 23 23 19 20 20 21 18 20 21 25 23 27 19 15 12 11 12 12 15
21 21 20 17 16 16 10 7 9 15 9 19 23 19 21 26 29 33 37 39 40 38 36 36 34 30 25 18 18 17 19 19 16 17 14 27 26 18 9 13 12 8 17 13 7
21 22 18 16 14 13 10 8 18 14 22 23 22 22 24 23 28 32 36 38 35 35 35 36 33 33 30 28 22 20 19 22 15 14 13 16 11 19 15 9 5 13 9 12 7
20 18 16 12 11 11 10 17 22 19 17 18 23 21 22 21 22 30 36 41 39 35 38 37 39 27 30 32 28 26 28 22 24 28 23 20 11 10 10 13 12 14 13 14 8
15 12 9 11 9 10 13 22 21 21 22 19 21 20 19 19 20 23 27 30 41 41 36 35 35 35 33 27 32 33 25 24 26 16 16 22 21 10 20 16 11 14 11 10 13
12 4 13 15 11 11 16 19 17 18 20 16 16 16 17 21 24 21 18 25 22 35 33 39 38 37 27 38 26 31 26 28 29 24 13 12 17 6 11 10 12 13 11 16 17
9 1 15 14 9 10 16 17 17 18 17 21 18 20 21 23 17 17 14 20 16 11 37 32 30 34 34 29 25 25 30 28 25 22 26 25 18 3 8 8 10 10 15 15 19
10 8 11 11 10 11 16 18 15 17 19 18 19 18 21 23 22 18 18 15 16 19 13 12 19 17 31 25 20 23 27 28 28 27 31 20 18 13 19 10 11 8 13 16 18
4 4 3 10 11 14 13 11 12 13 18 18 20 21 20 22 23 24 20 17 10 12 16 13 14 19 24 28 27 22 30 25 28 24 27 28 7 10 3 7 9 7 16 19 19
4 2 8 7 8 11 12 15 14 12 9 14 15 18 20 22 22 24 23 18 13 13 12 8 15 17 17 26 21 19 12 27 27 27 24 23 10 15 22 20 3 5 13 12 16
6 10 13 13 13 12 12 12 12 13 13 14 15 17 16 20 22 24 22 20 17 12 10 10 15 15 23 23 20 20 26 29 33 28 28 25 17 19 11 6 13 8 7 11 9
11 15 12 9 9 12 13 10 12 12 14 15 14 14 14 17 19 18 24 20 18 13 16 14 13 17 22 23 22 8 22 18 16 17 14 17 19 24 20 17 17 18 11 14 14

GFSSW_700_spd_075.txt.gz
Wind_Speed
10 10 10 10 9 9 8 9 10 11 13 14 14 14 13 10 10 9 12 17 16 13 11 8 7 8 8 2 12 18 20 21 18 14 10 10 8 9 10 5 8 7 11 7 11
15 14 12 12 12 12 11 11 11 12 13 13 14 13 12 8 7 7 6 11 17 18 16 13 9 10 11 7 6 14 18 21 20 9 6 15 3 8 11 9 2 8 10 2 5
17 17 17 16 14 14 14 13 13 13 14 14 14 14 12 10 6 3 2 5 8 16 19 18 13 11 11 9 2 13 20 16 16 16 9 11 9 13 6 6 3 5 7 6 6
20 20 20 20 19 19 16 15 15 14 15 15 16 15 15 13 7 3 6 7 8 11 19 20 16 12 10 11 10 25 21 14 12 17 15 11 12 11 13 6 2 2 12 13 12
22 23 23 23 23 22 22 21 18 16 16 17 17 17 18 17 12 10 6 7 10 11 14 21 20 12 11 12 23 26 17 17 18 16 17 16 7 13 5 3 5 4 10 13 11
24 24 25 25 25 25 25 24 24 23 20 18 19 20 21 20 15 16 9 7 8 10 11 21 23 12 14 20 21 22 18 22 18 17 16 17 13 4 11 6 8 8 10 15 9
28 28 28 27 27 26 26 27 26 25 25 24 22 23 25 17 14 20 12 10 8 9 9 19 19 12 16 19 18 20 26 24 17 21 23 23 10 19 9 9 9 11 10 14 7
23 24 26 28 30 29 28 28 27 27 27 27 27 28 29 19 19 19 18 13 10 9 7 15 9 14 19 23 23 21 21 25 18 20 23 19 13 9 10 11 16 11 11 9 11
20 21 23 23 26 26 28 29 28 27 28 29 27 32 32 22 24 20 22 17 13 10 9 8 14 16 18 15 20 18 27 25 18 13 21 18 11 15 9 18 15 12 14 12 15
22 22 23 23 24 23 23 25 25 28 28 30 29 31 29 18 13 18 21 20 18 9 8 11 16 18 18 16 26 25 27 28 28 21 19 18 21 11 10 19 12 15 17 18 20
24 23 23 23 22 24 22 21 23 21 27 28 20 24 23 16 9 20 15 22 22 18 23 18 19 24 22 18 23 23 25 25 27 22 17 14 9 9 13 10 12 18 17 21 22
26 26 24 22 20 20 19 18 19 25 35 29 32 31 32 25 21 20 17 25 27 28 23 24 29 27 20 22 27 29 29 21 20 17 17 17 19 16 14 19 18 17 19 17 24
25 24 23 20 20 18 17 16 21 22 31 39 32 37 34 31 34 24 25 26 30 27 28 28 27 22 26 24 23 23 25 19 21 20 22 19 19 19 21 29 20 18 16 20 19
25 23 22 16 17 15 16 19 19 19 25 38 22 29 30 37 44 28 26 28 29 34 29 28 25 27 30 34 32 24 18 16 24 26 22 18 17 23 25 22 25 22 19 22 20
24 21 17 19 14 14 15 17 15 11 6 11 11 16 27 26 33 44 31 33 35 32 32 38 31 29 29 28 25 22 22 17 23 27 23 18 18 24 24 27 26 27 23 22 24
21 23 15 19 15 16 14 12 8 2 9 13 22 17 21 27 23 26 35 33 34 36 35 37 32 33 30 26 26 23 22 22 23 25 21 27 23 36 32 29 34 27 24 20 24
19 18 16 13 14 12 10 5 1 8 6 16 15 22 31 26 31 26 28 40 39 38 40 38 40 38 37 35 25 22 17 15 11 10 12 32 26 38 26 19 23 28 28 26 19
16 17 13 11 10 10 7 6 8 9 16 24 27 32 24 21 11 28 34 34 40 40 36 42 36 40 38 35 29 23 18 18 8 6 14 21 17 39 34 21 21 20 26 25 23
13 13 12 9 9 6 8 10 8 11 13 24 30 27 25 21 17 18 17 28 37 37 38 37 40 40 37 31 33 29 26 27 21 29 18 28 29 19 12 13 27 24 23 26 24
9 10 9 7 0 5 10 18 18 14 19 18 25 21 29 23 26 30 17 15 23 28 32 43 41 38 38 36 36 34 33 27 27 4 7 19 23 11 16 14 24 24 25 18 16
8 6 5 13 10 8 13 17 16 17 19 22 26 26 27 28 23 23 17 19 20 24 9 26 25 37 31 35 30 27 34 25 27 28 6 4 9 9 4 21 11 17 22 11 11
6 2 4 7 12 8 12 13 18 21 17 16 17 20 20 23 26 27 24 25 19 16 24 21 21 34 43 44 37 31 34 38 24 25 22 17 20 17 14 13 12 30 26 17 17
5 5 7 5 11 8 16 19 16 13 17 19 21 17 20 21 25 25 23 17 14 15 17 15 12 17 27 36 38 35 33 26 35 33 34 14 8 9 16 16 21 25 16 22 24
2 10 4 7 13 17 17 19 20 16 11 13 20 22 21 22 19 25 23 23 20 17 20 21 24 17 10 11 15 22 21 15 20 26 35 31 20 17 14 13 18 25 29 22 20
7 4 6 8 9 10 10 11 17 17 16 17 12 12 17 22 24 24 22 17 12 18 24 23 23 20 15 13 13 4 15 32 27 21 23 24 30 25 22 17 14 15 20 4 12
12 14 17 14 14 8 9 19 17 15 15 23 14 14 17 22 19 20 23 21 20 23 17 12 24 24 17 14 15 12 12 16 16 15 17 22 17 17 17 17 4 3 2 17 4
11 16 16 10 10 6 15 19 14 14 11 15 16 23 18 17 20 17 21 18 20 23 22 16 17 19 11 15 17 8 20 15 8 14 17 11 21 26 22 16 16 19 19 26 26

GFSSW_700_spd_078.txt.gz
Wind_Speed
11 10 10 9 10 11 12 11 10 10 12 14 14 13 13 11 11 9 9 12 12 13 11 11 7 9 13 7 7 15 21 29 25 19 11 2 5 14 6 2 4 5 7 3 10
14 14 14 14 12 11 11 12 12 12 12 13 15 15 14 12 10 8 6 8 13 15 17 16 11 12 16 10 7 12 21 26 32 19 15 11 8 3 11 5 2 10 7 5 5
17 17 17 16 16 17 15 13 13 14 14 13 14 16 15 14 11 9 7 4 5 15 20 20 17 16 17 14 6 15 22 27 23 17 15 12 5 4 6 11 3 3 8 9 2
19 19 20 20 19 18 18 19 17 15 15 15 15 15 16 15 11 10 11 10 7 5 11 20 21 21 19 16 12 20 13 22 22 15 13 12 14 8 7 6 3 1 5 8 9
24 23 23 23 23 23 21 21 21 22 20 18 17 17 17 19 15 16 12 10 9 9 9 13 22 22 21 19 17 16 20 23 19 13 14 14 11 20 10 7 8 4 8 5 12
23 25 26 27 26 25 25 24 24 23 25 26 25 22 20 19 19 18 16 13 10 10 10 13 18 19 23 17 16 21 23 26 19 12 17 16 15 18 12 13 11 6 8 8 12
22 22 22 22 24 25 27 28 27 27 26 26 28 31 29 15 14 18 23 16 12 9 12 12 13 16 17 21 19 22 23 25 19 17 16 15 20 22 21 17 14 10 9 11 9
21 20 21 21 23 23 22 22 26 30 29 28 29 32 37 24 21 22 23 22 19 12 11 13 15 13 12 18 25 25 24 31 19 20 11 19 27 28 20 18 15 11 13 11 6
21 21 21 22 23 22 21 21 24 25 28 30 31 32 35 27 28 16 22 23 20 18 13 14 19 16 14 19 23 26 27 24 17 9 21 24 31 21 23 20 18 16 19 12 6
22 23 23 24 25 24 21 21 22 25 26 26 30 31 25 17 13 15 14 21 23 18 18 19 23 23 22 20 24 24 24 21 26 17 27 19 16 17 20 21 22 18 21 15 13
23 23 23 23 24 24 21 22 23 23 25 26 25 31 30 25 20 23 15 18 26 22 22 15 18 22 23 21 20 21 25 30 27 26 27 18 14 7 8 15 24 23 25 21 16
23 23 22 21 21 19 20 20 23 26 33 21 29 32 32 24 31 26 21 26 26 34 25 28 29 23 17 15 18 20 25 31 30 25 21 20 21 16 14 14 23 25 26 24 20
23 23 22 17 17 15 19 16 17 24 31 30 22 24 26 27 32 29 27 27 32 33 30 34 30 26 30 29 29 29 32 29 32 26 23 20 26 20 12 15 20 22 24 25 18
25 23 22 15 14 14 16 17 16 21 22 13 9 15 19 16 25 28 34 29 23 39 28 32 34 32 32 34 31 33 23 27 32 18 25 25 18 28 19 18 21 25 29 28 23
23 23 19 18 11 11 11 13 13 13 5 6 9 10 27 25 25 9 28 36 31 28 35 38 31 31 33 35 34 39 30 32 31 20 23 27 18 22 17 28 26 22 30 29 25
19 19 13 15 12 10 11 9 8 2 7 6 11 22 21 11 19 29 18 36 35 32 34 33 32 31 34 33 33 36 30 24 19 22 18 27 27 41 30 30 34 27 34 33 27
14 14 13 10 12 7 8 6 3 6 3 5 22 24 19 22 25 22 18 28 34 32 35 33 36 35 37 40 39 36 33 20 7 6 9 22 16 32 31 26 25 28 33 37 28
12 9 10 11 9 6 6 4 6 5 11 21 22 19 15 25 25 29 14 25 33 37 34 34 34 39 38 41 42 37 29 18 7 4 13 27 14 40 34 38 31 26 31 41 31
10 8 9 5 6 7 6 6 5 12 11 21 20 17 14 25 28 27 14 18 15 15 32 40 42 40 40 38 37 37 32 33 24 15 7 12 23 28 30 14 16 18 36 35 31
7 4 2 4 3 7 6 8 9 12 14 15 22 17 29 31 30 23 15 15 17 14 14 13 10 24 39 38 38 41 34 26 20 3 8 11 20 25 11 11 18 26 31 33 27
4 4 2 2 3 4 5 7 9 11 19 27 20 23 24 25 21 17 17 16 20 22 15 7 12 29 25 24 39 37 29 19 25 26 7 3 15 18 18 16 26 26 26 26 25
3 2 4 3 9 9 5 12 14 17 18 15 15 18 23 22 21 17 19 14 21 16 15 8 11 11 23 36 26 13 27 27 29 23 11 19 21 22 24 12 27 30 27 29 25
5 7 2 5 5 10 12 14 12 15 17 21 16 16 19 20 22 19 18 15 15 16 17 14 10 15 12 12 34 36 33 31 34 22 35 22 22 16 11 18 21 27 36 34 28
8 6 9 9 9 14 16 8 15 10 14 20 19 15 14 15 15 18 19 20 15 15 4 19 9 6 10 25 17 6 11 4 6 22 25 38 34 20 19 19 23 27 35 35 30
8 12 11 9 11 12 12 13 17 14 14 18 22 18 16 19 18 14 13 16 12 11 10 16 17 19 22 7 3 4 3 5 4 12 10 15 15 24 26 19 19 23 35 33 34
9 13 13 14 12 14 8 10 14 15 13 16 15 15 14 17 19 24 18 12 13 16 10 9 25 15 21 15 2 2 4 6 3 7 10 4 11 16 14 12 11 12 20 22 20
8 10 13 11 12 14 7 5 10 15 11 12 19 20 19 16 20 23 18 19 18 17 12 11 21 19 14 12 7 8 12 8 4 8 13 8 16 12 13 18 15 18 23 19 10

GFSSW_700_spd_084.txt.gz
Wind_Speed
15 16 16 17 18 18 16 14 12 12 10 9 12 14 14 13 12 13 12 13 15 18 19 16 14 14 17 11 12 13 14 12 16 18 20 24 10 23 20 16 14 7 4 5 9
17 17 18 18 19 19 20 21 20 17 15 14 12 13 16 16 14 14 14 13 12 15 18 20 19 19 19 16 14 14 16 14 12 14 16 18 10 16 20 15 13 8 3 3 9
20 21 21 21 20 21 21 22 22 23 23 20 17 16 14 19 16 16 15 13 13 13 15 19 22 23 24 22 18 17 19 16 18 14 14 16 11 9 18 20 16 9 6 2 10
22 22 23 24 24 24 24 24 24 24 23 23 24 22 19 15 11 14 15 16 15 13 12 14 18 22 26 27 23 23 21 19 21 19 16 18 13 8 8 11 16 11 9 5 7
21 21 22 22 22 22 23 25 26 27 26 25 24 23 25 23 15 15 17 18 18 18 15 17 18 17 21 26 25 27 26 26 25 23 19 22 19 14 12 9 16 17 15 10 1
21 20 21 20 20 20 20 22 23 23 24 25 26 26 26 28 23 19 23 25 21 23 21 19 18 18 21 23 25 28 29 30 28 27 24 23 23 20 11 17 20 16 17 10 5
20 20 21 22 20 20 22 24 23 22 22 22 24 27 30 24 23 23 19 20 24 26 23 20 20 20 20 20 19 21 25 30 31 28 30 29 25 25 18 17 16 14 16 12 9
19 19 19 21 20 18 20 22 22 21 21 23 23 24 26 22 26 28 30 27 26 30 27 23 23 25 22 20 17 16 22 28 25 26 30 31 27 28 16 15 16 17 19 11 10
20 21 22 24 24 23 25 25 25 23 22 20 21 22 21 18 17 25 29 30 32 30 28 28 24 24 23 22 22 24 28 29 27 18 16 17 16 21 13 16 18 19 22 17 11
21 21 22 25 25 25 25 24 23 21 20 18 17 13 9 11 14 14 18 29 33 34 30 29 26 27 24 20 23 23 18 21 23 9 11 12 10 14 13 15 13 15 20 23 17
21 21 23 25 25 25 24 22 20 19 16 15 17 18 16 19 24 19 20 21 28 33 32 30 29 32 27 25 26 27 28 27 26 20 20 13 13 10 12 14 13 12 19 29 22
22 23 23 25 25 26 24 23 20 18 10 6 4 8 12 13 13 13 24 26 25 28 27 30 33 28 24 28 26 26 27 29 27 14 17 22 22 12 11 13 14 13 24 29 28
23 25 23 24 23 21 20 19 17 16 12 5 2 3 14 10 9 5 6 16 27 31 31 31 33 26 26 31 28 28 27 26 27 27 27 22 23 20 17 16 17 12 16 28 31
25 26 23 22 20 18 16 16 16 16 7 1 2 6 12 14 2 11 12 12 17 23 30 30 27 29 30 29 28 31 26 25 28 22 25 23 14 32 21 17 19 16 13 16 29
27 24 21 19 16 15 13 12 11 11 4 5 5 7 11 11 13 10 16 18 16 17 25 34 23 26 28 27 26 32 28 28 26 23 26 23 10 21 20 16 20 25 23 17 16
24 22 17 16 15 13 11 7 6 3 3 3 9 11 9 12 9 12 12 18 15 14 19 30 34 31 23 26 28 26 25 21 21 20 9 24 18 14 19 22 25 27 25 19 16
21 20 16 14 12 11 8 5 2 1 8 11 15 12 11 14 6 12 19 19 5 8 15 23 32 36 27 21 23 21 20 6 6 3 6 14 19 23 23 23 26 25 20 25 23
18 17 16 14 12 8 5 2 1 3 7 14 16 11 6 18 7 6 11 17 17 11 13 12 18 36 31 27 26 26 16 12 5 4 6 24 9 28 23 23 25 22 24 29 29
16 15 15 12 9 5 3 1 3 3 9 15 11 7 7 15 10 14 13 14 17 18 13 5 9 14 28 27 23 19 16 19 24 10 3 13 23 25 16 19 22 25 20 17 30
14 13 12 10 6 4 3 4 3 3 6 11 13 12 15 15 14 15 11 10 17 14 14 6 8 3 10 19 21 18 20 10 4 2 4 15 29 31 26 27 25 18 21 22 12
12 12 11 8 6 3 4 5 4 4 4 10 9 11 14 11 10 13 12 10 15 15 14 14 6 9 11 13 18 16 14 12 11 12 5 8 15 17 29 33 29 20 22 18 18
11 10 9 9 5 4 4 3 6 2 3 4 5 9 10 9 8 6 9 12 14 19 17 13 8 9 13 12 16 18 20 21 18 12 24 23 31 25 30 30 32 29 24 21 10
10 10 9 9 6 5 4 2 4 5 2 3 1 4 7 8 8 8 12 14 11 14 20 13 9 12 6 7 8 11 9 10 20 17 22 13 24 19 23 25 24 26 23 20 14
10 8 10 11 10 9 7 6 8 4 6 3 3 7 8 10 12 12 16 16 15 10 14 14 8 7 8 10 14 16 11 14 18 28 28 26 30 24 21 23 24 27 21 13 10
11 12 14 11 12 13 11 10 11 11 7 8 9 10 11 13 18 18 20 19 15 17 13 6 10 13 11 12 13 13 15 18 17 20 23 25 22 18 24 22 19 20 15 9 11
13 13 13 15 15 14 15 15 14 13 13 9 7 12 13 16 19 27 26 21 18 18 15 12 9 16 18 11 14 13 14 19 19 13 16 16 18 15 11 10 12 9 7 11 16
14 14 14 14 14 16 18 18 17 18 11 8 9 14 15 19 25 28 25 23 17 20 22 20 16 12 18 13 14 2 7 10 10 10 9 9 11 7 4 5 4 7 10 9 12

GFSSW_700_spd_087.txt.gz
Wind_Speed
16 16 17 17 17 18 19 20 18 16 14 12 11 11 12 12 13 12 12 12 13 15 16 17 17 17 16 15 13 11 11 11 8 12 13 17 21 11 13 19 23 18 10 7 5
17 18 18 18 18 19 19 19 18 19 21 19 16 15 14 14 14 13 13 14 13 13 15 16 18 20 20 20 17 14 16 14 10 10 13 13 16 13 11 15 15 15 11 6 4
20 21 21 21 21 21 21 21 21 20 18 18 21 22 19 16 16 17 16 13 13 12 13 15 18 21 23 23 22 22 22 17 17 13 11 13 12 12 12 10 11 11 9 6 4
20 21 21 21 20 20 22 22 22 21 21 21 21 20 23 21 14 14 14 14 14 13 11 11 13 17 22 23 23 24 26 22 24 20 18 16 15 15 13 11 11 14 10 11 8
18 19 19 19 19 19 20 20 19 19 21 22 22 21 21 23 21 16 17 18 18 17 16 17 18 18 20 20 20 22 25 26 25 26 26 21 21 20 16 12 15 16 14 14 13
18 18 18 18 18 18 19 20 19 19 18 17 19 21 24 24 20 22 23 21 23 21 22 23 21 21 23 24 22 21 20 22 26 27 28 28 26 20 14 19 17 19 14 16 15
17 17 17 16 16 16 16 16 16 16 17 17 19 19 20 15 22 21 20 23 22 25 25 23 20 18 18 20 22 20 21 25 26 26 29 27 29 21 21 23 20 20 13 15 18
17 17 18 19 18 18 19 19 19 18 16 14 14 16 18 15 17 24 28 28 27 24 25 25 22 24 23 20 19 15 17 17 21 20 20 21 26 24 23 26 22 22 20 14 19
18 18 20 21 23 23 22 21 20 19 17 15 13 12 11 11 10 14 23 30 32 33 31 30 26 26 26 20 18 20 19 18 21 15 16 15 17 17 20 18 18 21 24 17 22
21 21 22 23 25 23 22 21 19 17 13 13 8 5 6 12 15 16 15 21 28 30 32 33 29 27 27 21 20 19 18 11 11 18 18 21 24 19 14 18 18 20 26 19 21
21 21 22 23 25 23 19 18 15 10 12 10 8 5 7 8 14 14 22 21 20 25 27 28 28 30 31 28 27 28 26 19 20 20 23 16 19 18 15 14 11 14 14 15 18
21 20 22 23 25 22 20 18 15 10 7 4 2 3 4 7 5 7 8 16 22 23 22 25 31 29 25 26 29 28 24 21 23 11 19 22 23 17 14 11 8 8 9 17 21
20 20 22 23 22 21 19 17 13 10 3 4 3 1 8 3 3 7 8 10 14 23 28 30 22 18 22 27 31 26 22 23 21 23 22 21 19 19 14 13 9 9 9 16 24
22 21 21 20 18 18 16 14 11 8 1 3 3 5 7 10 4 10 15 15 16 15 18 27 36 31 27 26 27 26 22 26 26 22 19 13 17 21 17 14 11 10 10 9 16
23 21 20 18 16 15 13 11 8 9 0 2 3 7 7 8 9 8 14 17 19 18 17 20 22 26 27 28 26 28 24 23 18 18 18 14 9 14 15 14 10 7 10 14 19
22 20 18 16 14 13 12 11 8 3 1 3 6 8 7 8 7 7 9 14 12 16 18 21 19 19 25 24 18 18 14 18 16 17 12 13 13 9 7 10 9 9 12 17 18
20 18 16 14 12 10 9 6 3 1 5 8 8 14 10 7 4 5 6 11 17 12 13 19 15 17 29 22 19 12 9 8 7 7 11 12 8 10 12 9 11 13 13 14 16
18 17 15 12 11 9 6 3 1 1 4 11 13 8 3 13 3 5 4 12 17 20 15 8 10 14 17 34 25 20 16 12 9 7 9 12 11 10 13 11 15 16 15 20 24
16 14 12 11 9 7 5 1 3 0 4 8 6 5 5 10 5 9 8 10 13 21 15 8 9 15 15 18 24 19 16 18 18 10 8 11 15 17 11 12 11 13 16 22 21
14 12 11 10 7 5 4 4 4 2 1 5 6 8 10 10 8 10 6 8 11 18 19 10 13 12 9 10 19 19 15 10 9 8 11 13 18 20 26 24 19 15 17 18 24
13 12 11 9 8 5 5 5 7 2 2 1 3 5 7 8 9 9 6 12 12 19 20 17 10 14 16 9 9 9 12 14 11 8 7 12 20 24 28 27 22 23 26 30 30
13 11 10 9 7 4 5 6 8 5 3 2 2 1 4 6 7 8 10 11 17 18 21 15 14 12 18 18 10 6 8 13 15 10 16 16 26 18 20 21 20 23 23 24 28
12 11 11 9 6 5 5 6 6 7 5 3 5 3 4 6 7 8 13 16 17 19 19 16 10 13 16 6 5 7 8 11 12 18 24 17 11 14 16 20 23 24 23 20 20
12 8 9 11 11 8 8 8 8 6 4 5 6 6 8 10 9 13 17 21 19 19 19 16 16 13 11 12 15 24 17 13 15 10 20 31 24 20 23 23 26 17 19 17 12
12 11 12 10 9 9 10 9 9 8 8 7 8 11 11 12 15 16 22 26 21 18 13 15 14 17 17 14 19 21 20 17 8 8 9 22 20 28 21 17 14 12 12 11 10
13 12 13 14 14 13 12 13 13 12 10 9 9 10 10 12 12 21 23 25 29 20 17 21 10 18 18 22 22 19 18 18 19 16 17 10 10 16 10 8 8 2 5 5 6
15 14 13 14 14 13 14 15 17 17 14 14 12 11 11 13 17 22 26 29 29 25 22 22 17 14 18 17 17 16 11 13 14 22 19 20 16 10 8 5 5 4 5 3 4

GFSSW_700_spd_090.txt.gz
Wind_Speed
17 17 17 17 16 17 17 17 18 19 20 18 16 14 13 13 14 14 14 13 13 14 14 15 17 17 16 14 14 12 8 9 6 5 6 10 15 11 9 7 13 17 12 11 10
18 18 18 18 19 19 20 19 18 18 18 19 21 21 18 15 15 16 14 13 14 15 15 15 16 17 16 15 16 13 13 13 9 9 10 11 12 13 11 10 11 10 11 7 7
19 19 19 19 19 19 20 20 19 19 19 19 20 21 22 20 18 19 17 14 13 13 13 14 15 16 17 14 13 12 19 15 15 15 14 13 12 11 10 9 11 9 11 7 6
15 16 17 17 16 16 16 16 16 17 19 20 20 20 20 20 9 15 15 14 14 13 13 12 13 13 15 14 12 20 22 20 21 18 16 16 17 14 13 13 10 7 9 12 11
15 15 16 15 14 15 16 16 14 13 13 16 18 20 21 20 19 20 19 15 15 15 13 11 14 12 13 13 14 17 21 21 21 18 21 22 20 20 19 14 13 17 13 9 12
14 14 14 13 13 12 13 13 12 12 11 14 15 16 17 18 22 21 21 24 20 20 20 20 19 15 19 17 17 16 17 18 20 21 21 22 23 16 17 17 19 19 18 12 13
15 15 14 13 12 13 14 13 13 12 12 12 13 14 15 14 17 20 19 20 24 22 23 22 22 22 14 14 14 16 16 16 18 20 21 21 22 22 22 20 21 24 20 15 14
15 16 15 14 14 15 16 16 15 14 13 11 11 11 11 11 15 18 22 24 24 26 24 23 22 21 19 17 18 15 15 17 13 13 13 13 23 21 16 17 22 24 22 18 18
16 17 17 16 16 16 17 16 15 14 12 9 8 7 9 10 12 15 20 22 30 31 30 29 27 24 18 20 21 19 22 21 17 12 12 13 17 15 15 17 21 22 23 19 19
16 18 18 18 18 19 19 16 14 14 10 9 1 1 5 9 11 14 15 17 19 25 30 30 27 21 22 23 28 25 24 19 17 13 17 21 24 21 18 20 21 22 28 22 19
16 18 19 20 20 20 17 14 11 10 9 6 5 6 2 3 6 8 11 18 16 15 15 17 20 28 28 28 28 28 27 24 23 23 20 23 21 20 17 18 16 19 26 24 20
18 18 20 20 20 18 15 12 8 7 4 4 2 2 4 2 5 7 9 6 11 17 15 18 23 24 24 25 26 26 27 28 29 25 16 20 24 23 18 15 14 15 14 12 20
17 17 20 18 17 14 13 12 9 7 4 6 5 4 4 3 3 6 7 8 7 9 12 21 23 15 18 22 26 29 28 28 28 24 23 23 25 20 15 16 14 13 12 8 15
15 16 16 17 15 14 13 12 9 6 2 3 3 6 4 5 1 5 8 8 8 9 12 17 17 18 24 27 25 31 26 26 26 26 27 15 21 20 18 17 14 14 13 8 5
17 16 17 16 15 14 12 10 7 6 4 4 3 6 5 2 4 6 11 11 9 11 11 14 13 15 19 22 22 31 25 26 23 25 26 27 19 20 16 17 16 15 14 11 8
17 15 15 15 13 13 11 9 5 1 2 1 3 6 5 5 5 6 7 11 8 9 9 14 14 18 20 19 20 21 21 24 22 23 23 26 27 22 19 14 14 16 14 13 12
18 16 14 13 12 11 9 5 2 4 3 2 3 8 3 6 2 6 4 7 8 13 11 16 13 13 15 19 17 16 20 21 18 19 17 26 30 19 14 11 10 10 16 16 15
18 16 14 11 9 7 5 3 4 2 1 5 6 5 1 6 3 6 5 5 9 12 16 12 14 9 11 14 20 22 23 23 18 14 17 14 16 21 14 13 10 8 10 15 14
16 15 12 9 7 5 3 4 2 2 2 3 3 2 2 6 4 5 6 4 6 12 13 13 12 16 12 12 13 17 17 22 26 25 20 24 18 16 16 17 13 12 11 11 13
16 14 11 9 5 4 1 7 3 6 2 2 1 2 4 6 5 6 4 3 7 10 13 11 17 13 13 15 13 12 18 20 23 18 19 19 23 21 17 20 22 17 20 17 16
15 13 11 8 6 3 5 6 5 5 5 2 2 2 3 4 6 6 4 8 9 12 13 14 11 17 17 12 15 14 14 20 26 21 9 14 20 24 18 23 29 22 26 17 17
15 7 10 8 4 4 4 8 9 4 5 4 4 4 4 6 7 8 6 8 14 14 19 12 13 18 19 20 11 7 7 14 18 16 21 25 27 11 19 24 19 18 17 17 16
14 13 12 8 3 5 7 6 8 5 6 5 5 6 7 7 8 6 9 11 14 15 15 17 13 20 19 12 9 2 8 13 16 25 27 20 28 12 18 16 16 17 16 16 15
14 6 10 9 10 9 6 7 5 9 9 11 8 8 9 9 10 10 15 13 18 18 20 15 16 18 21 25 20 18 14 14 10 18 31 26 20 5 17 17 16 16 20 16 10
13 11 10 5 6 7 9 9 6 6 9 9 8 9 10 12 12 16 14 18 17 17 10 12 17 18 22 21 21 21 20 19 16 18 14 28 34 13 22 18 14 12 8 7 6
14 12 13 15 14 12 10 8 9 9 10 7 9 12 10 12 13 18 19 20 23 20 15 16 20 17 23 23 23 23 22 20 18 16 17 17 24 17 19 14 7 6 5 2 7
15 14 14 15 14 11 11 9 8 13 11 15 12 13 12 14 16 18 21 25 24 24 21 18 14 14 21 17 18 20 17 11 13 13 14 15 14 14 10 7 8 9 8 7 7

GFSSW_700_spd_093.txt.gz
Wind_Speed
19 19 18 19 19 19 20 20 19 19 19 20 20 19 17 14 13 13 14 14 14 14 13 15 17 17 16 13 13 11 13 18 12 4 8 10 10 10 7 3 4 3 2 7 11
20 20 19 19 19 20 20 20 20 20 20 20 20 21 21 20 18 16 16 14 13 14 15 14 14 15 15 12 13 13 16 20 13 13 13 12 10 9 7 7 6 2 5 10 8
17 16 17 17 18 18 18 18 18 19 20 21 20 20 20 21 20 18 20 15 14 14 12 12 9 11 13 13 16 17 20 20 21 16 14 16 13 12 11 11 8 6 8 10 9
15 13 13 13 14 14 14 13 13 14 16 18 20 20 19 18 7 16 18 19 16 13 12 12 11 12 12 14 15 20 20 23 23 22 20 19 17 16 13 13 13 8 16 11 12
12 11 10 10 10 11 10 9 8 9 12 14 16 17 17 18 15 26 22 18 15 14 12 12 12 13 15 16 16 19 20 21 22 23 23 22 22 20 19 14 13 8 15 13 10
12 12 12 11 10 10 10 9 9 9 9 11 12 14 14 12 25 25 23 22 22 19 16 15 15 15 18 20 19 20 22 24 23 24 24 24 25 23 21 16 14 11 12 12 12
13 13 12 11 11 12 12 11 12 11 11 11 11 10 11 10 20 19 21 21 21 19 17 15 17 19 19 17 16 19 22 23 22 21 21 21 24 24 23 23 23 16 13 15 16
15 14 14 13 12 12 13 14 13 11 10 10 10 10 6 12 16 18 18 18 20 20 23 20 17 20 22 22 25 26 26 28 21 16 16 15 21 18 18 18 19 18 17 18 19
15 15 14 13 12 13 14 14 12 9 8 6 7 5 4 8 7 13 15 15 14 16 19 22 23 22 19 23 26 25 32 27 24 18 17 20 22 16 16 17 20 21 22 21 21
14 15 14 14 14 14 14 13 10 8 5 4 1 2 6 7 10 10 12 14 17 11 14 17 19 22 24 24 31 27 27 28 28 17 21 19 24 22 21 20 22 23 21 24 23
14 16 15 14 14 14 13 11 10 9 6 5 9 9 8 6 5 7 7 6 12 12 16 14 14 24 23 25 28 31 31 33 31 28 22 28 30 25 21 20 20 21 21 24 24
15 17 16 15 14 13 12 10 8 8 6 5 3 1 5 4 5 6 8 2 7 12 13 15 22 19 20 23 28 29 32 34 32 29 30 33 31 27 25 25 22 20 18 21 23
15 16 16 15 13 11 10 9 8 7 4 8 7 5 4 3 4 4 4 7 7 11 12 17 20 19 16 21 24 27 30 32 33 30 31 31 31 27 26 24 19 20 19 19 22
17 17 15 14 12 10 9 8 5 4 2 4 1 5 1 5 4 8 5 6 6 11 12 15 14 17 19 23 24 29 25 28 29 29 28 27 30 30 20 20 18 21 18 19 20
17 17 15 13 11 9 8 7 5 3 5 3 3 7 4 4 7 9 7 4 8 11 11 15 15 15 18 19 19 26 24 27 29 30 30 30 25 31 21 23 20 19 20 19 21
18 15 14 13 11 10 8 6 4 1 2 1 2 4 4 7 7 7 7 8 8 7 12 12 14 17 15 16 19 21 22 24 26 28 27 28 31 33 29 23 18 17 17 6 11
20 17 14 13 10 8 6 3 5 7 3 2 3 7 5 5 6 5 5 5 6 12 13 15 9 10 11 14 16 18 19 22 20 19 17 27 32 33 23 20 18 11 4 3 6
20 18 15 12 10 7 3 4 7 3 3 6 6 5 3 5 4 5 5 6 4 10 15 12 16 10 11 17 19 18 21 22 21 17 18 24 24 28 25 18 9 8 8 6 5
19 17 14 11 8 5 0 6 5 4 5 6 7 4 3 3 2 5 5 7 6 7 10 15 16 20 16 16 16 19 20 24 31 31 26 30 14 18 11 15 14 14 11 9 8
16 15 12 10 7 3 3 9 7 6 5 4 6 4 5 4 5 5 5 3 6 8 12 16 25 19 16 19 14 13 17 22 19 18 19 16 25 20 19 25 23 22 16 10 12
15 10 11 9 6 3 6 6 6 7 4 4 5 6 6 5 5 7 5 8 6 12 14 17 18 21 18 18 20 17 21 14 30 12 11 14 16 23 21 6 5 10 11 14 21
12 3 16 9 4 6 7 7 11 6 7 5 7 8 8 7 9 8 7 7 12 13 16 13 19 24 25 21 18 21 13 15 17 13 20 26 19 7 11 14 12 13 24 23 18
13 10 15 6 2 9 11 7 7 7 8 6 7 8 7 8 8 5 8 10 13 13 15 14 14 23 20 19 9 16 24 22 22 18 28 10 26 33 20 21 7 12 14 9 15
12 5 9 6 9 9 9 10 11 10 9 11 10 10 10 11 10 13 14 15 13 14 19 14 14 17 23 29 29 19 19 22 19 23 17 29 19 26 33 37 12 13 11 14 14
8 6 10 4 5 7 9 9 8 10 10 9 9 11 12 13 14 15 15 14 16 15 15 16 19 19 22 25 27 29 26 23 24 19 13 17 22 22 15 23 16 7 9 13 12
7 8 10 12 14 13 12 10 13 13 14 12 13 11 12 14 14 18 17 16 19 20 17 18 25 22 24 22 22 27 24 26 23 25 21 17 23 17 12 14 14 14 12 7 9
16 14 13 10 11 11 10 14 12 11 13 14 15 14 14 14 15 16 20 22 22 22 21 19 19 19 25 19 21 24 22 19 15 15 18 16 20 27 16 14 13 14 15 9 8

GFSSW_700_spd_096.txt.gz
Wind_Speed
21 22 22 22 21 21 20 20 20 20 20 19 20 20 19 18 16 15 13 14 12 14 13 12 12 12 13 15 16 16 23 22 6 10 9 13 10 11 10 4 2 6 1 12 11
20 21 21 21 21 21 21 21 21 21 20 20 20 20 19 21 21 20 19 15 13 13 13 13 12 8 12 15 14 16 22 25 21 24 23 15 12 10 13 12 1 5 2 14 12
16 16 14 14 16 17 17 17 17 18 19 19 20 20 19 19 19 21 20 20 16 12 12 10 8 10 13 14 15 19 24 25 28 25 22 19 19 15 14 12 11 13 7 14 18
13 12 11 10 10 10 10 10 12 13 14 15 17 17 18 16 5 12 14 17 15 15 13 10 11 13 15 14 14 20 21 22 24 24 24 23 20 20 16 16 14 11 10 15 16
11 11 11 11 11 10 10 10 10 10 10 11 12 13 14 15 13 25 22 20 19 16 11 11 13 14 16 16 17 20 21 21 22 24 23 22 22 22 21 18 15 8 9 17 22
12 12 12 11 11 10 10 11 11 11 11 11 11 11 12 9 15 25 25 20 19 19 16 12 14 14 19 21 22 22 24 26 25 25 25 24 24 22 21 20 18 14 14 16 20
14 13 12 12 11 11 10 11 12 12 12 11 11 11 10 8 15 21 19 15 17 19 16 13 15 19 20 23 22 23 26 23 24 25 25 22 22 20 18 17 21 20 15 14 18
15 14 13 12 12 12 12 12 13 12 11 11 10 10 7 12 15 16 13 11 10 10 13 18 18 19 20 22 25 27 28 32 25 23 21 16 22 15 13 16 18 19 20 15 19
14 14 13 13 13 12 12 13 12 10 8 7 7 6 4 11 7 8 7 9 12 16 16 14 16 21 19 22 25 22 28 26 24 18 18 16 19 21 17 15 17 17 14 15 20
15 14 13 13 13 12 12 11 10 9 5 4 3 2 8 5 12 8 7 10 10 13 13 15 15 17 19 20 27 24 25 27 28 24 26 23 21 19 16 21 18 20 23 25 23
14 14 13 12 12 12 11 9 9 7 7 7 10 9 8 10 6 6 5 4 8 11 12 14 17 18 18 20 25 30 31 33 31 29 30 31 30 25 25 24 24 23 24 25 25
16 16 14 11 11 11 9 8 7 8 11 8 8 6 10 4 3 6 10 1 5 8 10 14 20 19 21 21 23 25 29 33 32 28 28 30 33 30 29 28 27 26 24 23 24
16 16 15 12 12 10 10 9 8 9 11 7 6 7 6 4 3 5 6 5 9 12 13 18 19 18 19 22 24 26 29 30 31 29 28 30 36 34 30 26 27 28 25 25 22
17 16 16 15 12 11 9 8 7 7 4 6 5 2 3 5 8 8 5 7 7 11 13 17 14 14 17 21 20 26 24 27 29 30 34 26 27 30 26 27 27 15 17 23 24
19 18 16 15 13 11 9 6 4 3 4 5 4 9 4 5 7 8 7 6 9 10 13 16 16 17 18 20 20 26 23 25 27 31 34 32 27 32 23 25 23 21 23 25 26
20 18 16 13 12 10 8 4 1 0 3 1 3 3 5 10 6 9 10 14 7 8 13 19 14 16 21 15 17 20 23 24 25 28 24 31 30 32 30 26 27 27 22 16 21
20 18 15 13 12 8 5 2 5 7 1 2 1 6 9 7 9 9 8 9 10 10 13 16 12 9 8 13 14 20 24 22 20 18 16 27 28 27 25 22 21 10 6 6 7
19 17 15 12 10 6 1 4 6 4 3 4 9 10 8 4 6 7 9 10 6 6 14 11 15 14 16 19 23 21 20 19 18 16 20 35 21 22 24 24 12 18 8 4 7
20 19 15 8 7 5 2 6 8 6 5 8 11 8 6 4 4 8 7 9 7 7 9 15 19 21 18 20 19 22 21 23 27 30 28 27 29 11 18 12 13 17 8 10 16
17 16 11 10 7 3 4 9 10 7 9 8 10 5 10 5 8 5 7 3 7 6 11 16 27 20 18 18 17 18 22 23 17 10 11 19 28 15 17 7 24 14 15 12 18
16 10 16 12 9 5 8 8 7 9 8 4 7 8 9 9 8 9 8 9 4 7 13 17 16 21 20 17 21 20 18 12 11 10 7 5 13 11 18 21 23 20 15 20 17
13 3 19 14 8 6 8 5 11 10 9 7 8 9 10 11 10 11 11 7 9 13 15 12 16 21 24 20 14 10 6 14 9 13 21 14 25 24 22 27 35 28 27 10 27
14 12 10 9 6 9 9 11 12 9 9 9 9 7 9 9 11 7 9 10 12 13 10 14 16 24 19 18 7 20 19 16 18 15 20 2 20 22 37 32 29 38 40 39 11
13 5 7 8 9 12 12 12 13 12 11 12 13 12 12 13 12 15 14 14 14 12 15 18 13 19 23 24 26 29 26 24 21 15 29 25 25 12 24 21 23 37 32 30 10
6 3 9 7 6 9 9 11 14 12 12 9 10 11 13 15 15 15 15 16 14 14 16 15 20 21 25 27 28 30 30 28 27 29 32 28 10 11 16 14 16 22 19 38 16
8 8 10 12 14 16 16 16 15 13 15 17 18 14 14 12 14 18 17 15 16 17 18 15 23 23 29 26 26 30 30 30 30 24 31 15 9 15 10 14 15 17 16 18 11
8 11 12 12 11 13 14 14 14 14 13 14 17 17 15 13 15 17 19 21 23 22 20 19 21 22 29 23 25 26 15 17 20 24 13 18 8 10 18 20 22 18 15 14 9

GFSSW_700_spd_099.txt.gz
Wind_Speed
21 21 21 22 21 20 19 19 19 19 19 18 19 17 18 19 19 18 13 13 12 11 11 12 12 11 13 14 8 7 18 23 9 12 12 23 23 24 8 2 3 4 9 13 16
19 17 18 17 16 16 18 18 18 18 18 19 19 18 18 17 19 21 16 17 14 12 11 10 9 12 13 10 9 10 20 22 22 19 21 24 26 23 15 3 7 6 3 9 14
15 15 14 13 12 12 12 13 13 13 14 14 15 16 17 17 17 18 15 18 17 15 12 11 11 6 13 10 13 13 22 21 20 19 24 23 21 19 14 17 14 12 10 6 10
12 12 11 11 11 10 10 11 11 11 10 10 10 11 13 13 8 12 11 8 11 12 12 13 13 10 11 17 15 20 23 25 24 19 20 24 23 18 19 19 18 13 13 7 8
12 12 11 12 11 10 10 10 10 10 11 10 10 11 11 10 9 18 19 18 14 14 11 9 10 9 14 14 17 22 24 25 23 22 24 22 20 20 19 17 14 20 17 15 9
13 13 12 12 12 11 11 11 11 11 12 11 11 11 12 9 12 13 15 16 15 15 13 13 11 10 16 20 23 22 25 24 25 28 25 26 25 23 20 13 18 22 23 20 16
14 13 13 12 12 11 11 11 13 13 12 11 10 11 10 8 12 17 15 7 10 10 14 10 1 11 18 22 22 23 29 28 28 21 23 22 29 23 14 15 12 22 26 25 19
14 13 13 13 12 12 11 11 12 12 11 9 9 9 10 5 7 11 15 14 5 5 8 8 14 21 21 21 23 22 23 29 14 19 18 21 32 20 14 10 14 14 28 27 21
14 14 13 13 12 11 11 11 11 10 9 8 7 6 7 7 6 8 8 4 4 8 10 12 10 16 21 19 24 20 30 29 32 28 27 25 26 15 18 17 15 15 17 21 23
14 14 13 13 13 12 11 11 10 10 6 4 4 0 8 2 11 11 7 6 9 6 11 10 12 16 15 14 25 22 22 25 30 30 33 32 32 27 19 16 16 17 15 18 19
16 15 14 14 13 12 12 10 10 10 5 10 11 6 1 16 8 6 10 6 3 10 12 7 15 21 18 20 25 26 29 30 30 27 29 32 33 29 26 24 21 22 27 24 28
17 16 14 13 12 12 11 10 10 10 9 9 8 5 6 8 3 4 9 7 8 9 6 8 16 18 18 19 22 24 27 31 31 27 28 29 30 32 30 28 27 29 26 29 26
18 17 15 13 12 10 11 10 10 12 14 9 2 1 2 7 3 2 7 3 11 14 13 20 22 22 19 20 19 19 24 28 30 27 23 26 31 28 27 27 28 29 31 30 33
19 18 15 13 11 10 8 8 9 10 6 1 5 3 4 3 7 3 13 10 7 9 10 16 15 15 18 16 17 22 20 26 30 30 26 26 30 33 31 32 28 31 33 34 35
19 18 16 14 12 11 9 7 7 6 4 4 4 5 4 5 4 10 8 8 10 9 10 11 11 14 15 16 17 18 23 21 26 25 28 26 25 35 28 30 31 27 27 21 31
20 18 16 14 12 10 7 4 2 2 3 2 3 3 7 11 6 7 11 19 14 9 8 19 16 16 18 12 7 15 19 23 25 26 14 30 27 29 31 19 17 15 12 20 21
19 18 16 14 12 8 5 2 2 3 1 5 2 3 8 7 6 7 10 11 17 13 15 16 13 11 11 17 15 22 23 13 11 10 6 29 26 9 13 15 16 10 5 9 8
20 16 14 12 8 5 3 1 1 8 9 2 4 8 12 6 6 6 9 14 10 3 4 8 14 20 20 17 25 23 24 13 6 4 9 30 22 10 15 8 11 7 16 15 12
18 15 11 7 5 4 3 2 5 8 9 7 9 9 14 9 4 5 10 11 5 4 1 8 9 18 14 22 16 20 20 23 26 23 17 6 18 13 11 15 15 15 12 25 20
18 14 11 6 8 6 5 4 7 9 12 13 6 6 12 10 7 9 6 6 4 4 5 9 23 21 18 17 12 18 18 11 12 5 4 8 13 11 25 36 36 31 31 27 31
14 10 12 12 12 9 8 7 11 7 13 9 7 11 9 10 9 8 7 9 3 8 8 11 14 20 19 19 20 14 13 13 10 10 3 3 4 11 27 30 29 33 32 38 36
11 8 8 12 11 3 3 12 12 14 11 10 10 9 11 11 14 11 11 8 9 10 11 9 12 19 27 18 17 14 16 15 8 13 19 18 13 24 22 22 28 32 29 27 33
11 8 9 11 10 6 14 7 7 11 8 8 10 10 9 11 14 9 13 15 16 16 14 15 9 20 21 17 5 18 23 22 27 22 21 10 15 19 19 25 23 20 23 30 36
9 2 5 7 9 14 14 10 10 8 11 14 12 14 15 13 12 17 18 16 13 18 12 11 7 14 17 22 26 33 33 27 25 32 33 29 38 26 15 19 17 21 24 32 42
6 6 9 10 14 11 10 11 11 11 9 10 13 11 10 15 17 20 19 15 17 14 12 11 15 18 23 24 25 30 30 29 30 18 16 16 11 6 10 22 23 25 26 29 30
11 14 19 17 18 16 13 15 15 13 13 15 16 13 14 14 15 13 15 20 19 24 25 22 23 21 27 24 26 29 28 17 21 19 16 15 15 8 12 28 24 26 21 19 19
20 19 18 16 16 10 7 12 18 18 14 12 14 15 17 17 19 16 15 21 29 30 25 20 21 24 33 24 27 24 12 11 16 21 21 18 18 16 18 23 27 23 15 12 11

GFSSW_700_spd_102.txt.gz
Wind_Speed
17 17 16 16 15 13 14 15 16 16 17 17 17 16 16 17 19 18 12 12 10 8 6 7 9 10 11 10 2 1 6 10 13 16 18 21 28 23 24 17 7 5 2 9 17
14 13 13 13 12 11 11 11 11 11 12 14 14 15 16 16 16 14 16 16 13 11 9 8 6 10 11 5 2 6 12 9 16 24 30 26 24 26 27 11 9 7 4 3 11
12 12 12 11 11 10 10 9 9 9 9 8 8 9 11 12 13 13 13 13 16 15 13 11 10 11 10 4 3 8 15 17 25 22 22 21 21 22 22 11 18 11 11 6 8
12 12 12 12 11 10 10 9 9 9 9 9 9 8 8 8 5 6 4 4 6 10 11 11 11 14 13 9 1 16 17 23 24 24 18 21 20 21 21 16 23 12 8 13 11
12 12 12 12 12 11 11 10 10 9 10 10 10 9 8 7 7 10 10 10 8 10 9 9 10 11 8 9 12 21 23 25 26 23 20 18 19 19 17 12 23 21 17 17 17
13 13 12 13 12 12 11 11 11 10 11 10 10 9 8 10 7 8 6 7 7 9 10 11 8 8 11 14 18 24 26 26 25 24 21 17 21 21 11 15 31 31 27 24 23
13 13 13 12 12 11 11 11 11 11 11 10 9 8 7 7 8 10 9 6 6 4 7 9 5 10 13 15 17 23 25 25 19 13 17 17 27 24 27 22 21 27 23 24 22
14 13 13 12 12 12 11 11 11 10 10 8 7 6 5 4 8 7 8 6 3 1 3 9 14 13 15 19 22 24 24 17 10 20 21 23 26 25 27 14 15 16 17 20 26
14 13 13 12 12 12 12 12 11 10 9 8 6 4 3 5 3 9 10 7 4 3 3 2 3 6 11 17 18 10 12 16 23 23 30 27 29 24 23 16 15 23 17 18 20
14 13 13 12 11 11 10 10 10 10 10 4 5 3 4 5 8 9 8 7 6 3 5 7 7 10 10 9 10 15 21 24 27 28 27 26 30 26 23 19 14 17 19 18 19
15 15 14 13 12 11 11 11 11 11 5 9 9 10 13 4 7 2 9 8 10 8 6 5 9 7 14 15 19 23 29 33 28 25 21 22 27 28 27 21 22 19 23 24 25
16 15 15 14 13 12 11 10 10 10 7 9 8 5 5 2 3 2 5 5 5 7 9 7 14 15 22 23 26 27 31 34 21 25 28 28 28 24 25 25 20 20 23 27 26
16 15 14 13 13 12 11 11 11 11 12 4 1 1 2 4 2 2 4 7 13 13 9 16 19 14 17 18 16 16 13 19 25 26 22 24 28 25 21 23 26 28 25 26 31
17 16 13 13 11 11 10 9 9 8 4 4 5 10 5 4 2 2 4 10 10 12 8 9 11 12 15 16 15 23 18 21 19 24 30 26 16 28 32 33 27 25 28 29 32
17 15 15 12 10 9 7 8 7 3 3 0 6 7 4 4 3 5 1 8 10 11 7 4 17 21 18 20 15 11 11 10 14 20 26 21 19 11 10 13 13 14 14 13 19
18 17 14 12 10 7 6 5 4 2 1 1 3 2 6 8 8 9 7 9 13 11 8 11 13 7 12 5 8 15 17 20 20 20 9 19 18 6 16 15 17 17 17 13 12
18 17 14 12 9 7 6 2 2 5 2 2 2 1 8 7 8 6 10 12 14 20 19 13 14 15 13 19 18 20 24 14 7 6 7 13 19 3 12 16 16 25 20 19 21
17 16 14 12 9 8 4 1 2 6 3 1 2 5 8 4 6 5 8 14 12 3 7 6 10 13 19 17 18 17 16 8 5 3 9 11 4 3 11 16 19 22 24 21 18
16 15 10 6 9 7 3 5 5 7 9 12 8 10 9 7 3 4 7 6 2 6 6 6 7 15 20 20 16 16 15 17 14 14 5 4 12 24 12 17 23 29 30 26 22
16 12 3 6 6 4 1 4 7 4 9 11 7 4 8 6 4 7 3 7 3 5 6 7 14 19 25 23 13 12 14 8 9 3 4 7 19 18 24 29 32 27 24 30 24
15 9 6 6 4 5 2 3 6 6 15 11 8 12 12 10 8 7 3 4 8 13 16 17 15 20 27 22 19 16 14 11 12 10 4 3 14 27 23 26 25 30 30 24 22
11 6 5 6 7 4 4 9 12 9 13 11 7 6 7 10 13 9 9 6 11 17 20 16 14 13 22 17 4 10 16 19 17 13 17 16 21 19 17 24 24 26 26 21 26
9 1 2 4 5 5 8 9 8 8 4 7 8 11 13 12 11 8 14 16 15 17 10 8 7 13 15 14 2 21 22 21 25 20 17 8 12 17 20 21 22 22 25 28 29
8 8 10 10 13 13 13 10 11 7 3 5 7 12 14 20 18 12 14 13 16 14 6 6 3 6 8 15 19 25 24 26 29 30 24 16 11 10 13 15 19 24 23 27 27
12 11 14 16 16 14 12 11 10 11 12 10 10 11 10 12 15 15 16 19 20 23 16 15 15 18 19 23 19 21 24 23 19 13 13 16 16 17 14 17 20 27 30 27 17
18 19 20 19 18 20 16 13 6 6 12 15 15 15 11 12 10 12 15 17 23 26 28 29 27 27 30 14 18 24 25 22 13 15 19 17 19 19 17 19 20 23 28 26 19
22 20 22 20 19 20 17 11 11 13 12 15 18 18 17 18 19 18 23 23 25 29 30 32 35 30 28 20 28 18 19 12 14 16 22 21 20 20 18 25 26 25 24 22 18

GFSSW_700_spd_105.txt.gz
Wind_Speed
13 12 11 11 10 9 8 8 10 11 12 13 15 15 15 16 17 16 12 13 13 9 7 6 9 10 9 6 2 4 3 3 7 14 18 28 26 20 28 27 16 16 3 3 11
12 10 10 10 9 8 7 7 7 8 7 7 7 9 11 12 13 12 14 15 15 12 10 9 10 9 9 8 5 6 6 5 13 20 22 20 22 22 22 14 9 15 11 7 9
11 11 11 10 10 9 8 8 8 8 7 7 6 5 5 5 6 9 11 11 14 15 15 12 12 11 9 6 6 8 10 14 18 14 21 22 20 18 19 15 12 15 17 13 10
12 12 12 11 11 10 9 9 8 8 8 8 7 7 6 4 1 1 2 4 7 12 13 13 14 12 11 12 6 13 14 19 21 20 21 22 20 18 20 21 25 14 11 16 16
13 13 13 13 12 11 10 9 8 8 9 9 7 6 5 4 4 3 1 6 9 11 12 12 10 11 12 12 15 15 19 21 21 21 23 24 21 23 17 16 24 27 20 20 22
13 13 13 13 12 11 11 10 9 8 9 9 7 6 5 4 3 3 3 4 6 11 14 11 9 10 12 15 14 19 22 21 20 17 13 18 19 15 17 16 29 25 25 26 27
13 13 13 12 12 11 11 10 10 9 9 8 7 5 4 3 2 3 1 3 2 4 9 9 9 11 15 14 17 19 21 16 8 15 15 19 12 18 20 23 26 18 21 22 22
14 13 13 12 13 12 12 11 10 9 8 8 5 5 3 3 3 5 5 3 1 2 8 10 11 14 13 13 14 14 9 12 10 17 21 23 25 19 19 23 23 18 17 18 16
13 13 13 12 12 12 12 11 10 8 8 8 4 3 1 3 2 4 5 4 2 6 9 9 11 10 7 5 9 6 11 16 12 15 25 20 24 25 22 20 20 20 15 17 20
13 13 12 11 11 12 11 10 9 9 8 4 4 1 2 2 1 6 6 5 4 3 2 3 4 1 4 6 8 15 20 23 25 22 17 21 25 26 23 21 20 18 17 14 16
13 14 14 12 11 10 11 10 11 7 6 6 8 9 10 7 2 7 6 10 11 10 5 3 2 4 13 15 19 21 22 24 19 10 16 18 25 26 23 25 22 24 17 13 15
14 13 15 13 12 11 10 9 10 9 6 7 7 6 5 3 4 5 2 5 5 5 4 5 8 10 13 10 11 12 16 13 12 13 11 19 19 18 25 26 25 24 24 18 16
14 13 13 14 12 11 11 10 10 9 7 2 3 5 2 3 2 3 2 6 11 12 7 8 9 12 16 13 15 15 15 14 12 14 14 20 24 23 20 16 13 12 14 14 15
14 14 12 13 13 11 10 10 9 8 0 4 3 6 5 2 5 3 5 5 8 12 5 4 8 17 12 8 14 12 13 12 11 15 12 17 8 9 18 17 19 15 16 15 13
17 14 14 12 11 11 9 7 6 4 2 2 5 4 5 4 3 3 1 3 7 9 7 3 12 15 14 14 15 12 11 15 15 17 16 14 9 4 11 17 18 18 18 20 16
18 18 14 13 11 10 9 7 3 1 1 0 2 1 3 6 8 7 7 6 9 9 9 12 12 9 14 17 17 19 19 21 16 12 5 16 8 6 8 9 12 19 22 22 24
18 17 14 13 10 8 7 6 2 1 3 1 2 3 8 9 4 5 7 10 9 10 16 12 11 9 14 18 22 27 24 8 4 5 4 19 13 5 5 9 13 20 28 27 25
16 15 13 13 11 8 5 4 1 1 2 1 3 4 4 2 1 1 2 7 6 6 6 4 4 9 15 20 21 11 11 4 3 2 6 10 3 3 16 13 20 24 27 26 23
15 14 13 11 10 6 4 4 2 2 6 9 6 9 3 1 0 3 4 2 1 3 3 4 2 8 18 20 24 13 10 10 5 7 2 4 4 17 15 23 28 25 22 26 25
14 11 11 11 11 8 5 7 6 7 4 8 5 4 8 6 4 2 3 4 2 7 9 8 8 10 15 21 12 7 8 5 8 3 3 5 13 8 18 26 26 24 23 25 25
13 10 10 10 10 5 6 7 8 5 3 6 9 6 5 4 6 5 0 2 5 10 10 12 7 11 17 12 10 5 9 11 8 7 3 3 5 16 20 23 26 29 22 21 23
13 8 10 8 4 3 4 4 3 1 3 4 5 6 6 7 4 6 4 6 10 11 13 9 7 7 13 8 4 9 13 17 11 7 17 13 18 14 24 23 26 22 19 21 23
14 7 10 10 7 7 8 5 4 3 3 5 5 7 10 11 9 4 6 12 16 15 12 10 7 7 10 4 14 20 26 14 22 19 17 11 12 20 18 19 24 22 17 22 25
15 8 12 13 16 14 12 9 10 5 3 4 8 12 9 9 8 6 13 12 15 18 13 12 7 6 7 10 15 22 24 14 22 16 20 18 19 19 19 19 21 22 20 22 23
18 15 17 13 17 17 13 11 12 13 12 8 9 8 11 13 12 15 13 13 15 19 19 12 17 19 19 17 26 25 18 21 22 26 23 26 23 25 26 24 23 26 28 28 25
22 21 20 24 21 20 18 17 17 17 15 12 10 11 14 16 15 20 21 20 22 23 27 27 22 27 32 29 27 22 22 20 25 21 23 22 27 24 20 22 23 26 27 26 23
25 25 25 24 25 24 23 22 19 19 16 9 10 9 11 15 19 20 21 25 28 31 36 33 32 32 33 31 18 21 20 19 21 21 23 26 25 23 23 26 29 30 29 25 21

GFSSW_700_spd_108.txt.gz
Wind_Speed
10 9 9 9 8 7 6 5 5 6 8 10 13 14 15 15 14 14 13 16 14 9 9 9 8 8 9 8 6 6 5 5 5 15 18 9 15 17 15 14 19 9 12 14 7
11 10 10 9 9 8 7 6 6 6 5 4 4 5 7 9 11 11 13 14 16 13 11 10 9 8 8 9 6 8 7 5 10 13 16 16 15 19 17 14 10 14 18 14 14
11 11 10 10 9 8 7 7 7 6 6 5 5 4 4 2 4 8 10 11 13 15 14 13 12 10 10 8 5 8 9 12 12 13 15 16 14 18 20 20 21 19 21 15 16
13 12 12 11 10 9 8 8 7 7 7 7 6 3 2 2 2 3 4 6 9 13 15 15 14 13 11 9 7 11 12 16 18 18 17 16 19 19 22 24 20 17 19 10 15
15 14 13 12 12 10 9 9 7 7 8 7 6 3 2 1 0 2 5 6 6 9 12 12 12 13 13 12 14 17 18 20 21 21 23 23 23 21 18 16 14 22 17 15 14
16 15 14 13 12 11 10 9 9 7 7 7 4 2 1 1 1 2 2 5 8 12 14 11 10 12 12 13 15 18 20 18 8 4 3 12 6 10 15 15 16 18 17 17 18
16 15 14 13 12 11 10 9 8 7 6 6 4 2 1 3 3 3 1 5 4 6 13 13 11 9 12 10 10 13 11 5 6 7 16 15 5 14 19 18 15 14 10 7 12
15 15 14 14 12 11 10 9 8 7 5 5 4 2 3 4 7 3 3 2 3 4 11 12 12 10 8 8 9 4 5 6 9 16 18 11 14 21 18 21 19 14 9 4 8
15 15 13 13 13 11 10 9 8 7 6 4 2 1 3 3 3 4 4 4 5 5 7 9 7 4 3 4 5 6 13 15 12 14 10 14 20 19 21 22 19 13 11 4 1
15 15 14 12 12 11 10 9 8 8 5 2 1 2 2 1 2 5 5 6 7 7 4 4 2 3 4 7 9 13 16 12 12 13 12 12 16 20 20 18 18 18 15 10 5
14 15 15 12 11 10 10 9 10 5 7 3 5 5 7 5 3 6 14 12 9 7 5 4 4 4 6 9 12 14 14 13 8 10 13 14 18 23 23 21 15 11 11 13 12
13 14 15 14 12 12 10 10 8 7 5 5 4 5 4 1 5 7 6 6 6 5 1 0 3 7 9 9 8 8 10 11 9 6 10 14 16 16 17 17 17 16 11 6 10
13 13 14 15 13 11 11 10 10 7 4 4 5 4 5 6 4 7 4 5 7 8 1 2 6 13 7 2 6 6 8 7 7 5 4 12 12 12 12 15 17 15 11 9 9
16 14 15 14 13 12 11 9 8 7 3 3 2 4 6 7 7 6 4 2 5 5 7 3 3 8 8 10 14 6 8 8 9 10 5 9 5 7 10 15 16 16 15 14 9
20 17 16 15 13 11 10 9 6 4 3 3 4 5 4 4 1 1 3 1 4 6 4 2 9 8 7 13 15 13 15 15 15 13 8 5 4 3 9 8 11 15 19 20 19
21 21 16 14 13 11 9 7 4 1 1 2 3 3 2 2 4 4 6 5 6 8 7 9 6 5 10 10 14 19 20 16 11 5 2 12 8 6 3 8 9 17 20 24 24
20 19 17 14 11 10 9 5 2 3 2 2 4 3 6 8 3 2 7 9 9 9 9 6 3 4 7 14 19 20 18 5 3 3 4 11 9 4 9 9 17 19 17 18 23
17 18 16 13 11 9 7 4 4 3 2 2 2 2 2 3 6 4 3 7 9 8 4 1 2 5 13 16 18 10 12 1 3 3 5 9 5 2 7 13 21 25 21 23 24
16 17 15 14 10 9 6 5 4 5 3 3 3 3 5 1 1 3 2 6 4 4 1 3 1 8 11 20 15 8 6 4 4 4 2 4 3 8 7 19 23 22 23 26 27
14 13 12 12 11 10 6 8 8 10 5 1 2 2 3 6 4 0 3 3 3 3 3 3 5 7 10 16 12 6 9 6 6 2 4 5 8 18 14 21 19 24 27 28 24
16 13 11 11 10 9 8 12 10 8 7 2 3 4 6 5 5 2 3 6 2 4 4 7 3 4 11 7 7 4 6 9 6 5 3 3 5 13 21 16 23 24 25 26 25
17 12 13 10 8 9 10 8 12 7 7 5 5 5 2 3 2 2 4 3 8 8 10 6 5 4 4 4 2 3 11 16 5 3 12 12 16 12 16 18 20 22 24 27 26
17 14 14 12 11 12 11 9 7 6 9 9 7 6 4 4 3 4 4 9 12 13 9 6 4 4 3 3 5 15 13 17 14 13 13 7 12 28 22 25 25 27 27 30 29
17 11 12 13 15 15 14 12 10 9 7 8 9 8 8 7 7 5 7 8 11 11 12 10 8 9 8 12 10 15 24 21 17 17 20 24 33 28 23 26 27 29 32 34 34
19 17 15 12 16 17 16 14 13 13 9 10 8 8 8 6 9 12 13 14 16 18 12 9 14 20 13 13 17 23 31 21 19 23 24 32 31 27 30 29 27 29 31 31 31
21 20 19 21 21 18 19 18 19 15 13 13 9 8 7 7 11 14 16 17 19 23 25 28 25 28 33 31 30 30 30 19 21 22 27 26 28 29 28 30 30 32 34 33 30
24 24 24 24 24 25 24 22 21 21 15 15 12 10 10 11 14 14 15 19 24 28 29 31 30 28 33 28 19 21 19 16 15 19 20 23 25 27 30 24 24 27 34 37 35

GFSSW_700_spd_111.txt.gz
Wind_Speed
8 7 7 7 6 6 5 4 3 3 4 6 8 10 13 14 13 13 14 15 13 10 9 9 7 6 6 7 7 6 6 4 3 8 11 8 8 9 13 15 16 8 16 12 12
9 8 8 8 8 7 6 5 4 4 3 3 3 2 3 7 9 11 12 13 14 13 10 9 8 6 6 6 5 5 6 5 7 9 13 11 10 10 12 12 16 17 15 14 10
11 10 9 8 8 7 7 6 5 5 4 4 3 2 2 0 4 7 10 10 11 14 15 12 11 9 8 8 6 7 7 10 12 14 15 16 14 13 14 17 12 11 11 9 10
14 12 11 10 8 7 6 6 5 5 4 4 3 1 0 2 3 4 6 7 9 11 15 15 13 12 11 9 9 9 10 12 12 16 20 19 18 17 15 11 11 7 14 11 7
14 13 12 11 10 8 7 6 5 5 4 5 3 1 1 2 3 3 4 4 5 9 12 13 12 12 11 9 12 14 15 16 18 18 16 10 8 5 8 8 8 11 13 10 7
15 14 13 12 11 9 8 7 5 5 4 4 1 1 3 3 3 4 4 6 8 9 9 10 9 10 10 10 11 15 15 10 5 6 2 4 9 8 11 12 10 12 13 11 10
16 15 14 13 12 10 8 7 6 5 3 3 1 3 5 5 5 3 3 5 6 8 12 13 11 9 8 6 6 10 4 3 6 9 8 5 8 13 13 14 15 11 11 3 1
16 15 15 14 12 10 9 7 6 5 3 1 2 4 5 7 6 3 2 3 4 4 9 11 10 7 5 2 5 4 5 3 6 8 9 6 9 14 19 19 15 10 7 7 2
16 16 14 13 12 11 9 8 6 4 3 1 3 6 7 6 3 3 3 5 4 4 7 8 5 3 1 4 4 3 6 6 4 5 10 8 11 16 19 16 16 12 7 5 5
15 16 15 13 12 11 10 8 6 4 1 2 3 7 8 5 3 3 5 6 5 4 4 3 4 5 4 4 3 8 9 8 8 7 6 7 12 17 18 13 11 9 8 9 8
14 15 15 13 12 10 9 8 7 1 2 1 4 4 6 5 6 5 9 11 7 4 4 4 5 2 2 3 4 6 7 5 5 6 6 9 14 16 15 12 15 14 6 3 7
13 14 15 14 13 12 9 6 6 3 2 0 2 4 4 5 9 11 10 8 5 4 3 5 6 4 3 3 4 2 3 4 4 5 5 8 13 16 13 10 12 11 10 8 7
14 13 15 15 13 12 10 7 5 4 3 6 8 8 9 10 9 10 8 7 8 5 4 6 6 9 6 6 1 1 5 7 7 8 10 12 11 13 9 8 10 9 7 9 10
18 14 14 16 14 13 11 8 6 4 6 5 5 8 9 10 8 9 8 6 4 5 5 6 3 3 2 6 5 3 6 8 11 12 10 11 11 9 7 6 6 7 7 7 9
20 17 16 16 15 13 11 9 4 2 2 5 6 9 9 6 8 6 6 4 2 1 2 2 3 3 4 5 8 7 12 15 15 14 12 3 5 5 7 3 6 10 14 17 18
20 21 17 14 13 12 10 7 4 1 2 4 5 6 7 6 5 7 7 7 5 4 3 5 6 4 2 5 11 15 16 16 10 8 6 1 2 7 3 3 6 11 16 19 16
19 20 17 14 12 10 9 5 3 3 4 4 7 6 7 5 4 5 12 11 7 3 3 3 6 5 2 9 13 15 14 5 1 3 3 2 7 7 4 4 10 12 12 15 19
17 18 16 15 11 9 7 5 6 5 7 6 6 6 5 4 5 5 6 11 11 11 8 5 4 1 6 11 12 8 7 3 4 3 6 12 6 3 5 4 12 20 19 19 24
16 16 14 13 11 9 6 7 5 8 8 6 7 8 6 4 4 6 7 8 6 6 5 3 4 3 4 11 11 5 2 2 2 4 4 3 6 11 7 14 17 22 18 22 28
15 13 13 12 11 10 8 9 9 10 7 6 6 6 7 6 3 5 7 8 7 4 4 3 3 4 4 11 5 3 5 3 3 3 5 5 8 14 17 18 25 18 24 23 23
17 14 12 11 10 9 9 10 11 11 12 7 5 5 4 3 4 5 6 9 6 3 0 5 3 4 8 3 3 0 2 4 3 3 5 6 6 12 21 15 20 22 23 24 26
17 14 11 10 9 8 9 10 13 10 13 10 8 6 5 4 3 5 9 8 4 2 6 4 5 6 5 6 7 4 8 7 6 5 10 15 22 11 8 26 22 25 26 27 29
17 16 13 12 11 12 11 12 12 11 10 11 10 10 8 7 3 6 8 6 6 7 4 6 5 6 3 5 9 7 10 9 13 17 17 14 15 13 29 25 23 29 30 29 30
15 11 11 13 13 13 13 13 13 11 10 11 12 12 10 8 7 6 7 5 5 5 7 7 8 10 11 11 12 13 13 15 17 16 22 25 30 26 27 25 29 28 29 31 33
16 14 14 11 13 15 15 12 13 14 12 11 10 10 9 8 9 9 8 8 10 13 5 9 11 16 19 12 16 18 21 22 21 27 20 26 27 28 26 29 30 35 31 29 30
18 17 17 17 17 18 17 16 16 16 14 13 13 12 11 10 8 8 10 10 11 13 17 19 17 17 19 19 19 22 24 26 24 19 24 27 27 24 24 27 30 28 28 30 35
21 20 20 21 20 20 21 20 19 18 14 14 12 12 12 12 12 12 10 9 12 17 21 20 13 11 15 13 8 13 15 7 8 12 17 18 22 24 25 23 25 25 27 34 37

GFSSW_700_spd_114.txt.gz
Wind_Speed
6 6 5 4 4 3 2 1 1 1 2 3 6 9 12 13 13 13 14 15 14 10 8 7 5 4 4 5 5 5 5 6 4 4 7 8 8 8 9 11 15 13 8 12 11
6 6 5 5 5 4 3 2 1 1 1 1 1 1 3 6 9 11 12 13 14 13 10 7 5 4 4 3 4 1 4 5 8 8 8 10 11 11 11 10 10 13 8 9 10
8 8 7 6 5 5 4 3 2 1 1 1 1 0 1 2 4 8 10 10 12 13 13 10 8 5 4 5 6 6 5 6 7 9 11 13 13 13 11 9 9 11 10 8 10
10 9 9 8 7 5 4 3 2 1 1 1 1 1 2 3 3 4 7 8 9 10 12 11 10 7 5 6 8 7 10 10 10 11 13 13 12 7 7 7 7 6 9 8 10
12 11 10 9 8 6 5 4 3 2 1 2 1 3 3 4 3 4 4 5 6 8 10 11 10 7 6 7 7 10 10 9 11 11 5 5 5 2 5 3 5 8 11 9 7
13 12 11 9 8 7 5 4 3 2 1 2 1 3 4 4 5 4 4 5 5 6 7 9 8 8 6 6 6 9 9 8 1 4 1 4 4 5 4 5 6 8 10 10 3
13 13 12 10 8 7 6 5 4 3 1 1 2 4 6 5 6 5 4 5 5 7 10 9 8 4 4 4 6 5 3 4 3 2 1 8 2 7 9 9 6 7 7 8 4
13 13 12 11 9 8 6 5 3 2 1 1 2 5 6 7 6 3 2 3 3 5 10 10 8 6 3 3 2 2 2 8 1 2 0 7 3 11 12 12 12 6 7 7 5
13 12 12 11 10 8 7 5 3 3 1 2 5 7 7 6 4 3 3 4 2 3 5 5 4 4 3 2 3 3 2 3 1 1 2 1 3 12 15 10 9 7 6 9 4
12 13 12 11 10 8 7 5 3 2 2 5 7 6 8 7 4 2 4 5 4 4 4 4 4 4 3 3 2 2 2 1 2 2 2 2 4 8 12 10 10 7 4 5 6
10 12 12 12 10 9 7 5 3 1 2 6 9 6 12 7 4 3 5 7 6 4 3 5 6 4 4 3 2 2 3 4 2 1 1 2 2 6 7 6 7 9 9 8 8
10 11 12 12 11 9 7 6 4 1 3 3 8 8 10 8 8 9 11 7 5 5 5 6 3 3 2 3 2 3 4 2 3 2 3 6 7 4 5 4 5 7 7 6 7
12 10 11 11 12 10 8 5 3 1 4 4 7 9 11 10 10 11 10 7 4 4 7 5 3 5 4 1 2 1 3 4 7 9 9 6 12 6 2 2 5 6 6 9 9
13 11 11 12 11 9 7 5 2 1 6 5 6 8 12 11 9 13 12 7 4 3 7 6 3 3 1 0 1 4 5 8 10 12 12 6 16 8 4 3 1 4 5 8 13
15 13 12 12 11 10 7 5 2 3 5 7 7 11 14 9 10 12 11 7 5 2 6 5 4 2 2 3 3 5 10 11 13 14 13 13 9 6 5 6 3 5 11 14 18
17 15 13 12 12 10 7 4 2 2 3 6 8 10 10 9 10 11 11 10 9 5 4 5 8 4 4 3 3 9 9 13 9 9 14 5 5 4 5 7 4 5 10 15 14
15 15 13 12 11 9 6 2 2 7 5 7 8 10 11 9 7 9 10 10 8 7 8 3 5 5 5 3 5 10 12 10 7 7 3 2 8 11 5 6 4 7 12 20 20
16 15 13 12 10 8 5 2 8 4 6 8 8 9 11 9 8 9 10 11 14 9 6 8 7 7 3 1 5 5 6 6 7 6 7 5 7 1 8 7 9 13 16 21 20
15 15 13 12 10 8 6 9 5 7 7 6 8 11 10 8 9 9 9 10 7 9 7 5 6 8 5 2 5 4 3 4 10 9 11 5 7 10 9 6 8 14 18 16 22
14 13 12 11 10 8 7 11 7 12 10 11 10 10 12 9 9 10 10 8 6 9 11 6 8 8 7 4 2 2 4 7 4 7 9 6 12 14 8 9 16 14 15 17 22
16 14 13 11 9 7 8 10 9 14 13 9 9 8 10 8 9 10 9 7 10 6 8 7 8 6 5 9 7 5 6 4 8 9 9 10 3 2 12 14 14 19 19 23 27
16 9 11 8 6 8 7 11 14 10 14 11 10 9 9 8 8 9 9 7 13 8 6 8 8 14 11 8 12 8 8 8 11 7 13 18 25 12 8 10 21 19 21 26 29
14 15 13 11 6 8 11 8 13 8 8 9 10 11 9 9 6 7 8 11 10 5 6 6 8 12 13 9 10 11 10 12 13 13 16 15 17 15 16 21 20 18 24 28 31
14 6 10 12 14 12 9 9 9 15 14 15 12 13 10 10 10 7 9 10 10 7 7 6 11 13 18 14 9 13 17 16 16 17 22 23 26 24 22 23 20 19 28 29 27
14 13 13 5 8 14 14 11 11 10 14 14 9 11 13 12 11 10 11 8 9 10 7 6 12 15 18 18 21 22 22 21 25 27 28 29 27 23 24 17 17 21 29 27 29
15 14 14 17 15 14 11 9 11 10 11 11 11 10 10 13 13 11 12 11 11 8 8 11 15 16 20 20 22 25 27 28 27 27 27 23 21 14 15 18 20 22 27 28 29
17 16 15 14 13 14 12 11 10 15 12 15 16 13 11 14 18 15 12 11 11 10 12 13 13 13 19 13 11 18 21 19 17 13 15 16 17 19 18 16 21 24 25 28 32

GFSSW_700_spd_120.txt.gz
Wind_Speed
7 7 6 5 4 4 4 4 3 2 3 5 7 9 12 13 14 14 14 14 12 8 5 5 5 3 4 6 5 9 12 17 14 9 8 10 7 8 7 10 9 5 6 6 8
7 7 6 5 4 3 3 3 3 2 1 1 1 2 2 4 8 11 12 11 12 9 6 2 3 3 3 3 3 8 12 12 10 8 7 7 7 5 7 5 9 13 9 5 5
6 6 6 5 4 3 3 3 3 2 1 1 2 2 3 3 2 2 8 9 8 9 9 4 3 5 4 4 7 8 12 10 8 10 8 8 7 6 5 4 9 4 2 11 6
6 6 5 5 4 3 3 3 3 3 2 2 2 0 2 7 4 4 2 6 7 8 9 8 7 5 5 6 7 8 9 8 9 10 9 8 5 2 5 6 5 4 4 13 9
6 6 5 4 4 3 3 2 2 2 2 2 2 2 2 3 4 3 0 3 5 7 7 7 6 5 6 7 8 9 9 8 8 8 4 2 3 6 5 7 6 5 2 10 9
7 6 6 5 4 3 2 2 2 2 1 1 2 4 5 2 5 4 2 1 3 7 8 7 5 6 12 8 8 10 10 8 3 2 3 3 5 4 6 5 5 4 5 5 10
8 7 6 5 4 3 2 1 1 1 1 1 3 5 7 6 9 3 1 1 3 4 2 6 9 6 5 8 6 10 8 6 2 1 2 2 6 4 6 3 4 4 2 6 6
8 7 7 6 4 3 2 1 1 1 0 1 3 5 4 6 4 1 1 3 1 5 9 7 11 9 12 10 11 7 8 12 8 1 3 1 8 5 4 4 4 3 4 2 10
9 7 6 6 5 3 3 2 1 1 1 2 4 5 5 4 3 1 3 2 2 3 7 7 9 9 7 10 12 9 13 12 7 2 3 4 8 6 4 3 5 6 5 2 5
9 7 5 5 5 4 2 2 1 1 2 4 2 2 9 5 3 1 3 9 4 4 4 2 3 6 7 10 14 10 2 2 4 5 1 4 2 3 3 3 4 4 6 5 8
9 8 5 4 4 4 2 1 1 4 5 7 4 2 3 9 3 4 5 6 6 6 5 7 6 12 6 2 6 6 5 7 5 6 5 8 2 2 1 2 4 4 4 5 7
9 9 6 4 4 3 2 1 1 7 6 9 12 13 10 7 3 6 8 8 7 7 5 8 9 5 3 4 6 7 7 11 5 6 8 8 11 11 7 4 4 4 6 5 3
10 9 7 4 4 2 2 1 1 4 6 9 10 13 13 9 6 10 11 8 7 6 9 12 3 1 3 5 6 9 10 6 6 6 12 18 13 16 12 7 6 5 4 2 2
11 9 7 6 4 3 1 1 2 2 5 11 10 10 12 8 8 12 12 7 6 7 10 10 3 3 4 7 6 8 5 6 10 13 18 11 16 20 19 12 9 7 5 3 2
11 10 8 7 6 4 3 2 2 2 5 13 10 12 10 12 7 13 11 10 9 8 6 2 5 4 4 6 3 10 9 12 14 16 18 18 16 11 20 17 13 9 6 1 2
11 9 9 8 7 6 3 2 4 3 6 11 10 9 15 14 8 9 13 12 8 9 10 11 4 6 6 6 8 11 13 14 17 18 19 21 17 20 22 14 13 11 5 1 4
11 9 8 7 8 6 5 6 3 11 5 10 10 10 14 13 12 11 12 13 11 9 13 12 14 9 9 8 9 8 13 16 15 16 6 6 7 12 11 12 12 10 3 2 6
12 10 10 8 7 6 8 3 10 10 10 4 5 11 14 14 13 12 13 13 15 16 15 12 10 14 7 4 7 5 8 8 11 12 12 8 7 7 12 14 16 9 4 7 7
12 10 9 7 7 9 11 12 14 9 8 5 9 12 14 15 15 16 14 17 14 21 14 13 6 9 6 5 3 5 9 14 11 17 19 17 3 6 12 9 8 5 7 5 9
11 9 9 9 6 9 10 18 15 11 8 4 9 10 14 18 14 16 14 14 15 9 5 11 12 9 10 6 9 12 10 13 15 12 9 10 13 11 8 5 8 6 8 11 14
8 2 8 7 7 10 14 12 9 13 12 11 13 15 14 18 14 18 18 15 17 7 9 13 16 14 12 8 13 13 11 8 12 10 10 8 4 7 4 4 6 9 13 16 16
7 5 12 12 10 9 14 12 16 14 9 10 12 15 14 13 18 13 17 5 10 16 10 7 14 16 21 18 11 13 14 18 19 17 15 16 16 3 1 3 10 10 11 15 16
11 15 9 10 12 11 12 16 13 11 12 11 13 13 14 13 13 15 14 7 4 7 11 10 11 15 19 18 19 13 10 13 13 14 16 15 19 11 2 7 7 14 17 22 28
8 2 6 13 15 14 12 9 14 13 14 9 13 12 14 15 16 14 17 6 7 10 16 14 15 12 18 23 12 13 12 11 13 16 19 23 23 19 20 22 16 17 18 21 28
6 4 9 7 6 13 14 15 12 14 10 10 14 14 12 14 15 17 17 13 9 12 13 12 17 18 20 20 20 21 22 22 24 25 27 28 27 24 24 17 16 13 12 15 19
9 9 17 22 11 9 9 11 16 14 13 12 14 13 13 18 16 16 16 17 17 13 9 10 19 15 19 19 20 26 25 25 26 26 29 27 26 20 13 10 10 13 16 23 19
22 22 17 15 7 14 16 14 14 14 16 13 13 9 14 11 16 14 14 14 10 14 12 9 13 14 20 18 22 25 23 23 22 21 23 22 15 13 11 11 12 15 16 19 21

GFSSW_700_spd_123.txt.gz
Wind_Speed
7 7 6 5 5 4 3 3 2 1 1 3 5 6 9 12 14 13 11 11 9 5 2 1 2 2 5 12 8 7 12 16 14 11 9 12 7 7 13 14 15 10 15 10 5
7 7 6 5 5 4 4 3 3 2 1 1 2 2 2 2 4 6 9 7 8 6 4 2 9 12 9 7 7 10 14 12 13 8 5 7 5 9 10 14 11 8 11 11 5
8 7 7 6 5 4 3 3 2 2 1 1 2 3 4 6 6 2 4 5 5 6 7 6 12 4 1 4 1 7 10 12 8 9 6 6 7 5 5 15 8 7 7 10 6
7 7 7 6 5 4 3 2 2 1 1 1 1 1 3 5 4 6 2 3 4 5 7 6 8 7 3 7 15 11 10 8 10 10 6 4 9 8 4 10 8 4 6 11 11
7 7 6 5 4 3 3 2 2 1 2 1 1 2 2 1 4 5 4 3 5 6 7 9 11 6 8 16 9 5 7 4 5 7 9 6 8 8 12 9 8 4 6 8 11
7 6 6 5 4 3 2 2 1 1 0 1 1 3 3 2 2 3 2 2 5 7 8 9 9 3 10 3 10 10 13 5 2 1 6 6 12 9 12 8 11 6 3 6 10
7 6 5 5 4 3 2 2 1 1 0 0 2 3 4 5 4 1 1 2 5 8 10 9 1 8 4 9 3 10 8 4 2 3 2 4 10 7 5 7 9 6 7 6 8
8 6 5 4 3 3 2 2 1 0 1 2 2 4 3 3 2 2 2 5 6 4 6 9 8 9 8 4 6 12 13 12 13 7 4 6 11 8 11 3 4 7 4 10 6
8 6 5 5 3 2 2 1 1 1 2 2 2 2 3 3 2 1 1 7 7 3 2 4 7 5 1 9 17 15 22 14 12 8 6 2 12 8 3 3 4 6 7 7 15
8 6 5 4 3 2 1 1 2 2 3 5 3 3 6 3 4 2 3 12 5 5 2 10 1 2 2 5 12 13 19 19 16 10 11 2 13 11 7 2 6 8 6 8 6
9 7 4 3 2 1 2 4 2 2 6 5 8 5 13 1 2 2 2 10 6 5 3 4 7 8 8 5 3 8 10 8 7 12 2 5 12 9 7 7 5 4 3 3 9
9 8 5 4 2 2 2 3 3 7 7 11 8 12 5 8 4 1 6 6 6 4 3 6 11 10 4 5 8 9 7 7 7 3 5 7 4 11 11 6 5 7 6 8 3
10 9 6 4 4 3 3 1 3 6 10 8 12 11 19 11 6 8 5 12 7 6 5 10 14 9 6 6 6 8 9 4 4 4 4 10 15 12 16 15 11 8 6 7 6
11 10 6 6 5 4 3 1 3 5 6 5 9 7 13 7 7 12 12 11 4 6 11 13 7 4 3 5 8 7 8 5 5 10 14 16 17 14 23 18 12 12 11 9 6
11 9 8 7 7 6 5 3 2 1 3 7 9 3 12 8 7 16 12 10 7 10 8 9 7 1 0 5 5 6 9 12 12 13 15 21 16 12 26 21 21 16 11 6 5
10 9 9 8 9 9 6 4 4 1 7 13 13 13 13 13 10 12 11 9 8 12 7 15 8 9 9 7 8 11 8 10 16 20 17 25 24 24 27 23 29 22 17 14 9
11 10 8 8 8 7 8 9 3 6 9 16 13 9 17 11 10 16 10 12 10 7 11 8 15 17 11 12 5 6 10 7 6 5 3 15 11 15 19 27 31 24 14 4 3
12 11 10 9 9 10 12 13 6 7 11 5 13 13 12 17 13 19 12 12 15 11 16 18 20 23 13 8 3 4 6 3 2 3 10 7 2 19 20 29 22 14 8 2 7
12 11 9 10 12 11 15 13 12 6 10 6 8 9 17 15 19 22 19 15 16 20 17 10 3 10 7 7 5 2 8 10 11 13 8 9 16 16 15 15 13 9 10 10 11
12 10 9 12 15 14 17 21 19 13 8 5 4 4 9 12 15 16 12 11 15 16 18 11 3 5 9 11 7 10 8 7 5 2 5 8 7 20 14 11 11 13 12 11 15
10 5 8 2 9 14 19 22 13 6 12 13 9 12 11 15 15 18 23 17 15 18 16 14 10 15 11 8 11 10 14 10 9 7 1 3 5 12 12 14 14 11 13 18 22
9 7 8 10 10 12 18 14 8 8 7 12 18 19 16 14 15 12 8 9 8 12 9 7 7 10 14 17 6 6 8 8 2 7 20 10 2 5 8 9 11 15 19 20 23
12 17 13 11 16 12 4 11 14 21 16 9 12 10 10 16 14 11 6 5 10 15 9 12 5 5 11 16 14 11 17 12 10 13 17 7 9 12 4 3 8 11 15 21 24
10 9 7 18 12 16 17 16 10 20 19 15 11 16 12 13 15 12 12 8 9 12 14 13 13 9 8 14 15 17 14 10 11 15 15 20 16 17 18 9 9 10 12 13 16
13 14 10 13 17 15 14 14 14 7 13 12 17 13 11 10 11 14 13 11 9 11 15 16 17 22 22 21 16 19 20 19 19 20 19 19 21 22 29 22 16 15 16 13 19
23 28 19 22 15 13 11 10 11 13 8 11 12 13 12 15 15 16 18 12 23 15 13 11 10 13 13 14 18 22 22 21 22 23 26 26 26 21 22 22 16 19 21 22 29
21 24 23 25 21 11 7 9 8 9 15 11 10 9 11 16 18 21 13 9 3 4 10 11 6 9 13 13 17 21 24 23 23 22 23 17 6 10 14 16 20 21 23 25 24

GFSSW_700_spd_126.txt.gz
Wind_Speed
6 6 6 5 4 4 2 1 0 1 2 2 4 6 8 10 10 10 8 10 8 7 8 9 9 9 7 8 1 6 15 15 10 7 3 8 5 11 11 9 12 12 12 14 9
7 7 6 5 4 3 3 2 2 2 3 3 2 2 2 1 2 5 8 8 9 10 10 10 12 18 16 11 2 6 13 9 6 3 7 8 3 10 12 10 8 10 13 13 7
7 8 7 6 4 3 3 2 1 2 2 2 2 4 7 9 9 5 7 8 9 11 11 12 17 21 14 5 5 16 6 4 5 9 5 5 6 10 11 9 10 11 10 10 12
7 7 7 6 5 4 3 2 1 1 1 1 2 3 8 7 5 7 7 8 9 12 13 12 21 17 8 4 6 13 3 3 2 6 1 5 9 9 5 6 6 8 13 10 14
7 7 7 7 5 4 3 1 0 0 1 1 1 2 3 6 8 8 8 6 8 11 13 15 16 9 4 3 7 8 6 3 5 2 10 7 9 11 5 5 6 7 10 9 13
6 6 6 6 6 4 3 1 0 1 2 1 2 3 3 4 3 6 8 6 7 9 11 15 15 8 6 2 3 7 4 6 9 9 8 8 11 2 9 5 10 7 4 6 8
6 6 6 6 6 4 3 2 2 2 2 2 3 3 3 4 3 6 6 8 8 10 12 15 13 6 5 9 5 3 5 8 12 11 11 16 10 10 9 6 4 6 3 1 4
6 5 5 5 5 5 4 3 2 2 3 3 3 4 2 5 5 6 5 7 8 9 13 9 6 5 10 5 2 1 5 8 9 13 12 12 12 11 13 4 4 7 4 4 2
7 6 5 4 4 4 4 3 4 4 3 3 3 3 2 3 8 5 7 12 11 7 6 3 2 2 5 1 7 10 11 10 11 10 13 11 19 22 15 7 5 2 7 8 4
8 6 5 5 4 4 4 4 4 5 6 6 6 5 3 2 6 6 7 8 11 13 10 8 5 3 4 4 8 13 18 9 18 13 13 11 19 19 12 10 7 8 6 14 12
9 8 6 6 4 4 5 6 5 6 8 7 7 10 5 3 7 5 4 5 8 7 6 5 3 4 9 3 6 11 7 4 14 16 7 12 14 17 17 14 11 9 6 3 7
10 9 7 7 6 5 5 6 7 8 8 11 8 9 8 7 3 2 5 7 13 10 6 1 1 5 4 3 7 7 7 8 13 8 1 11 12 19 20 16 9 9 4 6 5
11 9 8 8 8 7 7 7 6 6 9 12 10 13 7 4 6 5 5 13 11 7 3 6 5 2 1 6 4 5 8 7 4 1 2 3 4 22 20 16 14 9 4 4 5
12 10 8 9 9 9 8 9 6 3 5 7 12 15 16 11 11 12 6 7 9 1 8 8 3 6 5 4 5 5 4 5 6 7 4 8 6 20 26 23 17 11 8 9 6
12 10 10 11 12 10 7 6 6 4 2 6 9 7 9 12 6 10 8 10 10 5 6 3 3 5 4 1 4 4 9 13 14 12 15 17 8 14 30 27 21 15 14 13 9
13 11 11 12 13 14 9 8 7 4 5 10 11 9 13 13 12 6 13 9 8 10 10 9 5 6 6 6 6 7 5 4 8 10 8 24 12 17 35 33 24 20 18 14 8
14 13 11 12 13 13 12 10 7 6 4 11 17 11 9 18 16 17 14 10 13 9 11 8 10 10 16 13 10 5 6 5 5 5 7 18 11 16 33 33 29 28 21 11 8
15 14 12 13 14 15 16 15 10 5 3 7 19 14 11 17 18 21 17 10 7 12 10 8 12 14 19 11 6 5 2 3 1 1 10 12 7 7 30 34 28 21 13 7 7
15 13 11 15 16 17 18 19 12 5 5 9 14 22 17 15 12 24 26 19 8 10 15 6 2 4 8 9 7 2 5 3 2 3 5 3 12 7 15 31 23 17 12 10 11
14 12 11 15 16 18 21 24 21 13 6 3 2 17 12 17 17 25 30 27 19 13 14 17 11 7 6 10 8 6 3 4 3 2 3 1 8 19 28 28 21 16 14 14 15
11 9 9 8 14 19 24 27 28 9 4 6 12 11 6 4 4 5 16 27 24 17 17 24 22 12 11 13 10 7 9 9 4 2 5 0 2 19 18 16 17 19 19 18 18
11 11 14 14 14 18 21 22 16 12 6 5 12 15 18 14 11 5 7 6 15 17 26 23 15 13 11 12 7 6 11 14 12 9 5 3 7 11 11 17 21 20 19 19 21
13 17 19 16 16 16 13 12 13 15 9 8 8 9 7 14 10 5 4 4 6 17 22 20 12 9 8 13 13 5 6 7 11 11 12 4 6 14 14 17 15 15 18 22 26
14 20 24 22 16 12 15 17 12 11 9 15 16 15 14 12 12 7 5 5 6 9 13 13 13 12 12 8 10 10 10 8 6 9 10 17 18 16 19 22 22 24 26 27 29
19 20 27 20 24 21 18 14 11 9 6 13 11 18 19 17 16 7 13 5 10 10 12 11 9 10 14 17 19 19 21 16 12 11 15 15 18 19 17 20 23 22 23 23 24
20 19 23 20 18 22 15 10 8 11 7 9 9 8 16 22 17 17 11 5 3 15 15 16 11 12 13 17 18 25 27 21 19 17 19 19 23 25 22 22 20 18 16 18 23
20 22 23 24 20 15 15 14 12 11 9 10 10 12 18 17 17 17 16 11 4 4 19 15 13 10 12 14 16 15 20 21 21 23 24 27 26 25 26 24 21 20 22 26 30

GFSSW_700_spd_129.txt.gz
Wind_Speed
6 6 6 5 4 2 1 2 3 4 5 6 7 8 10 12 13 14 12 13 11 11 11 11 9 6 6 8 3 5 8 11 6 5 11 10 14 14 11 12 14 12 13 10 13
6 6 6 5 4 2 1 1 2 3 3 4 3 3 4 6 9 12 14 13 14 12 12 13 11 11 11 8 1 5 12 7 7 4 6 4 7 9 4 12 10 13 12 12 9
6 6 6 5 4 2 2 0 2 3 4 4 4 4 7 8 8 10 14 14 15 14 14 15 16 15 9 5 5 10 11 2 5 5 1 4 12 8 6 8 7 13 11 16 9
6 7 6 6 4 3 2 1 2 4 4 4 5 8 9 7 4 9 12 14 16 16 15 15 19 17 10 3 5 8 7 3 4 2 3 8 12 9 7 7 9 10 12 13 17
6 7 6 6 5 3 2 1 2 3 4 4 5 8 7 8 8 10 12 13 15 17 15 18 17 12 9 5 3 3 2 2 4 0 10 10 10 9 9 3 5 6 6 7 13
6 7 7 7 6 4 2 2 2 3 4 4 5 7 8 6 6 8 11 13 14 17 17 17 14 13 12 8 2 4 2 3 6 10 9 13 11 6 7 6 5 6 4 4 6
7 7 7 6 6 5 3 3 3 3 4 4 6 8 9 6 8 10 10 12 15 17 18 20 16 13 17 9 5 5 7 6 13 13 11 11 13 8 11 9 2 8 7 2 2
9 8 8 7 6 5 4 3 4 4 4 5 6 8 7 6 8 11 11 11 12 18 23 20 19 14 13 11 5 2 6 8 15 13 12 17 13 13 11 8 3 6 7 5 3
10 9 8 8 7 6 4 5 5 5 6 6 8 7 7 7 8 10 14 14 13 11 12 14 9 8 9 6 1 3 5 13 12 15 18 21 15 16 13 9 4 3 10 8 5
11 9 9 8 7 7 5 5 6 7 7 8 10 8 7 9 8 10 13 17 18 15 11 8 6 7 7 2 1 6 12 5 15 16 18 24 17 18 14 14 8 3 9 13 5
11 10 9 10 7 8 6 7 7 8 10 11 9 10 10 12 11 10 12 16 20 17 12 5 4 7 4 5 1 5 6 3 14 12 18 21 19 20 17 16 14 5 5 6 3
12 11 10 10 8 8 8 10 11 10 9 13 12 13 11 15 12 10 12 13 14 14 9 6 8 5 5 3 3 4 6 3 15 9 5 20 26 27 23 18 14 11 6 5 7
13 12 10 11 10 10 10 10 9 10 10 11 14 13 10 11 11 7 10 15 15 13 7 1 3 4 4 2 5 2 4 9 7 6 2 16 28 29 27 21 17 15 10 7 4
14 12 11 12 12 12 11 10 8 8 7 10 17 16 15 11 10 10 11 17 16 8 1 3 5 8 6 4 4 6 2 4 4 5 4 8 11 33 31 27 23 20 17 11 4
14 12 12 13 13 13 10 7 7 4 2 6 13 13 14 13 6 13 16 15 13 4 3 4 5 8 8 5 2 1 4 6 9 7 8 12 6 19 36 32 30 28 22 15 8
15 13 13 14 15 16 11 7 6 5 6 10 14 15 19 16 13 14 14 13 10 11 10 6 5 7 6 6 6 6 7 10 7 6 4 1 4 10 31 32 35 30 25 21 17
16 15 13 15 17 16 13 10 6 7 5 8 17 17 19 21 18 15 18 15 16 13 13 9 10 10 7 11 9 7 3 4 4 4 6 8 14 7 15 24 31 31 26 22 15
17 16 14 16 18 17 17 15 10 5 8 2 15 16 20 22 18 18 20 17 17 16 9 6 7 8 12 17 13 7 6 2 3 2 8 9 5 5 9 23 32 29 22 17 14
17 16 14 19 18 18 19 21 13 8 3 2 10 20 23 22 17 20 21 22 13 19 16 8 3 7 5 10 9 6 5 5 3 6 3 6 8 6 8 16 29 30 22 16 11
15 15 16 17 18 20 23 26 20 12 2 4 5 21 15 20 23 20 22 19 22 18 19 13 8 11 13 12 10 8 3 2 3 1 3 5 4 8 8 17 28 27 20 14 15
13 14 15 16 17 20 26 27 30 15 6 6 7 11 17 15 18 13 17 28 27 26 24 24 17 15 16 16 14 12 11 8 6 4 6 1 4 12 11 18 26 21 16 18 15
13 13 15 18 20 22 25 27 26 19 16 9 7 9 13 13 10 6 6 7 23 29 33 28 22 17 22 15 15 11 7 13 12 8 7 4 7 8 12 18 20 19 20 17 15
14 16 19 19 19 17 17 18 20 21 19 13 9 12 14 9 9 9 9 5 7 18 25 29 18 16 14 13 11 10 10 12 11 12 14 8 9 10 16 25 24 22 19 19 20
16 20 27 25 22 18 17 15 16 13 19 16 17 15 12 13 10 9 9 10 10 14 21 24 17 20 24 17 14 14 13 10 11 9 12 17 16 10 18 23 25 25 23 22 24
19 21 30 23 26 25 20 10 10 15 12 14 20 20 18 18 18 14 12 12 13 14 12 15 13 14 11 9 10 11 12 13 14 14 12 14 15 10 12 18 24 26 26 26 27
19 21 26 23 29 27 23 21 15 12 13 12 17 17 15 18 19 16 16 12 17 17 15 15 12 14 15 16 16 19 23 21 18 16 18 19 22 20 20 17 24 27 29 27 23
20 20 22 29 21 21 22 21 16 15 11 13 11 13 15 13 16 19 16 15 15 15 18 18 17 17 14 15 13 12 19 22 21 22 21 25 29 28 30 26 22 24 23 21 18